[[{"header":{"parameterUnit":"m.s-1","parameterCategory":1,"la1":31.0,"la2":29.5877,"lo1":-88.7671,"lo2":-86.6584,"dy":0.0162,"dx":0.0185,"nx":115,"ny":88,"refTime":"2023-09-18T12:00:00:Z","depth":0,"parameterNumber":2,"parameterNumberName":"U-component_of_WINDS"},"data":[0.0,0.0,0.0,0.0,0.0,0.0,0.0,0.0,0.0,0.0,0.0,0.0,0.0,0.0,0.0,0.0,0.0,0.0,0.0,0.0,0.0,0.0,0.0,0.0,0.0,0.0,0.0,0.0,0.0,0.0,0.0,0.0,0.0,0.0,0.0,0.0,0.0,0.0,0.0,0.0,0.0,0.0,0.0,0.0,0.0,0.0,0.0,0.0,0.0,0.0,0.0,0.0,0.0,0.0,0.0,0.0,0.0,0.0,0.0,0.0,0.0,0.0,0.0,0.0,0.0,0.0,0.0,0.0,0.0,0.0,0.0,0.0,0.0,0.0,0.0,0.0,0.0,0.0,0.0,0.0,0.0,0.0,0.0,0.0,0.0,0.0,0.0,0.0,0.0,0.0,0.0,0.0,0.0,0.0,0.0,0.0,0.0,0.0,0.0,0.0,0.0,0.0,0.0,0.0,0.0,0.0,0.0,0.0,0.0,0.0,0.0,0.0,0.0,0.0,0.0,0.0,0.0,0.0,0.0,0.0,0.0,0.0,0.0,0.0,0.0,0.0,0.0,0.0,0.0,0.0,0.0,0.0,0.0,0.0,0.0,0.0,0.0,0.0,0.0,0.0,0.0,0.0,0.0,0.0,0.0,0.0,0.0,0.0,0.0,0.0,0.0,0.0,0.0,0.0,0.0,0.0,0.0,0.0,0.0,0.0,0.0,0.0,0.0,0.0,0.0,0.0,0.0,0.0,0.0,0.0,0.0,0.0,0.0,0.0,0.0,0.0,0.0,0.0,0.0,0.0,0.0,0.0,0.0,0.0,0.0,0.0,0.0,0.0,0.0,0.0,0.0,0.0,0.0,0.0,0.0,0.0,0.0,0.0,0.0,0.0,0.0,0.0,0.0,0.0,0.0,0.0,0.0,0.0,0.0,0.0,0.0,0.0,0.0,0.0,0.0,0.0,0.0,0.0,0.0,0.0,0.0,0.0,0.0,0.0,0.0,0.0,0.0,0.0,0.0,0.0,0.0,0.0,0.0,0.0,0.0,0.0,0.0,0.0,0.0,0.0,0.0,0.0,0.0,0.0,0.0,0.0,0.0,0.0,0.0,0.0,0.0,0.0,0.0,0.0,0.0,0.0,0.0,0.0,0.0,0.0,0.0,0.0,0.0,0.0,0.0,0.0,0.0,0.0,0.0,0.0,0.0,0.0,0.0,0.0,0.0,0.0,0.0,0.0,0.0,0.0,0.0,0.0,0.0,0.0,0.0,0.0,0.0,0.0,0.0,0.0,0.0,0.0,0.0,0.0,0.0,0.0,0.0,0.0,0.0,0.0,0.0,0.0,0.0,0.0,0.0,0.0,0.0,0.0,0.0,0.0,0.0,0.0,0.0,0.0,0.0,0.0,0.0,0.0,0.0,0.0,0.0,0.0,0.0,0.0,0.0,0.0,0.0,0.0,0.0,0.0,0.0,0.0,0.0,0.0,0.0,0.0,0.0,0.0,0.0,0.0,0.0,0.0,0.0,0.0,0.0,0.0,0.0,0.0,0.0,0.0,0.0,0.0,0.0,0.0,0.0,0.0,0.0,0.0,0.0,0.0,0.0,0.0,0.0,0.0,0.0,0.0,0.0,0.0,0.0,0.0,0.0,0.0,0.0,0.0,0.0,0.0,0.0,0.0,0.0,0.0,0.0,0.0,0.0,0.0,0.0,0.0,0.0,0.0,0.0,0.0,0.0,0.0,0.0,0.0,0.0,0.0,0.0,0.0,0.0,0.0,0.0,0.0,0.0,0.0,0.0,0.0,0.0,0.0,0.0,0.0,0.0,0.0,0.0,0.0,0.0,0.0,0.0,0.0,0.0,0.0,0.0,0.0,0.0,0.0,0.0,0.0,0.0,0.0,0.0,0.0,0.0,0.0,0.0,0.0,0.0,0.0,0.0,0.0,0.0,0.0,0.0,0.0,0.0,0.0,0.0,0.0,0.0,0.0,0.0,0.0,0.0,0.0,0.0,0.0,0.0,0.0,0.0,0.0,0.0,0.0,0.0,0.0,0.0,0.0,0.0,0.0,0.0,0.0,0.0,0.0,0.0,0.0,0.0,0.0,0.0,0.0,0.0,0.0,0.0,0.0,0.0,0.0,0.0,0.0,0.0,0.0,0.0,0.0,0.0,0.0,0.0,0.0,0.0,0.0,0.0,0.0,0.0,0.0,0.0,0.0,0.0,0.0,0.0,0.0,0.0,0.0,0.0,0.0,0.0,0.0,0.0,0.0,0.0,0.0,0.0,0.0,0.0,0.0,0.0,0.0,0.0,0.0,0.0,0.0,0.0,0.0,0.0,0.0,0.0,0.0,0.0,0.0,0.0,0.0,0.0,0.0,0.0,0.0,0.0,0.0,0.0,0.0,0.0,0.0,0.0,0.0,0.0,0.0,0.0,0.0,0.0,0.0,0.0,0.0,0.0,0.0,0.0,0.0,0.0,0.0,0.0,0.0,0.0,0.0,0.0,0.0,0.0,0.0,0.0,0.0,0.0,0.0,0.0,0.0,0.0,0.0,0.0,0.0,0.0,0.0,0.0,0.0,0.0,0.0,0.0,0.0,0.0,0.0,0.0,0.0,0.0,0.0,0.0,0.0,0.0,0.0,0.0,0.0,0.0,0.0,0.0,0.0,0.0,0.0,0.0,0.0,0.0,0.0,0.0,0.0,0.0,0.0,0.0,0.0,0.0,0.0,0.0,0.0,0.0,0.0,0.0,0.0,0.0,0.0,0.0,0.0,0.0,0.0,0.0,0.0,0.0,0.0,0.0,0.0,0.0,0.0,0.0,0.0,0.0,0.0,0.0,0.0,0.0,0.0,0.0,0.0,0.0,0.0,0.0,0.0,0.0,0.0,0.0,0.0,0.0,0.0,0.0,0.0,0.0,0.0,0.0,0.0,0.0,0.0,0.0,0.0,0.0,0.0,0.0,0.0,0.0,0.0,0.0,0.0,0.0,0.0,0.0,0.0,0.0,0.0,0.0,0.0,0.0,0.0,0.0,0.0,0.0,0.0,0.0,0.0,0.0,0.0,0.0,0.0,0.0,0.0,0.0,0.0,0.0,0.0,0.0,0.0,0.0,0.0,0.0,0.0,0.0,0.0,0.0,0.0,0.0,0.0,0.0,0.0,0.0,0.0,0.0,0.0,0.0,0.0,0.0,0.0,0.0,0.0,0.0,0.0,0.0,0.0,0.0,0.0,0.0,0.0,0.0,0.0,0.0,0.0,0.0,0.0,0.0,0.0,0.0,0.0,0.0,0.0,0.0,0.0,0.0,0.0,0.0,0.0,0.0,0.0,0.0,0.0,0.0,0.0,0.0,0.0,0.0,0.0,0.0,0.0,0.0,0.0,0.0,0.0,0.0,0.0,0.0,0.0,0.0,0.0,0.0,0.0,0.0,0.0,0.0,0.0,0.0,0.0,0.0,0.0,0.0,0.0,0.0,0.0,0.0,0.0,0.0,0.0,0.0,0.0,0.0,0.0,0.0,0.0,0.0,0.0,0.0,0.0,0.0,0.0,0.0,0.0,0.0,0.0,0.0,0.0,0.0,0.0,0.0,0.0,0.0,0.0,0.0,0.0,0.0,0.0,0.0,0.0,0.0,0.0,0.0,0.0,0.0,0.0,0.0,0.0,0.0,0.0,0.0,0.0,0.0,0.0,0.0,0.0,0.0,0.0,0.0,0.0,0.0,0.0,0.0,0.0,0.0,0.0,0.0,0.0,0.0,0.0,0.0,0.0,0.0,0.0,0.0,0.0,0.0,0.0,0.0,0.0,0.0,0.0,0.0,0.0,0.0,0.0,0.0,0.0,0.0,0.0,0.0,0.0,0.0,0.0,0.0,0.0,0.0,0.0,0.0,0.0,0.0,0.0,0.0,0.0,0.0,0.0,0.0,0.0,0.0,0.0,0.0,0.0,0.0,0.0,0.0,0.0,0.0,0.0,0.0,0.0,0.0,0.0,0.0,0.0,0.0,0.0,0.0,0.0,0.0,0.0,0.0,0.0,0.0,0.0,0.0,0.0,0.0,0.0,0.0,0.0,0.0,0.0,0.0,0.0,0.0,0.0,0.0,0.0,0.0,0.0,0.0,0.0,0.0,0.0,0.0,0.0,0.0,0.0,0.0,0.0,0.0,0.0,0.0,0.0,0.0,0.0,0.0,0.0,0.0,0.0,0.0,0.0,0.0,0.0,0.0,0.0,0.0,0.0,0.0,0.0,0.0,0.0,0.0,0.0,0.0,0.0,0.0684,0.0,0.0,0.0,0.0,0.0,0.0,0.0,0.0,0.0,0.0,0.0,0.0,0.0,0.0,0.0,0.0,0.0,0.0,0.0,0.0,0.0,0.0,0.0,0.0,0.0,0.0,0.0,0.0,0.0,0.0,0.0,0.0,0.0,0.0,0.0,0.0,0.0,0.0,0.0,0.0,0.0,0.0,0.0,0.0,0.0,0.0,0.0,0.0,0.0,0.0,0.0,0.0,0.0,0.0,0.0,0.0,0.0,0.0,0.0,0.0,0.0,0.0,0.0,0.0,0.0,0.0,0.0,0.0,0.0,0.0,0.0,0.0,0.0,0.0,0.0,0.0,0.0,0.0,0.0,0.0,0.0,0.0,0.0,0.0,0.0,0.0,0.0,0.0,0.0,0.0,0.0,0.0,0.0,0.0,0.0,0.0,0.0,0.0,0.0,0.0,0.0,0.0,0.0,0.0,0.0,0.0,0.0,0.0,0.0,0.0,0.061,0.061,0.0639,0.0671,0.0703,0.0,0.0,0.0,0.0,0.0,0.0,0.0,0.0,0.0,0.0,0.0,0.0,0.0,0.0,0.0,0.0,0.0,0.0,0.0,0.0,0.0,0.0,0.0,0.0,0.0,0.0,0.0,0.0,0.0,0.0,0.0,0.0,0.0,0.0,0.0,0.0,0.0,0.0,0.0,0.0,0.0,0.0,0.0,0.0,0.0,0.0,0.0,0.0,0.0,0.0,0.0,0.0,0.0,0.0,0.0,0.0,0.0,0.0,0.0,0.0,0.0,0.0,0.0,0.0,0.0,0.0,0.0,0.0,0.0,0.0,0.0,0.0,0.0,0.0,0.0,0.0,0.0,0.0,0.0,0.0,0.0,0.0,0.0,0.0,0.0,0.0,0.0,0.0,0.0,0.0,0.0,0.0,0.0,0.0,0.0,0.0,0.0,0.0,0.0,0.0,0.0,0.0,0.0,0.0,0.0,0.0,0.0,0.0,0.0,0.0,0.0,0.0,0.0673,0.0705,0.0705,0.0,0.0,0.0,0.0,0.0,0.0,0.0,0.0,0.0,0.0,0.0,0.0,0.0,0.0,0.0,0.0,0.0,0.0,0.0,0.0,0.0,0.0,0.0,0.0,0.0,0.0,0.0,0.0,0.0,0.0,0.0,0.0,0.0,0.0,0.0,0.0,0.0,0.0,0.0,0.0,0.0,0.0,0.0,0.0,0.0,0.0,0.0,0.0,0.0,0.0,0.0,0.0,0.0,0.0,0.0,0.0,0.0,0.0,0.0,0.0,0.0,0.0,0.0,0.0,0.0,0.0,0.0,0.0,0.0,0.0,0.0,0.0,0.0,0.0,0.0,0.0,0.0,0.0,0.0,0.0,0.0,0.0,0.0,0.0,0.0,0.0,0.0,0.0,0.0,0.0,0.0,0.0,0.0,0.0,0.0,0.0,0.0,0.0,0.0,0.0,0.0,0.0,0.0,0.0,0.0,0.0,0.0,0.0,0.0,0.0,0.07,0.0695,0.0703,0.0,0.0705,0.0,0.0,0.0,0.0,0.0,0.0,0.0,0.0,0.0,0.0,0.0,0.0,0.0,0.0,0.0,0.0,0.0,0.0,0.0,0.0,0.0,0.0,0.0,0.0,0.0,0.0,0.0,0.0,0.0,0.0,0.0,0.0,0.0,0.0,0.0,0.0,0.0,0.0,0.0,0.0,0.0,0.0,0.0,0.0,0.0,0.0,0.0,0.0,0.0,0.0,0.0,0.0,0.0,0.0,0.0,0.0,0.0,0.0,0.0,0.0,0.0,0.0,0.0,0.0,0.0,0.0,0.0,0.0,0.0,0.0,0.0,0.0,0.0,0.0,0.0,0.0,0.0,0.0,0.0,0.0,0.0,0.0,0.0,0.0,0.0,0.0,0.0,0.0,0.0,0.0,0.0,0.0,0.0,0.0,0.0,0.0,0.0,0.0,0.0,0.0,0.0,0.0,0.0,0.0,0.0,0.0,0.0,0.0,0.0,0.0,0.0765,0.0765,0.0765,0.0731,0.0,0.0,0.0,0.0,0.0,0.0,0.0,0.0,0.0,0.0,0.0,0.0,0.0,0.0,0.0,0.0,0.0,0.0,0.0,0.0,0.0,0.0,0.0,0.0,0.0,0.0,0.0,0.0,0.0,0.0,0.0,0.0,0.0,0.0,0.0,0.0,0.0,0.0,0.0,0.0,0.0,0.0,0.0,0.0,0.0,0.0,0.0,0.0,0.0,0.0,0.0,0.0,0.0,0.0,0.0,0.0,0.0,0.0,0.0,0.0,0.0,0.0,0.0,0.0,0.0,0.0,0.0,0.0,0.0,0.0,0.0,0.0,0.0,0.0,0.0,0.0,0.0,0.0,0.0,0.0,0.0,0.0,0.0,0.0,0.0,0.0,0.0,0.0,0.0,0.0,0.0,0.0,0.0,0.0,0.0,0.0,0.0,0.0,0.0,0.0,0.0,0.0,0.0,0.0,0.0,0.0,0.0,0.0,0.0,0.0,0.0779,0.0818,0.0822,0.0825,0.0814,0.0764,0.0,0.0,0.0,0.0,0.0,0.0,0.0,0.0,0.0,0.0,0.0,0.0,0.0,0.0,0.0,0.0,0.0,0.0,0.0,0.0,0.0,0.0,0.0,0.0,0.0,0.0,0.0,0.0,0.0,0.0,0.0,0.0,0.0,0.0,0.0,0.0,0.0,0.0,0.0,0.0,0.0,0.0,0.0,0.0,0.0,0.0,0.0,0.0,0.0,0.0,0.0,0.0,0.0,0.0,0.0,0.0,0.0,0.0,0.0,0.0,0.0,0.0,0.0,0.0,0.0,0.0,0.0,0.0,0.0,0.0,0.0,0.0,0.0,0.0,0.0,0.0,0.0,0.0,0.0,0.0,0.0,0.0,0.0,0.0,0.0,0.0,0.0,0.0,0.0,0.0,0.0,0.0,0.0,0.0,0.0,0.0,0.0,0.0,0.0,0.0,0.0,0.0,0.0,0.0,0.0,0.0,0.0,0.0,0.0786,0.0791,0.0827,0.0888,0.0891,0.0891,0.0,0.0,0.0,0.0,0.0,0.0,0.0,0.0,0.0,0.0,0.0,0.0,0.0,0.0,0.0,0.0,0.0,0.0,0.0,0.0,0.0,0.0,0.0,0.0,0.0,0.0,0.0,0.0,0.0,0.0,0.0,0.0,0.0,0.0,0.0,0.0,0.0,0.0,0.0,0.0,0.0,0.0,0.0,0.0,0.0,0.0,0.0,0.0,0.0,0.0,0.0,0.0,0.0,0.0,0.0,0.0,0.0,0.0,0.0,0.0,0.0,0.0,0.0,0.0,0.0,0.0,0.0,0.0,0.0,0.0,0.0,0.0,0.0,0.0,0.0,0.0,0.0,0.0,0.0,0.0,0.0,0.0,0.0,0.0,0.0,0.0,0.0,0.0,0.0,0.0,0.0,0.0,0.0,0.0,0.0,0.0,0.0,0.0,0.0,0.0,0.0,0.0,0.0,0.0,0.0,0.0,0.0,0.0,0.0,0.0734,0.0862,0.0932,0.0954,0.0961,0.0963,0.0,0.0,0.0,0.0,0.0,0.0,0.0,0.0,0.0,0.0,0.0,0.0,0.0,0.0,0.0,0.0,0.0,0.0,0.0,0.0,0.0,0.0,0.0,0.0,0.0,0.0,0.0,0.0,0.0,0.0,0.0,0.0,0.0,0.0,0.0,0.0,0.0,0.0,0.0,0.0,0.0,0.0,0.0,0.0,0.0,0.0,0.0,0.0,0.0,0.0,0.0,0.0,0.0,0.0,0.0,0.0,0.0,0.0,0.0,0.0,0.0,0.0,0.0,0.0,0.0,0.0,0.0,0.0,0.0,0.0,0.0,0.0,0.0,0.0,0.0,0.0,0.0,0.0,0.0,0.0,0.0,0.0,0.0,0.0,0.0,0.0,0.0,0.0,0.0,0.0,0.0,0.0,0.0,0.0,0.0,0.0,0.0,0.0,0.0,0.0,0.0,0.0,0.0,0.0,0.0,0.0,0.0,0.0,0.0,0.0764,0.0,0.1063,0.106,0.1063,0.1063,0.0,0.0,0.0,0.0,0.0,0.0,0.0,0.0,0.0,0.0,0.0,0.0,0.0,0.0,0.0,0.0,0.0,0.0,0.0,0.0,0.0,0.0,0.0,0.0,0.0,0.0,0.0,0.0,0.0,0.0,0.0,0.0,0.0,0.0,0.0,0.0,0.0,0.0,0.0,0.0,0.0,0.0,0.0,0.0,0.0,0.0,0.0,0.0,0.0,0.0,0.0,0.0,0.0,0.0,0.0,0.0,0.0,0.0,0.0,0.0,0.0,0.0,0.0,0.0,0.0,0.0,0.0,0.0,0.0,0.0,0.0,0.0,0.0,0.0,0.0,0.0,0.0,0.0,0.0,0.0,0.0,0.0,0.0,0.0,0.0,0.0,0.0,0.0,0.0,0.0,0.0,0.0,0.0,0.0,0.0,0.0,0.0,0.0,0.0,0.0,0.0,0.0,0.0,0.0,0.0,0.0,0.0,0.0,0.0571,0.0893,0.1089,0.1191,0.1196,0.1191,0.1187,0.0,0.0,0.0,0.0,0.0,0.0,0.0,0.0,0.0,0.0,0.0,0.0,0.0,0.0,0.0,0.0,0.0,0.0,0.0,0.0,0.0,0.0,0.0,0.0,0.0,0.0,0.0,0.0,0.0,0.0,0.0,0.0,0.0,0.0,0.0,0.0,0.0,0.0,0.0,0.0,0.0,0.0,0.0,0.0,0.0,0.0,0.0,0.0,0.0,0.0,0.0,0.0,0.0,0.0,0.0,0.0,0.0,0.0,0.0,0.0,0.0,0.0,0.0,0.0,0.0,0.0,0.0,0.0,0.0,0.0,0.0,0.0,0.0,0.0,0.0,0.0,0.0,0.0,0.0,0.0,0.0,0.0,0.0,0.0,0.0,0.0,0.0,0.0,0.0,0.0,0.0,0.0,0.0,0.0,0.0,0.0,0.0,0.0,0.0,0.0,0.0,0.0,0.0,0.0,0.0,0.0,0.0,0.0,0.0,0.0899,0.1059,0.1164,0.1258,0.1219,0.1249,0.0,0.0,0.0,0.0,0.0,0.0,0.0,0.0,0.0,0.0,0.0,0.0,0.0,0.0,0.0,0.0,0.0,0.0,0.0,0.0,0.0,0.0,0.0,0.0,0.0,0.0,0.0,0.0,0.0,0.0,0.0,0.0,0.0,0.0,0.0,0.0,0.0,0.0,0.0,0.0,0.0,0.0,0.0,0.0,0.0,0.0,0.0,0.0,0.0,0.0,0.0,0.0,0.0,0.0,0.0,0.0,0.0,0.0,0.0,0.0,0.0,0.0,0.0,0.0,0.0,0.0,0.0,0.0,0.0,0.0,0.0,0.0,0.0,0.0,0.0,0.0,0.0,0.0,0.0,0.0,0.0,0.0,0.0,0.0,0.0,0.0,0.0,0.0,0.0,0.0,0.0,0.0,0.0,0.0,0.0,0.0,0.0,0.0,0.0,0.0,0.0,0.0,0.0,0.0,0.0,0.0,0.0,0.0,0.0,0.0711,0.1014,0.1209,0.1304,0.129,0.1323,0.1426,0.0,0.0,0.0,0.0,0.0,0.0,0.0,0.0,0.0,0.0,0.0,0.0,0.0,0.0,0.0,0.0,0.0,0.0,0.0,0.0,0.0,0.0,0.0,0.0,0.0,0.0,0.0,0.0,0.0,0.0,0.0,0.0,0.0,0.0,0.0,0.0,0.0,0.0,0.0,0.0,0.0,0.0,0.0,0.0,0.0,0.0,0.0,0.0,0.0,0.0,0.0,0.0,0.0,0.0,0.0,0.0,0.0,0.0,0.0,0.0,0.0,0.0,0.0,0.0,0.0,0.0,0.0,0.0,0.0,0.0,0.0,0.0,0.0,0.0,0.0,0.0,0.0,0.0,0.0,0.0,0.0,0.0,0.0,0.0,0.0,0.0,0.0,0.0,0.0,0.0,0.0,0.0,0.0,0.0,0.0,0.0,0.0,0.0,0.0,0.0,0.0,0.0,0.0,0.0,0.0,0.0,0.0,0.0,0.0372,0.0954,0.128,0.1316,0.1366,0.1438,0.0,0.0,0.0,0.0,0.0,0.0,0.0,0.0,0.0,0.0,0.0,0.0,0.0,0.0,0.0,0.0,0.0,0.0,0.0,0.0,0.0,0.0,0.0,0.0,0.0,0.0,0.0,0.0,0.0,0.0,0.0,0.0,0.0,0.0,0.0,0.0,0.0,0.0,0.0,0.0,0.0,0.0,0.0,0.0,0.0,0.0,0.0,0.0,0.0,0.0,0.0,0.0,0.0,0.0,0.0,0.0,0.0,0.0,0.0,0.0,0.0,0.0,0.0,0.0,0.0,0.0,0.0,0.0,0.0,0.0,0.0,0.0,0.0,0.0,0.0,0.0,0.0,0.0,0.0,0.0,0.0,0.0,0.0,0.0,0.0,0.0,0.0,0.0,0.0,0.0,0.0,0.0,0.0,0.0,0.0,0.0,0.0,0.0,0.0,0.0,0.0,0.0,0.0,0.0,0.0,0.0,0.0,0.0,0.0,-0.004,0.0552,0.1009,0.1364,0.1347,0.1429,0.0,0.0,0.0,0.0,0.0,0.0,0.0,0.0,0.0,0.0,0.0,0.0,0.0,0.0,0.0,0.0,0.0,0.0,0.0,0.0,0.0,0.0,0.0,0.0,0.0,0.0,0.0,0.0,0.0,0.0,0.0,0.0,0.0,0.0,0.0,0.0,0.0,0.0,0.0,0.0,0.0,0.0,0.0,0.0,0.0,0.0,0.0,0.0,0.0,0.0,0.0,0.0,0.0,0.0,0.0,0.0,0.0,0.0,0.0,0.0,0.0,0.0,0.0,0.0,0.0,0.0,0.0,0.0,0.0,0.0,0.0,0.0,0.0,0.0,0.0,0.0,0.0,0.0,0.0,0.0,0.0,0.0,0.0,0.0,0.0,0.0,0.0,0.0,0.0,0.0,0.0,0.0,0.0,0.0,0.0,0.0,0.0,0.0,0.0,0.0,0.0,0.0,0.0,0.0,0.0,0.0,0.0,0.0,-0.0606,-0.0423,0.0124,0.0641,0.111,0.1281,0.1485,0.0,0.0,0.0,0.0,0.0,0.0,0.0,0.0,0.0,0.0,0.0,0.0,0.0,0.0,0.0,0.0,0.0,0.0,0.0,0.0,0.0,0.0,0.0,0.0,0.0,0.0,0.0,0.0,0.0,0.0,0.0,0.0,0.0,0.0,0.0,0.0,0.0,0.0,0.0,0.0,0.0,0.0,0.0,0.0,0.0,0.0,0.0,0.0,0.0,0.0,0.0,0.0,0.0,0.0,0.0,0.0,0.0,0.0,0.0,0.0,0.0,0.0,0.0,0.0,0.0,0.0,0.0,0.0,0.0,0.0,0.0,0.0,0.0,0.0,0.0,0.0,0.0,0.0,0.0,0.0,0.0,0.0,0.0,0.0,0.0,0.0,0.0,0.0,0.0,0.0,0.0,0.0,0.0,0.0,0.0,0.0,0.0,0.0,0.0,0.0,0.0,0.0,0.0,0.0,0.0,0.0,0.0,0.0,-0.0965,-0.0762,-0.0314,0.017,0.0656,0.118,0.1522,0.0,0.0,0.0,0.0,0.0,0.0,0.0,0.0,0.0,0.0,0.0,0.0,0.0,0.0,0.0,0.0,0.0,0.0,0.0,0.0,0.0,0.0,0.0,0.0,0.0,0.0,0.0,0.0,0.0,0.0,0.0,0.0,0.0,0.0,0.0,0.0,0.0,0.0,0.0,0.0,0.0,0.0,0.0,0.0,0.0,0.0,0.0,0.0,0.0,0.0,0.0,0.0,0.0,0.0,0.0,0.0,0.0,0.0,0.0,0.0,0.0,0.0,0.0,0.0,0.0,0.0,0.0,0.0,0.0,0.0,0.0,0.0,0.0,0.0,0.0,0.0,0.0,0.0,0.0,0.0,0.0,0.0,0.0,0.0,0.0,0.0,0.0,0.0,0.0,0.0,0.0,0.0,0.0,0.0,0.0,0.0,0.0,0.0,0.0,0.0,0.0,0.0,0.0,0.0,0.0,0.0,0.0,0.0,-0.1438,-0.1187,-0.0732,-0.016,0.0538,0.0971,0.1322,0.0,0.0,0.0,0.0,0.0,0.0,0.0,0.0,0.0,0.0,0.0,0.0,0.0,0.0,0.0,0.0,0.0,0.0,0.0,0.0,0.0,0.0,0.0,0.0,0.0,0.0,0.0,0.0,0.0,0.0,0.0,0.0,0.0,0.0,0.0,0.0,0.0,0.0,0.0,0.0,0.0,0.0,0.0,0.0,0.0,0.0,0.0,0.0,0.3693,0.0,0.0,0.0,0.0,0.0,0.0,0.0,0.0,0.0,0.0,0.0,0.0,0.0,0.0,0.0,0.0,0.0,0.0,0.0,0.0,0.0,0.0,0.0,0.0,0.0,0.0,0.0,0.0,0.0,0.0,0.0,0.0,0.0,0.0,0.0,0.0,0.0,0.0,0.0,0.0,0.0,0.0,0.0,0.0,0.0,0.0,0.0,0.0,0.0,0.0,0.0,0.0,0.0,0.0,0.0,0.0,0.0,0.0,0.0,-0.1672,-0.1605,-0.1145,-0.0645,-0.0127,0.0454,0.1011,0.0,0.0,0.0,0.0,0.0,0.0,0.0,0.0,0.0,0.0,0.0,0.0,0.0,0.0,0.0,0.0,0.0,0.0,0.0,0.0,0.0,0.0,0.0,0.0,0.0,0.0,0.0,0.0,0.0,0.0,0.0,0.0,0.0,0.0,0.0,0.0,0.0,0.0,0.0,0.0,0.0,0.0,0.0,0.0,0.0,0.0,0.0,0.0,0.0,0.0,0.0,0.0,0.0,0.0,0.0,0.0,0.0,0.0,0.0,0.0,0.0,0.0,0.0,0.0,0.0,0.0,0.0,0.0,0.0,0.0,0.0,0.0,0.0,0.0,0.0,0.0,0.0,0.0,0.0,0.0,0.0,0.0,0.0,0.0,0.0,0.0,0.0,0.0,0.0,0.0,0.0,0.0,0.0,0.0,0.0,0.0,0.0,0.0,0.0,0.0,0.0,0.0,0.0,0.0,0.0,0.0,0.0,-0.1786,-0.1898,-0.2046,-0.1578,-0.1159,-0.0832,-0.0105,0.0621,0.1325,0.0,0.0,0.0,0.0,0.0,0.0,0.0,0.0,0.0,0.0,0.0,0.0,0.0,0.0,0.0,0.0,0.0,0.0,0.0,0.0,0.0,0.0,0.0,0.0,0.0,0.0,0.0,0.0,0.0,0.0,0.0,0.0,0.0,0.0,0.0,0.0,0.0,0.0,0.3135,0.3602,0.0,0.0,0.0,0.0,0.0,0.0,0.0,0.0,0.3906,0.0,0.0,0.0,0.0,0.0,0.0,0.0,0.0,0.0,0.0,0.0,0.0,0.0,0.0,0.0,0.0,0.0,0.0,0.0,0.0,0.0,0.0,0.0,0.0,0.0,0.0,0.0,0.0,0.0,0.0,0.0,0.0,0.0,0.0,0.0,0.0,0.0,0.0,0.0,0.0,0.0,0.0,0.0,0.0,0.0,0.0,0.0,0.0,0.0,0.0,0.0,0.0,0.0,0.0,0.0,0.0,-0.2109,-0.2243,-0.2302,-0.2326,-0.1964,-0.1526,-0.0984,-0.0509,0.0016,0.0648,0.0,0.0,0.0,0.0,0.0,0.0,0.0,0.0,0.0,0.0,0.0,0.0,0.0,0.0,0.0,0.0,0.0,0.0,0.0,0.0,0.0,0.0,0.0,0.0,0.0,0.0,0.0,0.0,0.0,0.0,0.0,0.0,0.0,0.0,0.0,0.0,0.0,0.0,0.0,0.3739,0.3922,0.0,0.0,0.0,0.0,0.0,0.0,0.0,0.0,0.4299,0.0,0.0,0.0,0.0,0.0,0.0,0.0,0.0,0.0,0.0,0.0,0.0,0.0,0.0,0.0,0.0,0.0,0.0,0.0,0.0,0.0,0.0,0.0,0.0,0.0,0.0,0.0,0.0,0.0,0.0,0.0,0.0,0.0,0.0,0.0,0.0,0.0,0.0,0.0,0.0,0.0,0.0,0.0,0.0,0.0,0.0,0.0,0.0,0.0,0.0,0.0,0.0,0.0,0.0,0.0,-0.2184,-0.2426,-0.257,-0.2611,-0.2357,-0.1931,-0.1388,-0.0902,-0.0351,0.0,0.0,0.0,0.0,0.0,0.0,0.0,0.0,0.0,0.0,0.0,0.0,0.0,0.0,0.0,0.0,0.0,0.0,0.0,0.0,0.0,0.0,0.0,0.0,0.0,0.0,0.0,0.0,0.0,0.0,0.0,0.0,0.0,0.0,0.0,0.0,0.0,0.0,0.0,0.0,0.3929,0.4224,0.4255,0.0,0.0,0.0,0.0,0.0,0.0,0.4597,0.4568,0.0,0.0,0.0,0.0,0.0,0.0,0.0,0.0,0.0,0.0,0.0,0.0,0.0,0.0,0.0,0.0,0.0,0.0,0.0,0.0,0.0,0.0,0.0,0.0,0.0,0.0,0.0,0.0,0.0,0.0,0.0,0.0,0.0,0.0,0.0,0.0,0.0,0.0,0.0,0.0,0.0,0.0,0.0,0.0,0.0,0.0,0.0,0.0,0.0,0.0,0.0,0.0,0.0,0.0,0.0,-0.2433,-0.2684,-0.2857,-0.2908,-0.2699,-0.2348,-0.1869,-0.1295,-0.0717,0.0,0.0,0.0,0.0,0.0,0.0,0.0,0.0,0.0,0.0,0.0,0.0,0.0,0.0,0.0,0.0,0.0,0.0,0.0,0.0,0.0,0.0,0.0,0.0,0.0,0.0,0.0,0.0,0.0,0.0,0.0,0.0,0.0,0.0,0.0,0.0,0.0,0.0,0.0,0.0,0.0,0.4462,0.4559,0.489,0.0,0.0,0.0,0.0,0.5028,0.4965,0.0,0.0,0.0,0.0,0.0,0.0,0.0,0.0,0.0,0.0,0.0,0.0,0.0,0.0,0.0,0.0,0.0,0.0,0.0,0.0,0.0,0.0,0.0,0.0,0.0,0.0,0.0,0.0,0.0,0.0,0.0,0.0,0.0,0.0,0.0,0.0,0.0,0.0,0.0,0.0,0.0,0.0,0.0,0.0,0.0,0.0,0.0,0.0,0.0,0.0,0.0,0.0,0.0,0.0,0.0,0.0,-0.3159,-0.3214,-0.3299,-0.3385,-0.3008,-0.264,-0.2412,-0.1774,-0.1147,0.0,0.0,0.0,0.0,0.0,0.0,0.0,0.0,0.0,0.0,0.0,0.0,0.0,0.0,0.0,0.0,0.0,0.0,0.0,0.0,0.0,0.0,0.0,0.0,0.0,0.0,0.0,0.0,0.0,0.0,0.0,0.0,0.0,0.0,0.0,0.0,0.0,0.0,0.0,0.0,0.0,0.4308,0.4786,0.4908,0.5022,0.0,0.0,0.543,0.5421,0.5375,0.0,0.0,0.0,0.0,0.0,0.0,0.0,0.0,0.0,0.0,0.0,0.0,0.0,0.0,0.0,0.0,0.0,0.0,0.0,0.0,0.0,0.0,0.0,0.0,0.0,0.0,0.0,0.0,0.0,0.0,0.0,0.0,0.0,0.0,0.0,0.0,0.0,0.0,0.0,0.0,0.0,0.0,0.0,0.0,0.0,0.0,0.0,0.0,0.0,0.0,0.0,0.0,0.0,0.0,0.0,-0.3297,-0.3525,-0.3704,-0.3745,-0.3619,-0.3453,-0.3102,-0.2498,-0.2035,-0.1481,0.0,0.0,0.0,0.0,0.0,0.0,0.0,0.0,0.0,0.0,0.0,0.0,0.0,0.0,0.0,0.0,0.0,0.0,0.0,0.0,0.0,0.0,0.0,0.0,0.0,0.0,0.0,0.0,0.0,0.0,0.0,0.0,0.0,0.0,0.0,0.0,0.0,0.0,0.0,0.0,0.0,0.0,0.4808,0.5098,0.0,0.0,0.0,0.568,0.5665,0.0,0.0,0.0,0.0,0.0,0.0,0.0,0.0,0.0,0.0,0.0,0.0,0.0,0.0,0.0,0.0,0.0,0.0,0.0,0.0,0.0,0.0,0.0,0.0,0.0,0.0,0.0,0.0,0.0,0.0,0.0,0.0,0.0,0.0,0.0,0.0,0.0,0.0,0.0,0.0,0.0,0.0,0.0,0.0,0.0,0.0,0.0,0.0,0.0,0.0,0.0,0.0,0.0,0.0,0.0,0.0,0.0,-0.4005,-0.4237,-0.4235,-0.399,-0.3943,-0.3573,-0.2772,-0.2359,0.0,0.0,0.0,0.0,0.0,0.0,0.0,0.0,0.0,0.0,0.0,0.0,0.0,0.0,0.0,0.0,0.0,0.0,0.0,0.0,0.0,0.0,0.0,0.0,0.0,0.0,0.0,0.1804,0.0,0.0,0.0,0.0,0.0,0.0,0.0,0.0,0.0,0.0,0.0,0.0,0.0,0.0,0.4585,0.4815,0.525,0.5576,0.0,0.0,0.589,0.5869,0.6038,0.6054,0.0,0.0,0.0,0.0,0.0,0.0,0.0,0.0,0.0,0.0,0.0,0.0,0.0,0.0,0.0,0.0,0.0,0.0,0.0,0.0,0.0,0.0,0.0,0.0,0.0,0.0,0.0,0.0,0.0,0.0,0.0,0.0,0.0,0.0,0.0,0.0,0.0,0.0,0.0,0.0,0.0,0.0,0.0,0.0,0.0,0.0,0.0,0.0,0.0,0.0,0.0,0.0,0.0,0.0,-0.4355,-0.4788,-0.4861,-0.4823,-0.4712,-0.4491,-0.408,-0.3449,-0.2851,-0.2213,0.0,0.0,0.0,0.0,0.0,0.0,0.0,0.0,0.0,0.0,0.0,0.0,0.0,0.0,0.0,0.0,0.0,0.0,0.0,0.0,0.0,0.0,0.0,0.0,0.0,0.0,0.0,0.0,0.0,0.0,0.0,0.0,0.0,0.0,0.0,0.0,0.0,0.0,0.0,0.0,0.0,0.4411,0.4909,0.5235,0.5474,0.0,0.5972,0.6148,0.5994,0.6211,0.6309,0.6088,0.0,0.0,0.0,0.0,0.0,0.0,0.0,0.0,0.0,0.0,0.0,0.0,0.0,0.0,0.0,0.0,0.0,0.0,0.0,0.0,0.0,0.0,0.0,0.0,0.0,0.0,0.0,0.0,0.0,0.0,0.0,0.0,0.0,0.0,0.0,0.0,0.0,0.0,0.0,0.0,0.0,0.0,0.0,0.0,0.0,0.0,0.0,0.0,0.0,0.0,0.0,0.0,0.0,-0.5036,-0.5433,-0.5652,-0.5682,-0.5489,-0.5252,-0.4763,-0.4003,-0.3331,-0.2634,0.0,0.0,0.0,0.0,0.0,0.0,0.0,0.0,0.0,0.0,0.0,0.0,0.0,0.0,0.0,0.0,0.0,0.0,0.0,0.0,0.0,0.0,0.0,0.0,0.0,0.0,0.0,0.0,0.1335,0.13,0.126,0.0,0.0,0.0,0.0,0.0,0.0,0.0,0.0,0.0,0.0,0.4202,0.459,0.4897,0.0,0.0,0.5718,0.5906,0.5928,0.6121,0.6208,0.5963,0.5909,0.0,0.0,0.0,0.0,0.0,0.0,0.0,0.0,0.0,0.0,0.0,0.0,0.0,0.0,0.0,0.0,0.0,0.0,0.0,0.0,0.0,0.0,0.0,0.0,0.0,0.0,0.0,0.0,0.0,0.0,0.0,0.0,0.0,0.0,0.0,0.0,0.0,0.0,0.0,0.0,0.0,0.0,0.0,0.0,0.0,0.0,0.0,0.0,0.0,0.0,0.0,0.0,-0.5539,-0.5989,-0.6317,-0.6386,-0.6191,-0.599,-0.5517,-0.4768,-0.3952,-0.3201,0.0,0.0,0.0,0.0,0.0,0.0,0.0,0.0,0.0,0.0,0.0,0.0,0.0,0.0,0.0,0.0,0.0,0.0,0.0,0.0,0.0,0.0,0.0,0.0,0.0,0.0,0.0,0.0,0.1004,0.0993,0.1027,0.0,0.0,0.0,0.0,0.0,0.0,0.0,0.0,0.0,0.0,0.4078,0.4331,0.4658,0.495,0.5154,0.5391,0.5577,0.5715,0.5931,0.6021,0.5856,0.0,0.0,0.0,0.0,0.0,0.0,0.0,0.0,0.0,0.0,0.0,0.0,0.0,0.0,0.0,0.0,0.0,0.0,0.0,0.0,0.0,0.0,0.0,0.0,0.0,0.0,0.0,-0.298,0.0,0.0,-0.3295,0.0,0.0,0.0,0.0,0.0,0.0,0.0,0.0,0.0,0.0,0.0,0.0,0.0,0.0,0.0,0.0,0.0,0.0,0.0,0.0,0.0,0.0,-0.5864,-0.6375,-0.673,-0.6869,-0.6785,-0.6598,-0.6245,-0.5757,-0.478,-0.3933,-0.3186,0.0,0.0,0.0,0.0,0.0,0.0,0.0,0.0,0.0,0.0,0.0,0.0,0.0,0.0,0.0,0.0,0.0,0.0,0.0,0.0,0.0,0.0,0.0,0.0,0.0,0.0,0.0603,0.0673,0.0739,0.0,0.0,0.0,0.0,0.0,0.0,0.0,0.0,0.0,0.3139,0.3616,0.4015,0.4254,0.4584,0.4765,0.4718,0.4954,0.5155,0.5293,0.5604,0.5834,0.0,0.0,0.0,0.0,0.0,0.0,0.0,0.0,0.0,0.0,0.0,0.0,0.0,0.0,0.0,0.0,0.0,0.0,0.0,0.0,0.0,0.0,0.0,0.0,0.0,0.0,0.0,-0.3972,-0.3998,0.0,0.0,0.0,0.0,0.0,0.0,0.0,0.0,0.0,0.0,0.0,-0.7264,-0.7309,0.0,0.0,0.0,0.0,0.0,0.0,0.0,0.0,0.0,0.0,0.0,0.0,-0.6461,-0.7103,-0.7377,-0.7512,-0.7514,-0.7252,-0.6849,-0.6337,-0.5445,-0.445,-0.3361,0.0,0.0,0.0,0.0,0.0,0.0,0.0,0.0,0.0,0.0,0.0,0.0,0.0,0.0,0.0,0.0,0.0,0.0,0.0,0.0,0.0,0.0,0.0,0.0,0.0,0.0144,0.0,0.0,0.0,0.0,0.0,0.0,0.0,0.0,0.0,0.0,0.225,0.2579,0.3009,0.3249,0.3458,0.3731,0.398,0.4199,0.0,0.0,0.0,0.0,0.0,0.0,0.0,0.0,0.0,0.0,0.0,0.0,0.0,0.0,0.6595,0.618,0.6205,0.6382,0.6637,0.0,0.0,0.0,0.0,0.0,0.0,0.0,0.0,0.0,0.0,0.0,0.0,0.0,0.0,-0.5326,-0.5276,-0.5303,0.0,0.0,0.0,0.0,0.0,0.0,0.0,0.0,-0.7652,-0.7947,-0.8082,-0.8082,-0.8061,-0.8082,-0.8061,-0.7727,0.0,0.0,0.0,0.0,0.0,0.0,0.0,0.0,-0.6942,-0.7491,-0.7829,-0.7995,-0.8042,-0.775,-0.7405,-0.697,-0.5905,-0.4897,-0.3988,-0.3178,-0.268,0.0,0.0,0.0,0.0,0.0,0.0,0.0,0.0,0.0,0.0,0.0,0.0,0.0,0.0,0.0,0.0,0.0,0.0,0.0,0.0,0.0,0.0,0.0,-0.0227,0.0,0.0,0.0,0.0,0.0,0.0,0.0,0.0,0.0,0.1622,0.204,0.2425,0.2775,0.2998,0.3227,0.3563,0.0,0.0,0.0,0.0,0.0,0.0,0.0,0.4939,0.5109,0.5204,0.5368,0.5679,0.6025,0.6236,0.6145,0.0,0.0,0.6393,0.6493,0.6707,0.6918,0.7189,0.7484,0.779,0.797,0.8227,0.0,0.0,0.0,0.0,-0.656,0.0,0.0,0.0,-0.7027,-0.69,0.0,-0.6611,0.0,0.0,0.0,0.0,-0.7079,-0.7729,0.0,0.0,-0.8444,-0.8645,-0.8653,-0.8661,-0.8653,-0.8623,-0.8623,-0.8517,-0.8297,-0.759,0.0,0.0,0.0,0.0,0.0,0.0,-0.7315,-0.7548,-0.8045,-0.8313,-0.83,-0.8108,-0.7908,-0.7655,-0.6216,-0.5306,-0.502,-0.4004,-0.342,-0.3333,-0.2712,0.0,0.0,0.0,0.0,0.0,0.0,0.0,0.0,0.0,0.0,0.0,0.0,0.0,0.0,0.0,0.0,0.0,0.0,0.0,0.0,-0.0526,0.0,0.0,0.0,0.0,0.0,0.0,0.0,0.0,0.0,0.0696,0.1224,0.1756,0.2201,0.2454,0.0,0.0,0.0,0.0,0.3991,0.4255,0.43,0.4389,0.4634,0.4581,0.4567,0.4766,0.0,0.0,0.5524,0.5838,0.6005,0.602,0.6415,0.6743,0.6795,0.696,0.7099,0.7107,0.749,0.7848,0.8065,0.8233,0.8472,-0.9574,0.0,0.0,0.0,0.0,-0.7923,-0.7975,-0.8087,-0.8065,-0.8057,-0.7983,-0.7789,0.0,0.0,0.0,0.0,0.0,0.0,-0.8643,-0.8796,-0.9046,-0.9314,-0.9502,-0.9535,-0.947,-0.9324,-0.9324,-0.9161,-0.8861,-0.8506,-0.8081,-0.7575,0.0,0.0,0.0,0.0,-0.7776,-0.8069,-0.8211,-0.8378,-0.8509,-0.8314,-0.7936,-0.7356,-0.654,-0.5994,-0.5709,-0.4963,-0.4478,-0.4369,-0.3595,0.0,0.0,0.0,0.0,0.0,0.0,0.0,0.0,0.0,0.0,0.0,0.0,0.0,0.0,0.0,0.0,0.0,0.0,0.0,-0.1079,-0.1086,-0.1007,0.0,0.0,0.0,0.0,0.0,0.0,0.0,0.0,0.0,0.0811,0.138,0.1907,0.0,0.0,0.2992,0.3323,0.3552,0.3767,0.3991,0.4166,0.0,0.4389,0.4422,0.4515,0.4768,0.5027,0.526,0.538,0.5722,0.6014,0.6014,0.6583,0.7057,0.7099,0.7239,0.7388,0.743,0.7831,0.8227,0.8331,0.8599,0.8931,-1.1393,-1.0249,-0.963,-0.9341,-0.9253,-0.9253,-0.9292,-0.938,-0.938,-0.9316,-0.9245,-0.9066,-0.8942,-0.8862,-0.8696,0.0,0.0,0.0,-0.9307,-0.9421,-0.9616,-0.9837,-1.0007,-1.0023,-1.0017,-0.9987,-0.9987,-0.9879,-0.9665,-0.9547,-0.9125,-0.8483,0.0,-0.7841,-0.7882,-0.7975,-0.8134,-0.8411,-0.8419,-0.8509,-0.8658,-0.8422,-0.8056,-0.7537,-0.6996,-0.6615,-0.6389,-0.5807,-0.541,-0.5275,-0.4559,-0.4125,0.0,0.0,0.0,0.0,0.0,0.0,0.0,0.0,0.0,0.0,0.0,-0.1465,-0.1413,0.0,0.0,0.0,-0.1589,-0.1531,-0.1349,-0.1365,0.0,0.0,0.0,0.0,0.0,0.0,0.0,-0.0312,-0.0019,0.0304,0.0675,0.13,0.1848,0.2231,0.2713,0.3135,0.3351,0.0,0.3929,0.4135,0.4318,0.4406,0.4429,0.4455,0.4557,0.4841,0.5096,0.5351,0.5445,0.58,0.6013,0.6107,0.6579,0.705,0.705,0.7361,0.7625,0.7664,0.8027,0.8345,0.8352,0.8598,0.8855,-1.2564,-1.2304,-1.1305,-1.0753,-1.0515,-1.0515,-1.0604,-1.0777,-1.0805,-1.068,-1.0482,-1.0322,-1.0162,-0.9966,-0.9753,0.0,-0.9697,-0.9876,-0.9983,-0.9981,-1.017,-1.0259,-1.0276,-1.0286,-1.04,-1.0645,-1.0637,-1.0595,-1.0524,-1.054,-1.0191,-0.955,-0.8819,-0.8335,-0.8101,-0.8268,-0.8438,-0.8631,-0.8631,-0.8704,-0.8789,-0.8487,-0.8227,-0.802,-0.7521,-0.7183,-0.7063,-0.6554,-0.6211,-0.6065,-0.5575,-0.5146,-0.4919,0.0,0.0,0.0,0.0,0.0,0.0,0.0,0.0,0.0,0.0,0.0,0.0,0.0,0.0,0.0,-0.1733,0.0,-0.1441,-0.1456,0.0,0.0,0.0,-0.11,-0.0917,-0.0709,-0.0494,-0.0296,0.0,0.0,0.0716,0.1463,0.1986,0.2145,0.2871,0.3476,0.3665,0.3977,0.4308,0.4537,0.4616,0.464,0.4624,0.4688,0.4799,0.5046,0.5208,0.5408,0.5646,0.5884,0.6069,0.6079,0.6472,0.6833,0.6827,0.7367,0.7818,0.7902,0.815,0.8307,0.8322,0.8376,0.8476,-1.3401,-1.3117,-1.2686,-1.2109,-1.1468,-1.1459,-1.1513,-1.1546,-1.1546,-1.1419,-1.1232,-1.1017,-1.0794,-1.0493,-1.0461,-1.0436,-1.0444,-1.0512,-1.0601,-1.074,-1.078,-1.0878,-1.0964,-1.0862,-1.0869,-1.0964,-1.0891,-1.0862,-1.0887,-1.0878,-1.0558,-0.9973,-0.9757,-0.9388,-0.8852,-0.8885,-0.8926,-0.8997,-0.8974,-0.8917,-0.8797,-0.8609,-0.8435,-0.8227,-0.7858,-0.7655,-0.7607,-0.7081,-0.679,-0.6762,-0.6251,-0.5937,-0.5884,-0.5633,0.0,0.0,0.0,0.0,0.0,0.0,0.0,0.0,0.0,-0.2557,-0.2368,0.0,-0.2308,0.0,-0.2017,-0.1842,-0.1643,-0.1508,0.0,0.0,-0.1076,-0.0946,-0.0907,-0.0584,-0.029,-0.0104,0.0382,0.0842,0.1173,0.1929,0.252,0.2759,0.3167,0.355,0.3766,0.4033,0.4284,0.4573,0.4791,0.4901,0.4933,0.5111,0.5304,0.5427,0.5511,0.556,0.561,0.5837,0.601,0.6064,0.6459,0.6829,0.707,0.7421,0.7776,0.8104,0.8283,0.8371,0.8371,0.8535,0.8696,-1.3928,-1.363,-1.3498,-1.3076,-1.2499,-1.2262,-1.2157,-1.2157,-1.2075,-1.1955,-1.1849,-1.1663,-1.1357,-1.1062,-1.1053,-1.1005,-1.0932,-1.0923,-1.1065,-1.1305,-1.1313,-1.142,-1.1647,-1.1554,-1.1623,-1.1763,-1.1607,-1.1576,-1.1619,-1.1538,-1.1199,-1.0702,-1.0668,-1.0319,-0.9639,-0.9265,-0.9137,-0.9233,-0.9233,-0.9144,-0.895,-0.8771,-0.8615,-0.8435,-0.8167,-0.798,-0.7878,-0.7604,-0.7433,-0.7433,-0.7076,-0.6821,-0.6791,-0.6576,-0.6296,0.0,0.0,0.0,0.0,0.0,0.0,0.0,0.0,0.0,0.0,0.0,-0.2592,-0.2278,-0.2146,-0.1983,-0.1731,-0.1499,-0.1285,-0.113,-0.0818,-0.0588,-0.0527,-0.0084,0.0256,0.047,0.0935,0.1393,0.1763,0.2412,0.2938,0.3225,0.3623,0.3922,0.404,0.4372,0.4712,0.4838,0.5101,0.5271,0.5266,0.5439,0.5595,0.5722,0.5762,0.5826,0.6002,0.6164,0.6281,0.6359,0.6702,0.7009,0.7188,0.7418,0.7686,0.7891,0.8013,0.8139,0.8387,0.8566,0.8667,-1.4432,-1.4145,-1.4096,-1.3934,-1.3605,-1.3087,-1.2808,-1.2653,-1.245,-1.2361,-1.2328,-1.2119,-1.1859,-1.1606,-1.1633,-1.1543,-1.1388,-1.1363,-1.1549,-1.181,-1.1839,-1.2021,-1.233,-1.2303,-1.2438,-1.2754,-1.256,-1.2525,-1.2556,-1.2385,-1.2043,-1.1557,-1.1522,-1.1129,-1.0467,-0.9688,-0.9354,-0.9413,-0.9437,-0.9355,-0.9129,-0.8974,-0.8796,-0.8631,-0.8444,-0.8235,-0.8057,-0.8024,-0.7987,-0.7987,-0.7831,-0.7686,-0.7569,-0.7388,-0.7168,0.0,-0.6709,0.0,0.0,0.0,0.0,0.0,0.0,0.0,0.0,-0.289,-0.2636,-0.2241,-0.2122,-0.1975,-0.1678,-0.1388,-0.1135,-0.0905,-0.0528,-0.0169,0.0085,0.0561,0.0964,0.1183,0.1652,0.2072,0.2382,0.288,0.337,0.3665,0.415,0.4474,0.4474,0.4856,0.5172,0.524,0.5461,0.5663,0.5692,0.5741,0.5831,0.6037,0.6118,0.622,0.6524,0.6618,0.665,0.6768,0.6943,0.7153,0.7191,0.7402,0.7566,0.7643,0.7689,0.7835,0.8203,0.8328,0.8374,-1.5584,-1.5489,-1.5222,-1.5093,-1.4988,-1.4579,-1.3874,-1.2978,-1.2775,-1.2621,-1.2539,-1.2337,-1.2215,-1.2142,-1.2272,-1.2311,-1.2261,-1.2389,-1.2461,-1.249,-1.252,-1.2669,-1.2987,-1.2854,-1.3073,-1.3616,-1.3451,-1.3378,-1.344,-1.3427,-1.3044,-1.2368,-1.2147,-1.178,-1.1267,0.0,0.0,0.0,-0.9551,-0.9486,-0.9339,-0.9322,-0.9119,-0.8787,-0.8631,0.0,-0.8243,-0.8076,-0.7987,-0.7987,-0.7975,0.0,0.0,0.0,0.0,0.0,0.0,0.0,0.0,0.0,0.0,0.0,-0.4783,-0.4201,-0.3371,-0.276,-0.2371,-0.2277,-0.1795,-0.1443,-0.1386,-0.0988,-0.0631,-0.0442,-0.0193,0.0108,0.0583,0.1073,0.1463,0.1716,0.2395,0.2875,0.2985,0.3614,0.4075,0.417,0.4686,0.5031,0.5039,0.5152,0.5265,0.5486,0.5771,0.6017,0.6212,0.6321,0.6379,0.6492,0.6572,0.6678,0.6737,0.6768,0.6768,0.6812,0.6827,0.6965,0.7144,0.7249,0.7396,0.7672,0.775,0.7773,0.7775,0.7756,0.7776,-1.6587,-1.6478,-1.6214,-1.6031,0.0,-1.551,-1.4862,-1.4026,-1.3645,-1.3392,-1.3239,-1.3145,-1.3029,-1.2936,-1.2898,-1.2854,-1.2737,-1.2872,-1.3024,-1.3204,-1.3354,-1.3594,-1.3893,-1.3956,-1.4173,-1.4487,-1.4448,-1.4456,-1.4473,-1.4085,-1.372,-1.3359,-1.2817,-1.2314,-1.1842,-1.1172,-1.05,-0.9805,-0.9797,-0.9698,-0.951,-0.9421,-0.9314,-0.9103,-0.8851,0.0,0.0,0.0,0.0,0.0,0.0,0.0,0.0,-0.8305,0.0,-0.8143,-0.7845,-0.7496,-0.7111,-0.6489,-0.5834,-0.5151,-0.4312,-0.36,-0.3129,-0.2516,-0.2049,-0.1814,-0.141,-0.1073,-0.0867,-0.0521,-0.0218,0.0044,0.0468,0.0878,0.1206,0.1738,0.2206,0.249,0.2959,0.3394,0.3668,0.4016,0.443,0.4687,0.4985,0.529,0.5541,0.5591,0.5706,0.6032,0.6194,0.6373,0.6559,0.6634,0.6683,0.6693,0.6763,0.6823,0.6883,0.6893,0.691,0.6986,0.7002,0.7056,0.7164,0.7218,0.7262,0.7428,0.75,0.7489,0.7446,0.763,0.7792,-1.7758,-1.7545,-1.7369,-1.7156,-1.6933,-1.6484,-1.5914,-1.523,-1.4495,0.0,0.0,-1.3973,-1.3894,-1.3766,-1.3658,-1.3501,-1.3344,-1.3532,-1.3721,-1.3953,-1.4291,-1.459,-1.4888,-1.5145,-1.5294,-1.5343,-1.5445,-1.5511,-1.5427,-1.4791,-1.4416,-1.4276,-1.3576,-1.2893,-1.2267,-1.1623,-1.0947,-1.0287,-1.0161,-0.9978,-0.9698,-0.9575,-0.9461,-0.9404,-0.9087,-0.8878,-0.8846,-0.8761,-0.868,-0.868,-0.868,-0.8702,-0.8688,-0.8702,-0.8688,-0.8658,-0.8235,-0.7849,-0.7574,-0.6681,-0.5762,-0.4863,-0.3585,-0.2835,-0.2757,-0.2235,-0.1713,-0.1236,-0.0972,-0.0667,-0.0317,0.0023,0.0319,0.0603,0.121,0.1639,0.1854,0.2391,0.2874,0.3185,0.3487,0.3826,0.4226,0.4364,0.458,0.5068,0.5236,0.5475,0.5967,0.6108,0.6184,0.6487,0.655,0.6661,0.6768,0.6823,0.6834,0.6834,0.6855,0.6904,0.6986,0.704,0.7078,0.7149,0.7154,0.7088,0.7093,0.7027,0.7043,0.7043,0.7049,0.7049,0.7076,0.7376,0.7648,-1.9652,-1.9392,-1.9223,-1.899,-1.8684,-1.818,-1.7372,-1.6273,-1.4675,-1.3934,-1.394,-1.4211,-1.4292,-1.4321,-1.4666,-1.4711,-1.4572,-1.4993,-1.5093,-1.4907,-1.5245,-1.5561,-1.5876,-1.5935,-1.6094,-1.6301,-1.6315,-1.6231,-1.6068,-1.596,-1.5682,-1.5188,-1.4641,-1.376,-1.2624,-1.2433,-1.1999,-1.1214,-1.0797,-1.0388,-0.9953,-0.992,-0.973,-0.9412,-0.9355,-0.9233,-0.9064,-0.9031,-0.9046,-0.9046,-0.9023,-0.9046,-0.9023,-0.9038,-0.9023,-0.9,-0.8529,-0.8134,-0.7848,-0.6917,-0.5673,-0.4129,-0.3148,-0.263,-0.2527,-0.1952,-0.1362,-0.0824,-0.0399,-0.0024,0.0284,0.0732,0.111,0.14,0.171,0.2165,0.2769,0.3026,0.3296,0.3735,0.4062,0.425,0.4382,0.4585,0.4814,0.516,0.5391,0.5766,0.6276,0.6518,0.6523,0.6601,0.6709,0.6774,0.6828,0.6899,0.6948,0.6986,0.7062,0.7084,0.7111,0.7089,0.71,0.7177,0.696,0.6793,0.6765,0.6576,0.652,0.6492,0.6492,0.6464,0.6492,0.6576,0.6664,-2.0823,-2.0678,-2.0311,-2.001,-1.967,-1.8842,-1.8207,-1.7625,-1.6361,-1.5485,-1.5052,-1.5225,-1.5388,-1.5531,-1.5645,-1.5738,-1.5825,-1.6124,-1.6193,-1.6114,-1.6414,-1.6674,-1.6861,-1.6997,-1.7144,-1.7261,-1.7437,-1.7477,-1.7385,-1.7107,-1.6732,-1.6257,-1.5333,-1.4335,-1.3464,-1.3261,-1.2823,-1.208,-1.1423,-1.079,-1.0196,-1.0162,-0.9954,-0.951,-0.9461,-0.9339,-0.9266,-0.9145,-0.9096,-0.9096,-0.9096,-0.9096,-0.9096,-0.9096,-0.9018,-0.8878,-0.8504,-0.8059,-0.7567,-0.6078,-0.4608,-0.326,-0.2284,-0.164,-0.1315,-0.1025,-0.0715,-0.0334,0.0262,0.0763,0.1049,0.1406,0.1796,0.2202,0.2494,0.2845,0.3289,0.3537,0.3785,0.4111,0.4314,0.4437,0.4612,0.4734,0.491,0.519,0.5541,0.5987,0.6354,0.6578,0.6747,0.6806,0.6866,0.6926,0.698,0.7062,0.71,0.7106,0.7011,0.6932,0.691,0.6826,0.6715,0.6715,0.6576,0.6492,0.6464,0.6386,0.6302,0.6274,0.6274,0.6274,0.6274,0.6186,0.613,-2.2095,-2.2001,-2.1505,-2.1057,-2.061,-1.9749,-1.9267,-1.8982,-1.834,-1.7577,-1.6805,-1.6482,-1.6461,-1.671,-1.6722,-1.6838,-1.7046,-1.7318,-1.7388,-1.7369,-1.766,-1.7853,-1.7909,-1.8121,-1.821,-1.8227,-1.8425,-1.8517,-1.8449,-1.8022,-1.7543,-1.7016,-1.5939,-1.5044,-1.4416,-1.4191,-1.3719,-1.2956,-1.2327,-1.1515,-1.0595,-1.0518,-1.0247,-0.9788,-0.9608,-0.9509,-0.9429,-0.9291,-0.9218,-0.9218,-0.9218,-0.9194,-0.9218,-0.9218,-0.91,-0.8831,-0.8516,-0.7875,-0.6828,-0.5106,-0.3617,-0.2533,-0.1469,-0.0617,-0.0123,0.017,0.0314,0.0435,0.0991,0.1499,0.1839,0.2105,0.2454,0.2907,0.3235,0.3496,0.3817,0.4056,0.4307,0.4587,0.4612,0.4663,0.4834,0.4834,0.491,0.519,0.5635,0.5997,0.6158,0.6453,0.6674,0.6796,0.6888,0.6914,0.7005,0.6982,0.696,0.6993,0.6798,0.6631,0.6576,0.6442,0.633,0.633,0.6246,0.6186,0.6186,0.6107,0.6051,0.6023,0.6023,0.6079,0.6023,0.588,0.5824,-2.387,-2.3644,-2.3229,-2.2643,-2.1821,-2.1489,-2.0898,-2.0177,-2.0047,-1.9726,-1.9031,-1.7921,-1.7411,-1.7497,-1.8086,-1.8236,-1.812,-1.8712,-1.8834,-1.8661,-1.8972,-1.9143,-1.9092,-1.9153,-1.9178,-1.9127,-1.8971,-1.8915,-1.8873,-1.8517,-1.7902,-1.715,-1.6694,-1.6114,-1.5384,-1.526,-1.482,-1.3975,-1.3871,-1.3028,-1.1399,-1.1131,-1.077,-1.0239,-1.0037,-0.9821,-0.96,-0.9559,-0.9551,-0.9559,-0.9543,-0.9551,-0.9543,-0.9551,-0.9428,-0.9125,-0.8657,-0.7644,-0.5877,-0.4435,-0.3179,-0.2133,-0.0827,0.0126,0.0704,0.1582,0.1932,0.1655,0.1755,0.2152,0.2636,0.2932,0.3179,0.3482,0.3789,0.4124,0.4529,0.4709,0.4935,0.5436,0.5165,0.514,0.5064,0.4935,0.4914,0.5132,0.5519,0.5859,0.6006,0.6151,0.6258,0.6383,0.6561,0.6616,0.6497,0.6386,0.6469,0.6442,0.6386,0.633,0.6302,0.6274,0.6274,0.6079,0.6019,0.588,0.5796,0.5684,0.5521,0.5605,0.5577,0.5521,0.5493,0.5493,0.5577,-2.4214,-2.41,-2.3629,-2.301,-2.2348,-2.2082,-2.1672,-2.1171,-2.1009,-2.0722,-2.0294,-1.9585,-1.9088,-1.8752,-1.9072,-1.9235,-1.9327,-1.9612,-1.9682,-1.9658,-1.9786,-1.9819,-1.9815,-1.9833,-1.9833,-1.9833,-1.9715,-1.9662,-1.958,-1.9183,-1.8663,-1.815,-1.7558,-1.6952,-1.644,-1.6101,-1.5569,-1.488,-1.4711,-1.41,-1.3035,-1.2171,-1.1425,-1.0758,-1.0357,-1.0129,-0.9996,-0.9731,-0.9599,-0.9599,-0.9599,-0.9599,-0.9599,-0.9599,-0.9402,-0.8956,-0.7857,-0.6612,-0.5211,-0.3726,-0.2368,-0.1134,0.005,0.0984,0.1691,0.2423,0.2826,0.2823,0.2899,0.305,0.3251,0.3506,0.3783,0.4059,0.4311,0.4638,0.496,0.5039,0.5135,0.5315,0.511,0.4989,0.4935,0.486,0.4884,0.5082,0.5368,0.5604,0.5799,0.598,0.6073,0.6019,0.6102,0.6214,0.6246,0.6274,0.6274,0.6274,0.613,0.6019,0.5991,0.5856,0.5772,0.5772,0.5689,0.5601,0.5577,0.5521,0.5409,0.5409,0.5409,0.5409,0.5409,0.5409,0.5465,-2.4688,-2.4546,-2.398,-2.3465,-2.3037,-2.274,-2.2457,-2.2207,-2.1923,-2.1639,-2.1301,-2.1095,-2.0701,-2.0189,-1.9972,-1.9998,-2.0234,-2.0329,-2.0403,-2.044,-2.0458,-2.0433,-2.045,-2.0468,-2.0437,-2.0437,-2.0357,-2.0277,-2.0167,-1.9787,-1.9361,-1.8969,-1.8371,-1.7869,-1.7436,-1.7024,-1.6535,-1.5926,-1.5676,-1.5216,-1.4412,-1.341,-1.2385,-1.1421,-1.0956,-1.0671,-1.0493,-1.0096,-0.9846,-0.9797,-0.9722,-0.9648,-0.9607,-0.9599,-0.9303,-0.8552,-0.716,-0.5812,-0.4759,-0.3196,-0.1762,-0.0504,0.0656,0.162,0.2361,0.2974,0.3414,0.3585,0.3735,0.3757,0.3833,0.4009,0.421,0.4487,0.4729,0.4972,0.5208,0.5277,0.5303,0.5345,0.5133,0.4806,0.4683,0.4639,0.4662,0.4764,0.496,0.5185,0.5426,0.5618,0.5721,0.5699,0.5712,0.5796,0.5996,0.5996,0.6051,0.6023,0.5824,0.5712,0.5684,0.5521,0.5409,0.5577,0.5437,0.5409,0.5465,0.5437,0.5409,0.5409,0.5382,0.5382,0.5409,0.5409,0.5409,-2.5733,-2.5361,-2.4765,-2.4352,-2.4083,-2.379,-2.351,-2.3121,-2.2911,-2.2604,-2.2291,-2.2251,-2.1991,-2.1426,-2.0804,-2.0583,-2.0615,-2.0856,-2.1001,-2.0992,-2.1006,-2.1037,-2.1037,-2.1069,-2.1042,-2.0975,-2.0762,-2.0521,-2.0237,-2.0167,-1.9843,-1.9285,-1.9187,-1.8909,-1.8398,-1.826,-1.7873,-1.7092,-1.6934,-1.6468,-1.5445,-1.4799,-1.375,-1.2411,-1.1917,-1.1519,-1.1027,-1.0707,-1.0467,-1.0256,-1.0028,-0.9803,-0.9657,-0.9624,-0.9128,-0.8108,-0.6798,-0.5571,-0.444,-0.2932,-0.1542,-0.0405,0.0836,0.1831,0.2482,0.3132,0.3592,0.376,0.3912,0.4103,0.4202,0.4268,0.4434,0.4657,0.4869,0.5064,0.533,0.5344,0.5589,0.5637,0.5282,0.48,0.4344,0.4222,0.4291,0.4316,0.434,0.4524,0.4842,0.4957,0.5111,0.529,0.5382,0.5409,0.5437,0.5577,0.5549,0.5549,0.5577,0.5465,0.5437,0.5409,0.5409,0.5409,0.5409,0.5409,0.5409,0.5409,0.5409,0.5382,0.5354,0.5354,0.527,0.5354,0.5326,-2.5717,-2.5211,-2.4773,-2.4426,-2.4209,-2.4088,-2.3781,-2.3292,-2.3172,-2.2873,-2.2438,-2.2418,-2.2191,-2.185,-2.1593,-2.1277,-2.0946,-2.1046,-2.1109,-2.1109,-2.1109,-2.1109,-2.1109,-2.1109,-2.1109,-2.1082,-2.1002,-2.0802,-2.0548,-2.0521,-2.03,-1.9909,-1.9706,-1.9382,-1.9029,-1.88,-1.8437,-1.7998,-1.7765,-1.7375,-1.681,-1.625,-1.5405,-1.4251,-1.2846,-1.1985,-1.1774,-1.1028,-1.0569,-1.0501,-1.0243,-1.0056,-0.9956,-0.9615,-0.9094,-0.8297,-0.7027,-0.5707,-0.4378,-0.2739,-0.1254,0.0,0.1071,0.1936,0.2608,0.3034,0.3279,0.343,0.3542,0.3642,0.375,0.4047,0.4285,0.4415,0.4616,0.4766,0.4849,0.4903,0.4971,0.4998,0.4733,0.4445,0.4216,0.4209,0.4226,0.427,0.4276,0.4364,0.4543,0.4634,0.4704,0.4791,0.4819,0.4819,0.4819,0.5214,0.5409,0.5409,0.5409,0.5382,0.5354,0.5354,0.5354,0.5326,0.5354,0.5409,0.5409,0.5409,0.5409,0.5326,0.5298,0.5158,0.507,0.5043,0.5015,-2.5569,-2.5064,-2.4756,-2.4492,-2.4342,-2.4235,-2.3928,-2.3439,-2.3332,-2.3033,-2.2619,-2.2552,-2.2405,-2.2151,-2.2124,-2.1871,-2.1403,-2.1309,-2.1288,-2.1243,-2.1149,-2.1109,-2.1109,-2.1109,-2.1109,-2.1109,-2.1109,-2.1002,-2.0842,-2.0846,-2.0655,-2.037,-2.0174,-1.9924,-1.9614,-1.9425,-1.9133,-1.8744,-1.8509,-1.8237,-1.7864,-1.7175,-1.6549,-1.579,-1.4081,-1.2876,-1.2511,-1.1487,-1.0879,-1.0783,-1.0486,-1.0251,-1.0142,-0.9638,-0.9063,-0.8433,-0.7191,-0.5845,-0.4491,-0.2901,-0.1463,-0.0266,0.0612,0.1414,0.2011,0.2175,0.2315,0.2457,0.2517,0.2544,0.2598,0.2869,0.3342,0.3769,0.4089,0.4183,0.4102,0.4098,0.4003,0.382,0.3742,0.3658,0.3601,0.3658,0.3733,0.3883,0.3914,0.399,0.4275,0.4341,0.4397,0.448,0.4536,0.4536,0.4564,0.4847,0.4987,0.5015,0.507,0.513,0.5186,0.5214,0.5242,0.5242,0.5298,0.5382,0.5409,0.5382,0.5354,0.527,0.513,0.4959,0.4819,0.4648,0.4707,-2.5358,-2.505,-2.4719,-2.4586,-2.4519,-2.4342,-2.4048,-2.3728,-2.346,-2.3166,-2.2867,-2.2867,-2.2659,-2.2458,-2.2418,-2.2258,-2.1991,-2.1756,-2.1609,-2.1569,-2.1269,-2.1149,-2.1149,-2.1122,-2.1109,-2.1109,-2.1109,-2.1096,-2.1069,-2.1056,-2.0922,-2.0753,-2.0681,-2.046,-2.0197,-2.0106,-1.9869,-1.941,-1.9246,-1.8981,-1.8398,-1.7658,-1.7179,-1.6925,-1.5591,-1.4337,-1.3277,-1.222,-1.1548,-1.1282,-1.0747,-1.0355,-1.0189,-0.9692,-0.911,-0.8493,-0.7235,-0.596,-0.4797,-0.3476,-0.2331,-0.1366,-0.0561,0.0,0.0381,0.0601,0.077,0.0833,0.0837,0.0866,0.0865,0.092,0.1545,0.2953,0.3223,0.3169,0.2985,0.2992,0.2854,0.2427,0.2479,0.2547,0.2409,0.2622,0.2899,0.3096,0.3212,0.341,0.3838,0.398,0.4148,0.4341,0.4341,0.4257,0.4369,0.4508,0.4508,0.4508,0.4592,0.4676,0.4763,0.4819,0.4903,0.4959,0.5158,0.5214,0.513,0.513,0.5098,0.5015,0.4875,0.4707,0.454,0.4397,0.4512,-2.5344,-2.505,-2.4719,-2.4599,-2.4586,-2.4492,-2.4235,-2.3817,-2.3696,-2.3388,-2.296,-2.2893,-2.284,-2.2773,-2.276,-2.2706,-2.2599,-2.2285,-2.2044,-2.183,-2.1582,-2.1435,-2.1408,-2.1203,-2.1109,-2.1109,-2.1109,-2.1109,-2.1109,-2.1109,-2.1056,-2.0989,-2.0962,-2.0815,-2.0561,-2.0535,-2.0326,-1.9956,-1.9744,-1.9539,-1.9315,-1.8703,-1.8143,-1.7612,-1.6662,-1.5658,-1.4656,-1.3344,-1.2357,-1.177,-1.1328,-1.094,-1.0539,-1.0182,-0.9721,-0.909,-0.811,-0.6876,-0.5585,-0.4488,-0.3413,-0.248,-0.1819,-0.1437,-0.1166,-0.1055,-0.1002,-0.0952,-0.0952,-0.0953,-0.0952,-0.098,-0.025,0.1436,0.169,0.1582,0.1276,0.1227,0.1147,0.1092,0.1429,0.1654,0.171,0.1964,0.2328,0.2524,0.2802,0.3166,0.3334,0.3589,0.3729,0.3866,0.3894,0.3894,0.3894,0.3894,0.3894,0.4005,0.4145,0.4285,0.4369,0.4508,0.4592,0.4735,0.4931,0.4987,0.4903,0.4875,0.4847,0.4679,0.4484,0.4316,0.4176,0.4148,0.4204,-2.5277,-2.4903,-2.4679,-2.4599,-2.4599,-2.4599,-2.4332,-2.3941,-2.3843,-2.3522,-2.3121,-2.2947,-2.2893,-2.2893,-2.2893,-2.2893,-2.288,-2.2693,-2.2485,-2.2258,-2.1917,-2.1703,-2.1569,-2.1256,-2.1109,-2.1109,-2.1109,-2.1109,-2.1109,-2.1109,-2.1096,-2.1096,-2.1109,-2.1015,-2.0886,-2.0828,-2.0695,-2.0414,-2.0227,-2.0067,-1.9887,-1.9476,-1.8948,-1.8261,-1.7555,-1.6663,-1.5627,-1.4431,-1.3394,-1.2455,-1.1827,-1.1343,-1.0919,-1.0556,-1.0156,-0.9585,-0.8739,-0.7676,-0.6561,-0.5663,-0.4784,-0.3863,-0.3385,-0.3078,-0.2882,-0.2798,-0.28,-0.2798,-0.2798,-0.2854,-0.2936,-0.2964,-0.2433,-0.1593,-0.0615,-0.0336,-0.0504,-0.0671,-0.0671,-0.0532,-0.0084,0.0336,0.0701,0.1149,0.1682,0.1992,0.2354,0.2774,0.2886,0.3138,0.3225,0.3281,0.3281,0.3281,0.3253,0.3281,0.3281,0.3477,0.3726,0.3894,0.4033,0.4204,0.4316,0.4508,0.4707,0.4735,0.4676,0.4704,0.4648,0.4372,0.412,0.4036,0.3952,0.3813,0.3841,-2.5197,-2.4653,-2.4626,-2.4626,-2.4599,-2.4599,-2.4462,-2.4168,-2.3924,-2.3594,-2.3287,-2.3014,-2.2893,-2.2893,-2.2893,-2.2893,-2.2893,-2.2867,-2.284,-2.2693,-2.2331,-2.1957,-2.1582,-2.1328,-2.1162,-2.1109,-2.1109,-2.1109,-2.1109,-2.1109,-2.1109,-2.1109,-2.1109,-2.1109,-2.1056,-2.1096,-2.0949,-2.0735,-2.0655,-2.0494,-2.0237,-1.9941,-1.952,-1.8933,-1.8327,-1.7446,-1.6376,-1.5448,-1.4367,-1.3174,-1.2144,-1.1536,-1.1204,-1.0778,-1.0437,-1.0147,-0.9168,-0.8459,-0.7711,-0.7013,-0.628,-0.5723,-0.5382,-0.5015,-0.4862,-0.4862,-0.4826,-0.4784,-0.4784,-0.4836,-0.5031,-0.5087,-0.5111,-0.5139,-0.3408,-0.2377,-0.2379,-0.266,-0.263,-0.2267,-0.1793,-0.1177,-0.0561,0.0,0.0757,0.1374,0.1738,0.2188,0.2468,0.2664,0.2692,0.2776,0.2861,0.2889,0.2973,0.2973,0.3001,0.3085,0.3281,0.3393,0.3558,0.3729,0.3868,0.4117,0.4341,0.4397,0.4424,0.4397,0.4285,0.4064,0.3896,0.3841,0.3757,0.3645,0.3617,-2.5529,-2.497,-2.4957,-2.4836,-2.4613,-2.4599,-2.4476,-2.4182,-2.3901,-2.3607,-2.33,-2.3027,-2.2893,-2.2893,-2.2893,-2.2893,-2.2893,-2.2893,-2.2893,-2.288,-2.276,-2.2238,-2.1735,-2.1502,-2.1309,-2.1149,-2.1109,-2.1109,-2.1109,-2.1109,-2.1109,-2.1109,-2.1109,-2.1109,-2.1109,-2.1109,-2.1082,-2.0975,-2.0775,-2.0686,-2.0548,-2.0256,-1.9941,-1.9572,-1.9153,-1.8397,-1.7392,-1.6153,-1.4666,-1.3062,-1.2156,-1.1656,-1.1557,-1.122,-1.0901,-1.057,-1.0139,-0.9595,-0.9038,-0.8523,-0.8099,-0.7818,-0.7531,-0.752,-0.7313,-0.7279,-0.7208,-0.7115,-0.7088,-0.7066,-0.7143,-0.7143,-0.7227,-0.7088,-0.575,-0.4665,-0.4557,-0.4616,-0.4477,-0.3918,-0.3136,-0.2438,-0.171,-0.0869,-0.0056,0.0533,0.1177,0.1794,0.1992,0.23,0.2384,0.2608,0.272,0.272,0.272,0.272,0.272,0.2776,0.2833,0.2833,0.2945,0.3057,0.3194,0.3362,0.3698,0.381,0.3924,0.3952,0.3813,0.3645,0.3617,0.3533,0.3617,0.3589,0.3558,-2.565,-2.5077,-2.5077,-2.4903,-2.4613,-2.4599,-2.4476,-2.4182,-2.3924,-2.3594,-2.33,-2.3027,-2.2893,-2.2893,-2.2893,-2.2893,-2.2893,-2.2893,-2.2893,-2.2893,-2.288,-2.2532,-2.2024,-2.1756,-2.1489,-2.1309,-2.1176,-2.1109,-2.1109,-2.1109,-2.1109,-2.1109,-2.1109,-2.1109,-2.1109,-2.1109,-2.1109,-2.1069,-2.0935,-2.0855,-2.0842,-2.0695,-2.035,-2.0038,-1.974,-1.9152,-1.7876,-1.6504,-1.4978,-1.3532,-1.2775,-1.239,-1.1942,-1.1662,-1.1404,-1.1105,-1.0751,-1.0351,-1.0069,-0.9715,-0.9432,-0.92,-0.9149,-0.9016,-0.88,-0.8781,-0.8729,-0.8621,-0.8624,-0.8648,-0.8673,-0.8711,-0.8754,-0.8644,-0.798,-0.7177,-0.6427,-0.6316,-0.5982,-0.5314,-0.4561,-0.3698,-0.2917,-0.1822,-0.0953,-0.0252,0.0505,0.0981,0.1374,0.1738,0.1964,0.202,0.202,0.188,0.1822,0.1822,0.1851,0.1964,0.202,0.2076,0.2356,0.244,0.272,0.2914,0.3113,0.3281,0.3393,0.3421,0.3253,0.3169,0.3225,0.3253,0.3253,0.3393,0.3421,-2.5665,-2.513,-2.513,-2.4943,-2.4626,-2.4586,-2.4466,-2.4235,-2.395,-2.3669,-2.3367,-2.3054,-2.2907,-2.2893,-2.2893,-2.2893,-2.2893,-2.2893,-2.2893,-2.2893,-2.288,-2.2693,-2.2405,-2.1984,-2.1743,-2.1609,-2.1309,-2.1229,-2.1216,-2.1189,-2.1136,-2.1091,-2.1109,-2.1109,-2.1109,-2.1109,-2.1109,-2.1109,-2.1082,-2.1056,-2.1056,-2.1015,-2.0783,-2.0406,-2.0146,-1.9441,-1.8189,-1.6902,-1.5659,-1.4111,-1.3822,-1.3198,-1.2431,-1.2213,-1.1887,-1.1597,-1.1206,-1.0922,-1.087,-1.0609,-1.0383,-1.0193,-1.0128,-0.999,-0.9837,-0.9801,-0.9773,-0.9716,-0.9679,-0.9702,-0.9752,-0.9874,-0.9921,-0.9857,-0.9828,-0.9203,-0.8276,-0.7826,-0.7426,-0.6594,-0.5931,-0.5011,-0.3949,-0.2917,-0.1936,-0.0925,-0.0252,0.0224,0.0561,0.0897,0.0981,0.0981,0.0953,0.0897,0.0869,0.0841,0.0897,0.0953,0.0981,0.1149,0.1682,0.1936,0.23,0.2552,0.2608,0.272,0.2889,0.2833,0.2751,0.2807,0.2945,0.2833,0.2748,0.3001,0.3085,-2.5959,-2.5411,-2.5411,-2.5079,-2.4639,-2.4599,-2.4559,-2.4439,-2.3981,-2.375,-2.3554,-2.3134,-2.2907,-2.2893,-2.2893,-2.2893,-2.2893,-2.2893,-2.2893,-2.2893,-2.2893,-2.2867,-2.2733,-2.2365,-2.2111,-2.1957,-2.1863,-2.1703,-2.1542,-2.1475,-2.1368,-2.1149,-2.1149,-2.1077,-2.1077,-2.1109,-2.1109,-2.1109,-2.1109,-2.1109,-2.1109,-2.1109,-2.1006,-2.0818,-2.0427,-1.9799,-1.8989,-1.8201,-1.7207,-1.5912,-1.457,-1.3731,-1.3234,-1.256,-1.2136,-1.197,-1.1752,-1.1549,-1.1557,-1.1443,-1.1437,-1.1294,-1.1218,-1.133,-1.1128,-1.0995,-1.0954,-1.086,-1.0841,-1.0763,-1.0766,-1.0877,-1.0822,-1.0762,-1.069,-1.0459,-0.9876,-0.9106,-0.8374,-0.7654,-0.6877,-0.5959,-0.4784,-0.3838,-0.2802,-0.1738,-0.1065,-0.0561,-0.0224,0.0084,0.0168,0.0196,0.0196,0.0196,0.0196,0.0168,0.0196,0.0196,0.0196,0.0224,0.0757,0.1121,0.1374,0.1682,0.1992,0.2132,0.2272,0.2468,0.244,0.2552,0.258,0.244,0.2384,0.2608,0.2748,-2.5838,-2.5331,-2.5304,-2.505,-2.4639,-2.4599,-2.4519,-2.4369,-2.3968,-2.3688,-2.3487,-2.3081,-2.2907,-2.2893,-2.2893,-2.2893,-2.2893,-2.2893,-2.2893,-2.2893,-2.2893,-2.2893,-2.288,-2.2733,-2.2505,-2.2205,-2.2031,-2.1917,-2.1823,-2.177,-2.1649,-2.1368,-2.1341,-2.1243,-2.1091,-2.1109,-2.1109,-2.1109,-2.1109,-2.1109,-2.1109,-2.1109,-2.1109,-2.1032,-2.0648,-2.0192,-1.9852,-1.8913,-1.8223,-1.7265,-1.586,-1.4479,-1.3691,-1.2934,-1.2414,-1.2182,-1.1949,-1.1837,-1.1806,-1.1806,-1.1768,-1.1806,-1.1806,-1.1758,-1.1654,-1.163,-1.1589,-1.1508,-1.1454,-1.1459,-1.1362,-1.1219,-1.1203,-1.1179,-1.1151,-1.1001,-1.0733,-1.0077,-0.9258,-0.854,-0.7737,-0.6788,-0.5787,-0.4735,-0.3642,-0.255,-0.171,-0.1206,-0.0869,-0.0589,-0.0477,-0.0421,-0.0421,-0.0421,-0.0421,-0.0421,-0.0421,-0.0421,-0.0421,-0.0421,-0.0224,0.0056,0.0308,0.0757,0.1262,0.143,0.1598,0.1822,0.1936,0.1738,0.171,0.1822,0.1936,0.2021,0.2132,-2.561,-2.5077,-2.5077,-2.4903,-2.4626,-2.4599,-2.4479,-2.4275,-2.3968,-2.3714,-2.338,-2.3094,-2.2974,-2.2907,-2.2893,-2.2893,-2.2893,-2.2893,-2.2893,-2.2893,-2.2893,-2.2893,-2.2893,-2.284,-2.2746,-2.2472,-2.2298,-2.2184,-2.2071,-2.2064,-2.193,-2.1689,-2.1649,-2.1515,-2.1256,-2.1176,-2.1162,-2.1122,-2.1109,-2.1109,-2.1109,-2.1109,-2.1109,-2.1032,-2.0861,-2.0658,-2.0397,-1.9676,-1.893,-1.8705,-1.7326,-1.5761,-1.4347,-1.325,-1.2642,-1.2341,-1.201,-1.1837,-1.1806,-1.1806,-1.1806,-1.1806,-1.1806,-1.1806,-1.179,-1.1782,-1.1766,-1.1774,-1.1741,-1.1701,-1.1549,-1.1451,-1.1354,-1.1321,-1.1268,-1.1236,-1.115,-1.0747,-1.0062,-0.93,-0.8547,-0.769,-0.6601,-0.5534,-0.4459,-0.3418,-0.258,-0.188,-0.1571,-0.1375,-0.1291,-0.1318,-0.1374,-0.1402,-0.1402,-0.1318,-0.129,-0.1206,-0.1177,-0.1121,-0.1121,-0.0897,-0.0533,0.0084,0.0533,0.0729,0.0953,0.1206,0.1177,0.0897,0.0981,0.129,0.1375,0.1405,0.1577,-2.5384,-2.5077,-2.5077,-2.4917,-2.4626,-2.4599,-2.4572,-2.4479,-2.4235,-2.3968,-2.3661,-2.3367,-2.3086,-2.296,-2.2893,-2.2893,-2.2893,-2.2893,-2.2893,-2.2893,-2.2893,-2.2893,-2.2893,-2.2893,-2.2853,-2.284,-2.2706,-2.2572,-2.2392,-2.2325,-2.2178,-2.1977,-2.1943,-2.1796,-2.1582,-2.1502,-2.1395,-2.1189,-2.1149,-2.1149,-2.1109,-2.1109,-2.1109,-2.1077,-2.0982,-2.0982,-2.0919,-2.0518,-1.9928,-1.9105,-1.8062,-1.6805,-1.5453,-1.4187,-1.3283,-1.2682,-1.215,-1.1932,-1.1863,-1.1839,-1.1815,-1.1806,-1.1839,-1.1839,-1.1831,-1.1823,-1.1863,-1.1823,-1.1815,-1.1782,-1.1766,-1.1676,-1.1701,-1.1668,-1.1541,-1.1451,-1.1381,-1.1173,-1.0771,-1.0068,-0.9354,-0.8552,-0.7426,-0.6304,-0.5217,-0.4227,-0.3377,-0.2743,-0.234,-0.2253,-0.2277,-0.2332,-0.244,-0.244,-0.244,-0.2356,-0.2272,-0.216,-0.2076,-0.1964,-0.1908,-0.1738,-0.1346,-0.0701,-0.0168,0.0168,0.0393,0.0589,0.0618,0.0479,0.0647,0.0814,0.0764,0.0741,0.1144,-2.4816,-2.4552,-2.4738,-2.4733,-2.4613,-2.4599,-2.4599,-2.4546,-2.4329,-2.4035,-2.379,-2.346,-2.3153,-2.296,-2.2893,-2.2893,-2.2893,-2.2893,-2.2893,-2.2893,-2.2893,-2.2893,-2.2893,-2.2893,-2.2893,-2.2893,-2.288,-2.284,-2.2672,-2.2679,-2.2472,-2.2271,-2.2205,-2.2071,-2.1844,-2.181,-2.1649,-2.1403,-2.1323,-2.1243,-2.1122,-2.1109,-2.1109,-2.1109,-2.1109,-2.1109,-2.1046,-2.0761,-2.0328,-1.9612,-1.8689,-1.7556,-1.6339,-1.5148,-1.3995,-1.3159,-1.2583,-1.2221,-1.2106,-1.2052,-1.206,-1.2083,-1.2044,-1.2052,-1.2052,-1.206,-1.1996,-1.1914,-1.1831,-1.1806,-1.1798,-1.1806,-1.1806,-1.179,-1.1717,-1.1676,-1.1652,-1.1578,-1.1234,-1.0767,-1.0019,-0.9127,-0.8111,-0.7015,-0.595,-0.5022,-0.4163,-0.3602,-0.3098,-0.3011,-0.3009,-0.2939,-0.2967,-0.2995,-0.2995,-0.2969,-0.2969,-0.291,-0.2793,-0.2681,-0.2479,-0.2229,-0.197,-0.1542,-0.1037,-0.0451,-0.0365,-0.0253,-0.0113,0.0028,-0.0028,-0.0057,0.0,0.0174,0.0552,-2.4141,-2.3933,-2.423,-2.4377,-2.4377,-2.4451,-2.4451,-2.4435,-2.4359,-2.4102,-2.3768,-2.3527,-2.322,-2.2974,-2.2893,-2.2893,-2.2893,-2.2893,-2.2893,-2.2893,-2.2893,-2.2893,-2.2893,-2.2893,-2.2893,-2.2893,-2.2893,-2.2893,-2.2867,-2.2853,-2.2746,-2.2565,-2.2498,-2.2365,-2.2158,-2.2071,-2.1917,-2.1743,-2.1582,-2.1435,-2.1176,-2.1109,-2.1109,-2.1109,-2.1109,-2.1109,-2.1077,-2.0887,-2.052,-1.9954,-1.9132,-1.8113,-1.6966,-1.5903,-1.4792,-1.3689,-1.3095,-1.2643,-1.2382,-1.228,-1.2247,-1.2239,-1.2288,-1.2296,-1.2288,-1.2231,-1.2192,-1.2062,-1.1939,-1.1872,-1.1849,-1.1801,-1.1806,-1.1806,-1.1806,-1.1798,-1.1782,-1.1719,-1.1643,-1.1129,-1.0502,-0.9659,-0.8669,-0.7597,-0.6508,-0.5635,-0.4792,-0.4296,-0.3842,-0.3637,-0.3572,-0.3431,-0.3392,-0.3392,-0.3395,-0.3403,-0.3408,-0.3413,-0.3238,-0.3098,-0.2829,-0.2565,-0.2301,-0.202,-0.1596,-0.1087,-0.1077,-0.0932,-0.0655,-0.0545,-0.0807,-0.0811,-0.0553,-0.0382,-0.0089,-2.3514,-2.3475,-2.3525,-2.3562,-2.3624,-2.3933,-2.4081,-2.4105,-2.4398,-2.4275,-2.3768,-2.3736,-2.3415,-2.3,-2.2893,-2.2893,-2.2893,-2.2893,-2.292,-2.2947,-2.292,-2.292,-2.2907,-2.2893,-2.2893,-2.2893,-2.2893,-2.2893,-2.2893,-2.2893,-2.288,-2.2813,-2.2773,-2.2659,-2.2392,-2.2365,-2.2218,-2.1951,-2.1729,-2.1462,-2.1189,-2.1136,-2.1136,-2.1109,-2.1109,-2.1109,-2.1109,-2.0982,-2.0742,-2.0106,-1.9436,-1.8515,-1.7485,-1.6452,-1.5404,-1.4332,-1.3436,-1.2643,-1.24,-1.2369,-1.2369,-1.2377,-1.2353,-1.232,-1.2353,-1.2345,-1.232,-1.2256,-1.2078,-1.2012,-1.1979,-1.1882,-1.1839,-1.1847,-1.1888,-1.1855,-1.1831,-1.1841,-1.1772,-1.1488,-1.0882,-1.0115,-0.9205,-0.8119,-0.7046,-0.6228,-0.5467,-0.4969,-0.4545,-0.4273,-0.4144,-0.4027,-0.3957,-0.3986,-0.3868,-0.3845,-0.3764,-0.3833,-0.3632,-0.3429,-0.3188,-0.2921,-0.262,-0.2302,-0.1923,-0.1599,-0.1418,-0.1242,-0.1043,-0.1048,-0.1173,-0.1116,-0.097,-0.0802,-0.0631,-2.2893,-2.3154,-2.334,-2.3401,-2.3438,-2.36,-2.3674,-2.3735,-2.4068,-2.3974,-2.3598,-2.3732,-2.3469,-2.2966,-2.2893,-2.2893,-2.2893,-2.292,-2.3014,-2.3046,-2.3027,-2.3014,-2.3046,-2.2953,-2.2893,-2.292,-2.2893,-2.2893,-2.2893,-2.2893,-2.2893,-2.2893,-2.2893,-2.284,-2.2645,-2.2659,-2.2498,-2.2231,-2.1951,-2.1689,-2.1475,-2.1381,-2.1283,-2.1122,-2.1109,-2.1109,-2.1109,-2.1077,-2.0774,-2.017,-1.9584,-1.8784,-1.769,-1.6688,-1.5736,-1.4479,-1.3832,-1.3195,-1.271,-1.2596,-1.2556,-1.2564,-1.2564,-1.2588,-1.2588,-1.2507,-1.245,-1.245,-1.2288,-1.2199,-1.2182,-1.2117,-1.2093,-1.2069,-1.202,-1.1971,-1.1939,-1.1914,-1.1823,-1.156,-1.1232,-1.0468,-0.9684,-0.869,-0.7565,-0.6492,-0.5829,-0.5376,-0.4945,-0.4634,-0.4591,-0.4636,-0.46,-0.46,-0.4448,-0.4331,-0.4097,-0.4048,-0.3843,-0.364,-0.3494,-0.3232,-0.2869,-0.2511,-0.2115,-0.1879,-0.1707,-0.1589,-0.1469,-0.1479,-0.1522,-0.1466,-0.138,-0.1271,-0.0979,-2.2483,-2.2781,-2.3005,-2.3116,-2.3154,-2.3228,-2.3265,-2.3327,-2.3698,-2.3575,-2.3317,-2.3407,-2.324,-2.3004,-2.2972,-2.306,-2.3148,-2.3121,-2.3255,-2.3273,-2.326,-2.3295,-2.3287,-2.3166,-2.3006,-2.3,-2.2934,-2.2907,-2.2893,-2.2893,-2.2893,-2.2893,-2.2893,-2.288,-2.2893,-2.2853,-2.2672,-2.2392,-2.2191,-2.1984,-2.1756,-2.1689,-2.1529,-2.1355,-2.1216,-2.1189,-2.1109,-2.1077,-2.0761,-2.017,-1.9775,-1.8976,-1.7787,-1.6882,-1.5876,-1.4758,-1.4083,-1.3471,-1.298,-1.2759,-1.2799,-1.2799,-1.2799,-1.275,-1.2759,-1.2694,-1.2661,-1.2629,-1.2467,-1.2385,-1.2361,-1.2328,-1.2264,-1.2247,-1.2255,-1.2199,-1.2111,-1.2109,-1.2031,-1.1875,-1.1487,-1.0856,-1.0033,-0.9211,-0.8116,-0.6837,-0.6176,-0.5731,-0.5403,-0.5062,-0.5085,-0.5175,-0.5025,-0.5029,-0.4903,-0.474,-0.4522,-0.4246,-0.4012,-0.3842,-0.3676,-0.3351,-0.2943,-0.2601,-0.2288,-0.2063,-0.184,-0.1857,-0.1876,-0.1806,-0.1762,-0.1861,-0.1839,-0.1669,-0.1433,-2.2296,-2.2334,-2.2371,-2.2408,-2.2446,-2.2781,-2.293,-2.2968,-2.3302,-2.326,-2.2987,-2.2902,-2.2854,-2.2854,-2.3125,-2.3385,-2.371,-2.3736,-2.3736,-2.3736,-2.3763,-2.371,-2.3607,-2.3447,-2.3247,-2.3172,-2.3006,-2.2907,-2.2893,-2.2893,-2.2893,-2.2893,-2.2893,-2.2893,-2.2893,-2.288,-2.2773,-2.2525,-2.2405,-2.2245,-2.2077,-2.1957,-2.1836,-2.1622,-2.1529,-2.1435,-2.1136,-2.1149,-2.0819,-2.0151,-1.9775,-1.9104,-1.798,-1.7012,-1.5941,-1.4964,-1.4211,-1.3588,-1.2997,-1.2799,-1.2799,-1.2799,-1.2799,-1.2799,-1.2799,-1.2799,-1.2775,-1.2742,-1.2629,-1.2564,-1.2499,-1.2434,-1.241,-1.2418,-1.2434,-1.2377,-1.2328,-1.2296,-1.2248,-1.2114,-1.1721,-1.1088,-1.044,-0.9631,-0.8494,-0.7256,-0.6394,-0.5943,-0.5848,-0.5605,-0.5662,-0.5662,-0.5449,-0.533,-0.5269,-0.4977,-0.4519,-0.4274,-0.4065,-0.396,-0.3855,-0.3457,-0.2952,-0.2743,-0.2431,-0.2205,-0.1969,-0.1954,-0.1949,-0.1964,-0.1975,-0.2005,-0.1955,-0.1784,-0.1644,-2.2308,-2.2308,-2.2308,-2.2308,-2.2334,-2.2483,-2.252,-2.2595,-2.293,-2.2963,-2.2741,-2.2691,-2.2711,-2.288,-2.3104,-2.3435,-2.3768,-2.3803,-2.3888,-2.3928,-2.3924,-2.3937,-2.3808,-2.3621,-2.3278,-2.3238,-2.3046,-2.2893,-2.2893,-2.2907,-2.2893,-2.2893,-2.2893,-2.2893,-2.2893,-2.2893,-2.2813,-2.2739,-2.2659,-2.2539,-2.2311,-2.2231,-2.2111,-2.1877,-2.185,-2.1689,-2.1462,-2.1422,-2.0868,-2.0253,-1.9819,-1.902,-1.8077,-1.7044,-1.6006,-1.4996,-1.4301,-1.3588,-1.2964,-1.2799,-1.2799,-1.2799,-1.2799,-1.2799,-1.2799,-1.2799,-1.2799,-1.2775,-1.2775,-1.271,-1.2678,-1.2645,-1.2621,-1.2605,-1.2564,-1.254,-1.2507,-1.2475,-1.2434,-1.2314,-1.1901,-1.1381,-1.0742,-1.0052,-0.8862,-0.7681,-0.6899,-0.6217,-0.6085,-0.5967,-0.5924,-0.5815,-0.5563,-0.5366,-0.5273,-0.4858,-0.4413,-0.4265,-0.4116,-0.4001,-0.3854,-0.3394,-0.295,-0.2777,-0.2507,-0.22,-0.1985,-0.1985,-0.1985,-0.1985,-0.2016,-0.2015,-0.1939,-0.1902,-0.1795,-2.2308,-2.2308,-2.2308,-2.2308,-2.2308,-2.2308,-2.2308,-2.2334,-2.2595,-2.2571,-2.2391,-2.2474,-2.2601,-2.2785,-2.3161,-2.3514,-2.3868,-2.4016,-2.4182,-2.4209,-2.4195,-2.4168,-2.4102,-2.3928,-2.3661,-2.35,-2.3193,-2.302,-2.3033,-2.2947,-2.2907,-2.2893,-2.2893,-2.2893,-2.2893,-2.2893,-2.2893,-2.2893,-2.288,-2.2827,-2.2565,-2.2539,-2.2405,-2.2164,-2.2111,-2.1997,-2.1796,-2.1657,-2.1168,-2.0477,-1.9816,-1.9112,-1.81,-1.7044,-1.6006,-1.5094,-1.4277,-1.3588,-1.303,-1.2799,-1.2799,-1.2799,-1.2799,-1.2799,-1.2799,-1.2799,-1.2799,-1.2799,-1.2799,-1.2799,-1.2799,-1.2759,-1.275,-1.271,-1.2718,-1.2678,-1.2645,-1.2645,-1.2588,-1.2483,-1.2082,-1.1728,-1.0955,-1.022,-0.8826,-0.7682,-0.6805,-0.6279,-0.6168,-0.6052,-0.5946,-0.5772,-0.5502,-0.5331,-0.5129,-0.4674,-0.425,-0.4224,-0.4101,-0.3933,-0.3706,-0.3278,-0.2935,-0.2705,-0.2457,-0.2131,-0.2041,-0.2052,-0.2041,-0.2026,-0.2034,-0.2048,-0.2042,-0.2005,-0.1984,-2.2308,-2.2308,-2.2308,-2.2308,-2.2308,-2.2308,-2.2308,-2.2296,-2.2334,-2.2213,-2.2068,-2.2276,-2.2446,-2.2676,-2.3162,-2.3559,-2.3899,-2.4258,-2.4445,-2.4406,-2.4452,-2.4532,-2.4426,-2.4226,-2.3995,-2.4008,-2.3634,-2.3313,-2.3313,-2.3174,-2.3027,-2.2934,-2.2934,-2.2893,-2.2893,-2.2893,-2.2893,-2.2893,-2.2893,-2.2867,-2.284,-2.2827,-2.2619,-2.2485,-2.2405,-2.2271,-2.2044,-2.1977,-2.147,-2.0629,-2.011,-1.9309,-1.8117,-1.7054,-1.6032,-1.5007,-1.4313,-1.3606,-1.2914,-1.2815,-1.284,-1.2815,-1.2799,-1.2799,-1.2799,-1.2799,-1.2799,-1.2799,-1.2799,-1.2799,-1.2799,-1.2799,-1.2807,-1.2799,-1.2799,-1.2791,-1.275,-1.2734,-1.2669,-1.2637,-1.2423,-1.2051,-1.1252,-1.0287,-0.8819,-0.7659,-0.6749,-0.631,-0.6214,-0.6046,-0.5906,-0.5644,-0.5372,-0.5086,-0.4829,-0.4447,-0.4141,-0.4115,-0.404,-0.3859,-0.3604,-0.3218,-0.2939,-0.2696,-0.2399,-0.2098,-0.2078,-0.2093,-0.2085,-0.208,-0.2082,-0.2096,-0.209,-0.2108,-0.2083,-2.2308,-2.2308,-2.2308,-2.2308,-2.2308,-2.2308,-2.2308,-2.2308,-2.2284,-2.2151,-2.2031,-2.2214,-2.2374,-2.2619,-2.2903,-2.3312,-2.3635,-2.4007,-2.4193,-2.423,-2.4451,-2.4562,-2.4519,-2.4359,-2.4222,-2.4102,-2.3808,-2.3621,-2.3621,-2.3469,-2.3313,-2.3207,-2.2993,-2.2907,-2.2893,-2.2893,-2.2893,-2.2893,-2.2893,-2.2893,-2.2893,-2.2893,-2.284,-2.2686,-2.2686,-2.2552,-2.2298,-2.2271,-2.1759,-2.0844,-2.0319,-1.9387,-1.8193,-1.7133,-1.6078,-1.5114,-1.4408,-1.3778,-1.3252,-1.3076,-1.3059,-1.2913,-1.2831,-1.284,-1.2807,-1.2807,-1.2799,-1.2823,-1.2848,-1.2848,-1.2799,-1.2807,-1.2807,-1.2807,-1.2799,-1.2799,-1.2783,-1.2783,-1.2759,-1.275,-1.2601,-1.2041,-1.1347,-1.0452,-0.9063,-0.7987,-0.7107,-0.6516,-0.628,-0.6007,-0.5797,-0.5483,-0.5201,-0.4856,-0.455,-0.4285,-0.4093,-0.4056,-0.391,-0.3695,-0.3445,-0.3112,-0.2849,-0.2592,-0.2326,-0.2098,-0.2109,-0.2121,-0.2136,-0.2139,-0.2132,-0.2127,-0.2106,-0.2159,-0.2174,-2.2308,-2.2308,-2.2308,-2.2308,-2.2308,-2.2308,-2.2308,-2.2308,-2.2296,-2.2199,-2.2115,-2.2224,-2.2323,-2.251,-2.2757,-2.2968,-2.3253,-2.36,-2.397,-2.4007,-2.4267,-2.4451,-2.4496,-2.4426,-2.4409,-2.4262,-2.4088,-2.3928,-2.3915,-2.3808,-2.3661,-2.3447,-2.318,-2.3086,-2.3054,-2.3,-2.2893,-2.2893,-2.2893,-2.2893,-2.2893,-2.2893,-2.2893,-2.288,-2.2853,-2.2786,-2.2653,-2.2424,-2.2108,-2.1195,-2.0358,-1.9472,-1.8328,-1.7216,-1.6133,-1.5227,-1.4299,-1.3739,-1.3366,-1.3296,-1.3214,-1.3092,-1.3027,-1.3019,-1.3027,-1.3026,-1.3051,-1.3043,-1.3003,-1.3011,-1.2977,-1.2994,-1.2896,-1.2896,-1.2848,-1.2856,-1.2896,-1.2896,-1.288,-1.2872,-1.2782,-1.2137,-1.1394,-1.0419,-0.9359,-0.8435,-0.7545,-0.6938,-0.6304,-0.5991,-0.5646,-0.5279,-0.5027,-0.4753,-0.45,-0.4311,-0.4144,-0.4027,-0.3789,-0.3551,-0.3212,-0.2874,-0.2693,-0.2488,-0.2299,-0.2139,-0.2138,-0.2147,-0.216,-0.2167,-0.2165,-0.2161,-0.2125,-0.2171,-0.2188,-2.2272,-2.2272,-2.2272,-2.2248,-2.226,-2.2212,-2.2248,-2.2296,-2.2308,-2.2296,-2.2296,-2.2284,-2.2309,-2.2396,-2.2707,-2.2856,-2.293,-2.3228,-2.3562,-2.3859,-2.4007,-2.4267,-2.4451,-2.4536,-2.4519,-2.4466,-2.4346,-2.4209,-2.4182,-2.3981,-2.3834,-2.3728,-2.3487,-2.3367,-2.326,-2.3166,-2.3027,-2.2947,-2.2893,-2.2893,-2.2893,-2.2893,-2.2893,-2.2893,-2.288,-2.288,-2.2827,-2.2745,-2.2251,-2.151,-2.0709,-1.9569,-1.8406,-1.7203,-1.6152,-1.5053,-1.4002,-1.3615,-1.3427,-1.3459,-1.3484,-1.3392,-1.3384,-1.3419,-1.3353,-1.3271,-1.3246,-1.3288,-1.3254,-1.3329,-1.3353,-1.3206,-1.31,-1.3051,-1.2945,-1.3003,-1.3059,-1.3068,-1.3002,-1.2977,-1.2937,-1.2447,-1.1578,-1.0598,-0.971,-0.859,-0.7622,-0.6744,-0.6182,-0.5886,-0.5508,-0.5009,-0.4799,-0.4618,-0.442,-0.4231,-0.4093,-0.3912,-0.3594,-0.3328,-0.298,-0.2712,-0.2533,-0.2362,-0.2245,-0.2181,-0.2167,-0.217,-0.2181,-0.2185,-0.2181,-0.2179,-0.2174,-0.2177,-0.2189,-2.174,-2.174,-2.174,-2.174,-2.174,-2.174,-2.1946,-2.2272,-2.2308,-2.2308,-2.2308,-2.2296,-2.2308,-2.2334,-2.2408,-2.2483,-2.2632,-2.2856,-2.3042,-2.334,-2.3711,-2.397,-2.423,-2.4414,-2.4525,-2.4536,-2.4469,-2.4389,-2.4399,-2.4209,-2.4088,-2.4035,-2.3781,-2.3674,-2.3607,-2.3576,-2.3281,-2.3041,-2.2974,-2.292,-2.2907,-2.2893,-2.2893,-2.2893,-2.2893,-2.2893,-2.2893,-2.2893,-2.2403,-2.1726,-2.098,-1.991,-1.8447,-1.7513,-1.6529,-1.4979,-1.4204,-1.3709,-1.3612,-1.3677,-1.3725,-1.3701,-1.3717,-1.3606,-1.3508,-1.3435,-1.3443,-1.3476,-1.3484,-1.35,-1.3484,-1.3368,-1.3303,-1.3254,-1.3189,-1.3189,-1.3238,-1.3222,-1.3197,-1.3173,-1.3133,-1.2655,-1.1769,-1.1015,-1.0065,-0.8801,-0.7665,-0.6774,-0.6024,-0.5688,-0.5312,-0.4806,-0.4571,-0.444,-0.4272,-0.4088,-0.3959,-0.3797,-0.3432,-0.3098,-0.2791,-0.2521,-0.2356,-0.2256,-0.2223,-0.2189,-0.2186,-0.2189,-0.2189,-0.2189,-0.2186,-0.2188,-0.2189,-0.2189,-0.2189,-2.1474,-2.1474,-2.1474,-2.1474,-2.1474,-2.1486,-2.1716,-2.1982,-2.2091,-2.2151,-2.2151,-2.2248,-2.2308,-2.2308,-2.2334,-2.2334,-2.2334,-2.252,-2.2744,-2.3079,-2.3364,-2.3562,-2.3822,-2.4044,-2.4156,-2.4304,-2.4377,-2.4375,-2.4472,-2.4466,-2.4382,-2.4342,-2.4075,-2.4017,-2.3937,-2.3817,-2.3603,-2.3348,-2.3161,-2.3027,-2.2947,-2.2907,-2.2893,-2.2893,-2.2893,-2.2893,-2.2893,-2.2893,-2.2482,-2.1807,-2.1081,-2.011,-1.8552,-1.7429,-1.6327,-1.4894,-1.4258,-1.3894,-1.3774,-1.3823,-1.388,-1.3904,-1.3896,-1.379,-1.3693,-1.3636,-1.3663,-1.3663,-1.3612,-1.3587,-1.3555,-1.3522,-1.3506,-1.3474,-1.3441,-1.3401,-1.3435,-1.3427,-1.3376,-1.336,-1.3122,-1.2775,-1.2122,-1.1343,-1.0361,-0.9029,-0.7786,-0.6765,-0.5971,-0.5383,-0.5026,-0.4574,-0.4406,-0.4272,-0.4104,-0.3869,-0.3667,-0.3432,-0.3098,-0.2795,-0.2559,-0.2425,-0.229,-0.2223,-0.2189,-0.2189,-0.2189,-0.2189,-0.2189,-0.219,-0.2193,-0.2193,-0.2192,-0.2189,-0.2189,-2.1438,-2.139,-2.145,-2.1414,-2.145,-2.1414,-2.139,-2.1486,-2.1704,-2.1873,-2.1958,-2.2151,-2.226,-2.2284,-2.2308,-2.2308,-2.2296,-2.2371,-2.252,-2.2856,-2.3005,-2.3191,-2.334,-2.3451,-2.3735,-2.3896,-2.4007,-2.4081,-2.4377,-2.4398,-2.4372,-2.4536,-2.4346,-2.4249,-2.4209,-2.4062,-2.3901,-2.3741,-2.3514,-2.334,-2.3067,-2.296,-2.292,-2.2893,-2.2893,-2.2893,-2.2893,-2.2756,-2.2564,-2.1841,-2.1081,-2.0214,-1.8563,-1.7017,-1.5815,-1.4999,-1.4386,-1.4058,-1.3907,-1.3888,-1.3888,-1.3904,-1.3896,-1.3872,-1.3815,-1.379,-1.3774,-1.3774,-1.3758,-1.3758,-1.3734,-1.3693,-1.3669,-1.3644,-1.3612,-1.3499,-1.3402,-1.3316,-1.318,-1.3172,-1.3025,-1.2666,-1.2175,-1.1386,-1.0373,-0.9094,-0.7936,-0.6827,-0.6003,-0.5242,-0.4731,-0.4369,-0.4231,-0.406,-0.3768,-0.3533,-0.3299,-0.303,-0.2765,-0.2559,-0.2357,-0.229,-0.2223,-0.2189,-0.2189,-0.2189,-0.2189,-0.2189,-0.2193,-0.2201,-0.2203,-0.2199,-0.2197,-0.2204,-0.2203,-2.0894,-2.0894,-2.0894,-2.0894,-2.0894,-2.0894,-2.0906,-2.0918,-2.1172,-2.1522,-2.1861,-2.197,-2.2115,-2.2248,-2.226,-2.2272,-2.2296,-2.2308,-2.2371,-2.2558,-2.2707,-2.2856,-2.3042,-2.3191,-2.3401,-2.3475,-2.355,-2.3661,-2.3822,-2.4007,-2.4156,-2.4193,-2.4209,-2.4342,-2.4342,-2.4196,-2.4189,-2.4029,-2.3995,-2.3652,-2.3327,-2.3193,-2.314,-2.3014,-2.2907,-2.292,-2.2907,-2.2859,-2.2448,-2.1829,-2.1346,-2.0098,-1.8247,-1.685,-1.5789,-1.5088,-1.4617,-1.4261,-1.4011,-1.394,-1.3904,-1.3904,-1.3904,-1.3904,-1.3896,-1.3904,-1.3904,-1.3904,-1.3904,-1.3904,-1.3852,-1.3812,-1.3744,-1.3763,-1.3712,-1.3515,-1.3354,-1.318,-1.2965,-1.293,-1.2866,-1.2496,-1.2029,-1.1272,-1.0249,-0.9161,-0.798,-0.693,-0.6069,-0.5298,-0.4606,-0.4237,-0.4076,-0.3859,-0.3494,-0.3249,-0.3023,-0.278,-0.2543,-0.2368,-0.2193,-0.2201,-0.221,-0.2195,-0.2189,-0.22,-0.2204,-0.2192,-0.2197,-0.2181,-0.2191,-0.2192,-0.2208,-0.2183,-0.2207,-2.07,-2.07,-2.07,-2.07,-2.07,-2.07,-2.07,-2.0724,-2.0857,-2.116,-2.1534,-2.168,-2.1885,-2.2091,-2.2127,-2.2224,-2.226,-2.2308,-2.2346,-2.2408,-2.2483,-2.2558,-2.2744,-2.2856,-2.3005,-2.3116,-2.3327,-2.3438,-2.3414,-2.3562,-2.3748,-2.3785,-2.4007,-2.4105,-2.4105,-2.4203,-2.4261,-2.4103,-2.4236,-2.4056,-2.363,-2.3545,-2.338,-2.3153,-2.306,-2.302,-2.292,-2.2859,-2.2551,-2.1863,-2.1173,-1.9924,-1.8352,-1.7087,-1.6249,-1.5541,-1.4972,-1.4403,-1.4189,-1.4027,-1.392,-1.3937,-1.3912,-1.392,-1.3904,-1.3904,-1.3904,-1.3904,-1.3904,-1.3904,-1.3789,-1.3729,-1.3579,-1.35,-1.3349,-1.3143,-1.308,-1.2958,-1.2871,-1.2836,-1.2701,-1.2408,-1.1888,-1.12,-1.0273,-0.9557,-0.8368,-0.7181,-0.626,-0.5428,-0.4724,-0.4138,-0.3976,-0.3573,-0.3141,-0.2929,-0.2791,-0.2541,-0.2325,-0.2266,-0.2203,-0.22,-0.2196,-0.2191,-0.2191,-0.22,-0.2199,-0.2187,-0.2193,-0.2182,-0.2187,-0.2189,-0.2208,-0.2224,-0.2217,-2.0664,-2.07,-2.07,-2.07,-2.07,-2.07,-2.07,-2.07,-2.0712,-2.0833,-2.1075,-2.1269,-2.1571,-2.1776,-2.1873,-2.2042,-2.2163,-2.2175,-2.2212,-2.2296,-2.2346,-2.2408,-2.2408,-2.2371,-2.2595,-2.2819,-2.3005,-2.3104,-2.3141,-2.3302,-2.334,-2.3377,-2.3401,-2.3438,-2.3525,-2.3711,-2.3894,-2.3942,-2.4064,-2.4169,-2.4077,-2.3945,-2.3688,-2.3487,-2.3327,-2.318,-2.3006,-2.2838,-2.2667,-2.1966,-2.1034,-1.982,-1.8668,-1.7545,-1.6744,-1.6046,-1.5185,-1.4757,-1.4443,-1.4198,-1.4082,-1.4002,-1.3969,-1.3933,-1.3941,-1.3941,-1.3941,-1.3861,-1.3861,-1.3805,-1.3698,-1.3591,-1.3412,-1.319,-1.2975,-1.276,-1.2725,-1.2689,-1.2617,-1.2624,-1.2417,-1.2129,-1.1734,-1.1074,-1.0426,-0.974,-0.8801,-0.7638,-0.6604,-0.581,-0.5057,-0.4356,-0.3911,-0.3464,-0.284,-0.2656,-0.2545,-0.2435,-0.2255,-0.2236,-0.2208,-0.2194,-0.219,-0.2198,-0.2201,-0.2197,-0.2198,-0.2191,-0.2204,-0.2214,-0.2217,-0.2221,-0.2237,-0.2252,-0.2257,-2.0507,-2.07,-2.07,-2.07,-2.07,-2.07,-2.07,-2.07,-2.07,-2.0736,-2.0797,-2.0857,-2.1111,-2.1547,-2.1595,-2.1728,-2.1946,-2.2006,-2.2163,-2.2272,-2.2284,-2.2296,-2.2308,-2.2308,-2.2334,-2.2483,-2.2595,-2.252,-2.2744,-2.293,-2.3005,-2.3005,-2.329,-2.3364,-2.3364,-2.3525,-2.3562,-2.36,-2.3624,-2.3708,-2.3804,-2.3776,-2.3945,-2.3728,-2.3447,-2.334,-2.3193,-2.2979,-2.2693,-2.207,-2.1257,-2.0099,-1.9106,-1.8132,-1.7283,-1.6453,-1.5615,-1.5083,-1.4756,-1.4423,-1.4257,-1.4209,-1.4209,-1.418,-1.4188,-1.416,-1.4042,-1.379,-1.3743,-1.3642,-1.3539,-1.3395,-1.3208,-1.2833,-1.2575,-1.2431,-1.2323,-1.2151,-1.2007,-1.2021,-1.1963,-1.1818,-1.1746,-1.1125,-1.0547,-0.9858,-0.9034,-0.7933,-0.7051,-0.6235,-0.5468,-0.4716,-0.4011,-0.3139,-0.2503,-0.2432,-0.2322,-0.2249,-0.2216,-0.2226,-0.2226,-0.2212,-0.2212,-0.2226,-0.2222,-0.2214,-0.2217,-0.2229,-0.2232,-0.224,-0.2281,-0.2288,-0.2303,-0.2275,-0.2277]},{"header":{"parameterUnit":"m.s-1","parameterCategory":1,"la1":31.0,"la2":29.5877,"lo1":-88.7671,"lo2":-86.6584,"dy":0.0162,"dx":0.0185,"nx":115,"ny":88,"refTime":"2023-09-18T12:00:00:Z","depth":0,"parameterNumber":3,"parameterNumberName":"V-component_of_WINDS"},"data":[0.0,0.0,0.0,0.0,0.0,0.0,0.0,0.0,0.0,0.0,0.0,0.0,0.0,0.0,0.0,0.0,0.0,0.0,0.0,0.0,0.0,0.0,0.0,0.0,0.0,0.0,0.0,0.0,0.0,0.0,0.0,0.0,0.0,0.0,0.0,0.0,0.0,0.0,0.0,0.0,0.0,0.0,0.0,0.0,0.0,0.0,0.0,0.0,0.0,0.0,0.0,0.0,0.0,0.0,0.0,0.0,0.0,0.0,0.0,0.0,0.0,0.0,0.0,0.0,0.0,0.0,0.0,0.0,0.0,0.0,0.0,0.0,0.0,0.0,0.0,0.0,0.0,0.0,0.0,0.0,0.0,0.0,0.0,0.0,0.0,0.0,0.0,0.0,0.0,0.0,0.0,0.0,0.0,0.0,0.0,0.0,0.0,0.0,0.0,0.0,0.0,0.0,0.0,0.0,0.0,0.0,0.0,0.0,0.0,0.0,0.0,0.0,0.0,0.0,0.0,0.0,0.0,0.0,0.0,0.0,0.0,0.0,0.0,0.0,0.0,0.0,0.0,0.0,0.0,0.0,0.0,0.0,0.0,0.0,0.0,0.0,0.0,0.0,0.0,0.0,0.0,0.0,0.0,0.0,0.0,0.0,0.0,0.0,0.0,0.0,0.0,0.0,0.0,0.0,0.0,0.0,0.0,0.0,0.0,0.0,0.0,0.0,0.0,0.0,0.0,0.0,0.0,0.0,0.0,0.0,0.0,0.0,0.0,0.0,0.0,0.0,0.0,0.0,0.0,0.0,0.0,0.0,0.0,0.0,0.0,0.0,0.0,0.0,0.0,0.0,0.0,0.0,0.0,0.0,0.0,0.0,0.0,0.0,0.0,0.0,0.0,0.0,0.0,0.0,0.0,0.0,0.0,0.0,0.0,0.0,0.0,0.0,0.0,0.0,0.0,0.0,0.0,0.0,0.0,0.0,0.0,0.0,0.0,0.0,0.0,0.0,0.0,0.0,0.0,0.0,0.0,0.0,0.0,0.0,0.0,0.0,0.0,0.0,0.0,0.0,0.0,0.0,0.0,0.0,0.0,0.0,0.0,0.0,0.0,0.0,0.0,0.0,0.0,0.0,0.0,0.0,0.0,0.0,0.0,0.0,0.0,0.0,0.0,0.0,0.0,0.0,0.0,0.0,0.0,0.0,0.0,0.0,0.0,0.0,0.0,0.0,0.0,0.0,0.0,0.0,0.0,0.0,0.0,0.0,0.0,0.0,0.0,0.0,0.0,0.0,0.0,0.0,0.0,0.0,0.0,0.0,0.0,0.0,0.0,0.0,0.0,0.0,0.0,0.0,0.0,0.0,0.0,0.0,0.0,0.0,0.0,0.0,0.0,0.0,0.0,0.0,0.0,0.0,0.0,0.0,0.0,0.0,0.0,0.0,0.0,0.0,0.0,0.0,0.0,0.0,0.0,0.0,0.0,0.0,0.0,0.0,0.0,0.0,0.0,0.0,0.0,0.0,0.0,0.0,0.0,0.0,0.0,0.0,0.0,0.0,0.0,0.0,0.0,0.0,0.0,0.0,0.0,0.0,0.0,0.0,0.0,0.0,0.0,0.0,0.0,0.0,0.0,0.0,0.0,0.0,0.0,0.0,0.0,0.0,0.0,0.0,0.0,0.0,0.0,0.0,0.0,0.0,0.0,0.0,0.0,0.0,0.0,0.0,0.0,0.0,0.0,0.0,0.0,0.0,0.0,0.0,0.0,0.0,0.0,0.0,0.0,0.0,0.0,0.0,0.0,0.0,0.0,0.0,0.0,0.0,0.0,0.0,0.0,0.0,0.0,0.0,0.0,0.0,0.0,0.0,0.0,0.0,0.0,0.0,0.0,0.0,0.0,0.0,0.0,0.0,0.0,0.0,0.0,0.0,0.0,0.0,0.0,0.0,0.0,0.0,0.0,0.0,0.0,0.0,0.0,0.0,0.0,0.0,0.0,0.0,0.0,0.0,0.0,0.0,0.0,0.0,0.0,0.0,0.0,0.0,0.0,0.0,0.0,0.0,0.0,0.0,0.0,0.0,0.0,0.0,0.0,0.0,0.0,0.0,0.0,0.0,0.0,0.0,0.0,0.0,0.0,0.0,0.0,0.0,0.0,0.0,0.0,0.0,0.0,0.0,0.0,0.0,0.0,0.0,0.0,0.0,0.0,0.0,0.0,0.0,0.0,0.0,0.0,0.0,0.0,0.0,0.0,0.0,0.0,0.0,0.0,0.0,0.0,0.0,0.0,0.0,0.0,0.0,0.0,0.0,0.0,0.0,0.0,0.0,0.0,0.0,0.0,0.0,0.0,0.0,0.0,0.0,0.0,0.0,0.0,0.0,0.0,0.0,0.0,0.0,0.0,0.0,0.0,0.0,0.0,0.0,0.0,0.0,0.0,0.0,0.0,0.0,0.0,0.0,0.0,0.0,0.0,0.0,0.0,0.0,0.0,0.0,0.0,0.0,0.0,0.0,0.0,0.0,0.0,0.0,0.0,0.0,0.0,0.0,0.0,0.0,0.0,0.0,0.0,0.0,0.0,0.0,0.0,0.0,0.0,0.0,0.0,0.0,0.0,0.0,0.0,0.0,0.0,0.0,0.0,0.0,0.0,0.0,0.0,0.0,0.0,0.0,0.0,0.0,0.0,0.0,0.0,0.0,0.0,0.0,0.0,0.0,0.0,0.0,0.0,0.0,0.0,0.0,0.0,0.0,0.0,0.0,0.0,0.0,0.0,0.0,0.0,0.0,0.0,0.0,0.0,0.0,0.0,0.0,0.0,0.0,0.0,0.0,0.0,0.0,0.0,0.0,0.0,0.0,0.0,0.0,0.0,0.0,0.0,0.0,0.0,0.0,0.0,0.0,0.0,0.0,0.0,0.0,0.0,0.0,0.0,0.0,0.0,0.0,0.0,0.0,0.0,0.0,0.0,0.0,0.0,0.0,0.0,0.0,0.0,0.0,0.0,0.0,0.0,0.0,0.0,0.0,0.0,0.0,0.0,0.0,0.0,0.0,0.0,0.0,0.0,0.0,0.0,0.0,0.0,0.0,0.0,0.0,0.0,0.0,0.0,0.0,0.0,0.0,0.0,0.0,0.0,0.0,0.0,0.0,0.0,0.0,0.0,0.0,0.0,0.0,0.0,0.0,0.0,0.0,0.0,0.0,0.0,0.0,0.0,0.0,0.0,0.0,0.0,0.0,0.0,0.0,0.0,0.0,0.0,0.0,0.0,0.0,0.0,0.0,0.0,0.0,0.0,0.0,0.0,0.0,0.0,0.0,0.0,0.0,0.0,0.0,0.0,0.0,0.0,0.0,0.0,0.0,0.0,0.0,0.0,0.0,0.0,0.0,0.0,0.0,0.0,0.0,0.0,0.0,0.0,0.0,0.0,0.0,0.0,0.0,0.0,0.0,0.0,0.0,0.0,0.0,0.0,0.0,0.0,0.0,0.0,0.0,0.0,0.0,0.0,0.0,0.0,0.0,0.0,0.0,0.0,0.0,0.0,0.0,0.0,0.0,0.0,0.0,0.0,0.0,0.0,0.0,0.0,0.0,0.0,0.0,0.0,0.0,0.0,0.0,0.0,0.0,0.0,0.0,0.0,0.0,0.0,0.0,0.0,0.0,0.0,0.0,0.0,0.0,0.0,0.0,0.0,0.0,0.0,0.0,0.0,0.0,0.0,0.0,0.0,0.0,0.0,0.0,0.0,0.0,0.0,0.0,0.0,0.0,0.0,0.0,0.0,0.0,0.0,0.0,0.0,0.0,0.0,0.0,0.0,0.0,0.0,0.0,0.0,0.0,0.0,0.0,0.0,0.0,0.0,0.0,0.0,0.0,0.0,0.0,0.0,0.0,0.0,0.0,0.0,0.0,0.0,0.0,0.0,0.0,0.0,0.0,0.0,0.0,0.0,0.0,0.0,0.0,0.0,0.0,0.0,0.0,0.0,0.0,0.0,0.0,0.0,0.0,0.0,0.0,0.0,0.0,0.0,0.0,0.0,0.0,0.0,0.0,0.0,0.0,0.0,0.0,0.0,0.0,0.0,0.0,0.0,0.0,0.0,0.0,0.0,0.0,0.0,0.0,0.0,0.0,0.0,0.0,0.0,0.0,0.0,0.0,0.0,0.0,0.0,0.0,0.0,0.0,0.0,0.0,0.0,0.0,0.0,0.0,0.0,0.0,0.0,0.0,0.0,0.0,0.0,0.0,0.0,0.0,0.0,0.0,0.0,0.0,0.0,0.0,1.0094,0.0,0.0,0.0,0.0,0.0,0.0,0.0,0.0,0.0,0.0,0.0,0.0,0.0,0.0,0.0,0.0,0.0,0.0,0.0,0.0,0.0,0.0,0.0,0.0,0.0,0.0,0.0,0.0,0.0,0.0,0.0,0.0,0.0,0.0,0.0,0.0,0.0,0.0,0.0,0.0,0.0,0.0,0.0,0.0,0.0,0.0,0.0,0.0,0.0,0.0,0.0,0.0,0.0,0.0,0.0,0.0,0.0,0.0,0.0,0.0,0.0,0.0,0.0,0.0,0.0,0.0,0.0,0.0,0.0,0.0,0.0,0.0,0.0,0.0,0.0,0.0,0.0,0.0,0.0,0.0,0.0,0.0,0.0,0.0,0.0,0.0,0.0,0.0,0.0,0.0,0.0,0.0,0.0,0.0,0.0,0.0,0.0,0.0,0.0,0.0,0.0,0.0,0.0,0.0,0.0,0.0,0.0,0.0,0.0,0.0,0.9081,0.9003,0.9431,0.9899,1.0289,0.0,0.0,0.0,0.0,0.0,0.0,0.0,0.0,0.0,0.0,0.0,0.0,0.0,0.0,0.0,0.0,0.0,0.0,0.0,0.0,0.0,0.0,0.0,0.0,0.0,0.0,0.0,0.0,0.0,0.0,0.0,0.0,0.0,0.0,0.0,0.0,0.0,0.0,0.0,0.0,0.0,0.0,0.0,0.0,0.0,0.0,0.0,0.0,0.0,0.0,0.0,0.0,0.0,0.0,0.0,0.0,0.0,0.0,0.0,0.0,0.0,0.0,0.0,0.0,0.0,0.0,0.0,0.0,0.0,0.0,0.0,0.0,0.0,0.0,0.0,0.0,0.0,0.0,0.0,0.0,0.0,0.0,0.0,0.0,0.0,0.0,0.0,0.0,0.0,0.0,0.0,0.0,0.0,0.0,0.0,0.0,0.0,0.0,0.0,0.0,0.0,0.0,0.0,0.0,0.0,0.0,0.0,0.0,0.0,0.0,0.0,0.0,0.9938,1.0327,1.0327,0.0,0.0,0.0,0.0,0.0,0.0,0.0,0.0,0.0,0.0,0.0,0.0,0.0,0.0,0.0,0.0,0.0,0.0,0.0,0.0,0.0,0.0,0.0,0.0,0.0,0.0,0.0,0.0,0.0,0.0,0.0,0.0,0.0,0.0,0.0,0.0,0.0,0.0,0.0,0.0,0.0,0.0,0.0,0.0,0.0,0.0,0.0,0.0,0.0,0.0,0.0,0.0,0.0,0.0,0.0,0.0,0.0,0.0,0.0,0.0,0.0,0.0,0.0,0.0,0.0,0.0,0.0,0.0,0.0,0.0,0.0,0.0,0.0,0.0,0.0,0.0,0.0,0.0,0.0,0.0,0.0,0.0,0.0,0.0,0.0,0.0,0.0,0.0,0.0,0.0,0.0,0.0,0.0,0.0,0.0,0.0,0.0,0.0,0.0,0.0,0.0,0.0,0.0,0.0,0.0,0.0,0.0,0.0,0.0,0.0,1.025,1.0172,1.0289,0.0,1.0327,0.0,0.0,0.0,0.0,0.0,0.0,0.0,0.0,0.0,0.0,0.0,0.0,0.0,0.0,0.0,0.0,0.0,0.0,0.0,0.0,0.0,0.0,0.0,0.0,0.0,0.0,0.0,0.0,0.0,0.0,0.0,0.0,0.0,0.0,0.0,0.0,0.0,0.0,0.0,0.0,0.0,0.0,0.0,0.0,0.0,0.0,0.0,0.0,0.0,0.0,0.0,0.0,0.0,0.0,0.0,0.0,0.0,0.0,0.0,0.0,0.0,0.0,0.0,0.0,0.0,0.0,0.0,0.0,0.0,0.0,0.0,0.0,0.0,0.0,0.0,0.0,0.0,0.0,0.0,0.0,0.0,0.0,0.0,0.0,0.0,0.0,0.0,0.0,0.0,0.0,0.0,0.0,0.0,0.0,0.0,0.0,0.0,0.0,0.0,0.0,0.0,0.0,0.0,0.0,0.0,0.0,0.0,0.0,0.0,0.0,1.1028,1.1028,1.1028,1.0796,0.0,0.0,0.0,0.0,0.0,0.0,0.0,0.0,0.0,0.0,0.0,0.0,0.0,0.0,0.0,0.0,0.0,0.0,0.0,0.0,0.0,0.0,0.0,0.0,0.0,0.0,0.0,0.0,0.0,0.0,0.0,0.0,0.0,0.0,0.0,0.0,0.0,0.0,0.0,0.0,0.0,0.0,0.0,0.0,0.0,0.0,0.0,0.0,0.0,0.0,0.0,0.0,0.0,0.0,0.0,0.0,0.0,0.0,0.0,0.0,0.0,0.0,0.0,0.0,0.0,0.0,0.0,0.0,0.0,0.0,0.0,0.0,0.0,0.0,0.0,0.0,0.0,0.0,0.0,0.0,0.0,0.0,0.0,0.0,0.0,0.0,0.0,0.0,0.0,0.0,0.0,0.0,0.0,0.0,0.0,0.0,0.0,0.0,0.0,0.0,0.0,0.0,0.0,0.0,0.0,0.0,0.0,0.0,0.0,0.0,1.1223,1.1612,1.1846,1.1885,1.1455,1.0676,0.0,0.0,0.0,0.0,0.0,0.0,0.0,0.0,0.0,0.0,0.0,0.0,0.0,0.0,0.0,0.0,0.0,0.0,0.0,0.0,0.0,0.0,0.0,0.0,0.0,0.0,0.0,0.0,0.0,0.0,0.0,0.0,0.0,0.0,0.0,0.0,0.0,0.0,0.0,0.0,0.0,0.0,0.0,0.0,0.0,0.0,0.0,0.0,0.0,0.0,0.0,0.0,0.0,0.0,0.0,0.0,0.0,0.0,0.0,0.0,0.0,0.0,0.0,0.0,0.0,0.0,0.0,0.0,0.0,0.0,0.0,0.0,0.0,0.0,0.0,0.0,0.0,0.0,0.0,0.0,0.0,0.0,0.0,0.0,0.0,0.0,0.0,0.0,0.0,0.0,0.0,0.0,0.0,0.0,0.0,0.0,0.0,0.0,0.0,0.0,0.0,0.0,0.0,0.0,0.0,0.0,0.0,0.0,1.1418,1.1496,1.1924,1.2703,1.2742,1.2351,0.0,0.0,0.0,0.0,0.0,0.0,0.0,0.0,0.0,0.0,0.0,0.0,0.0,0.0,0.0,0.0,0.0,0.0,0.0,0.0,0.0,0.0,0.0,0.0,0.0,0.0,0.0,0.0,0.0,0.0,0.0,0.0,0.0,0.0,0.0,0.0,0.0,0.0,0.0,0.0,0.0,0.0,0.0,0.0,0.0,0.0,0.0,0.0,0.0,0.0,0.0,0.0,0.0,0.0,0.0,0.0,0.0,0.0,0.0,0.0,0.0,0.0,0.0,0.0,0.0,0.0,0.0,0.0,0.0,0.0,0.0,0.0,0.0,0.0,0.0,0.0,0.0,0.0,0.0,0.0,0.0,0.0,0.0,0.0,0.0,0.0,0.0,0.0,0.0,0.0,0.0,0.0,0.0,0.0,0.0,0.0,0.0,0.0,0.0,0.0,0.0,0.0,0.0,0.0,0.0,0.0,0.0,0.0,0.0,1.1578,1.2627,1.3327,1.3639,1.3638,1.3246,0.0,0.0,0.0,0.0,0.0,0.0,0.0,0.0,0.0,0.0,0.0,0.0,0.0,0.0,0.0,0.0,0.0,0.0,0.0,0.0,0.0,0.0,0.0,0.0,0.0,0.0,0.0,0.0,0.0,0.0,0.0,0.0,0.0,0.0,0.0,0.0,0.0,0.0,0.0,0.0,0.0,0.0,0.0,0.0,0.0,0.0,0.0,0.0,0.0,0.0,0.0,0.0,0.0,0.0,0.0,0.0,0.0,0.0,0.0,0.0,0.0,0.0,0.0,0.0,0.0,0.0,0.0,0.0,0.0,0.0,0.0,0.0,0.0,0.0,0.0,0.0,0.0,0.0,0.0,0.0,0.0,0.0,0.0,0.0,0.0,0.0,0.0,0.0,0.0,0.0,0.0,0.0,0.0,0.0,0.0,0.0,0.0,0.0,0.0,0.0,0.0,0.0,0.0,0.0,0.0,0.0,0.0,0.0,0.0,1.2829,0.0,1.4962,1.4923,1.4962,1.4414,0.0,0.0,0.0,0.0,0.0,0.0,0.0,0.0,0.0,0.0,0.0,0.0,0.0,0.0,0.0,0.0,0.0,0.0,0.0,0.0,0.0,0.0,0.0,0.0,0.0,0.0,0.0,0.0,0.0,0.0,0.0,0.0,0.0,0.0,0.0,0.0,0.0,0.0,0.0,0.0,0.0,0.0,0.0,0.0,0.0,0.0,0.0,0.0,0.0,0.0,0.0,0.0,0.0,0.0,0.0,0.0,0.0,0.0,0.0,0.0,0.0,0.0,0.0,0.0,0.0,0.0,0.0,0.0,0.0,0.0,0.0,0.0,0.0,0.0,0.0,0.0,0.0,0.0,0.0,0.0,0.0,0.0,0.0,0.0,0.0,0.0,0.0,0.0,0.0,0.0,0.0,0.0,0.0,0.0,0.0,0.0,0.0,0.0,0.0,0.0,0.0,0.0,0.0,0.0,0.0,0.0,0.0,0.0,1.2917,1.5286,1.6213,1.6637,1.6715,1.6637,1.5854,0.0,0.0,0.0,0.0,0.0,0.0,0.0,0.0,0.0,0.0,0.0,0.0,0.0,0.0,0.0,0.0,0.0,0.0,0.0,0.0,0.0,0.0,0.0,0.0,0.0,0.0,0.0,0.0,0.0,0.0,0.0,0.0,0.0,0.0,0.0,0.0,0.0,0.0,0.0,0.0,0.0,0.0,0.0,0.0,0.0,0.0,0.0,0.0,0.0,0.0,0.0,0.0,0.0,0.0,0.0,0.0,0.0,0.0,0.0,0.0,0.0,0.0,0.0,0.0,0.0,0.0,0.0,0.0,0.0,0.0,0.0,0.0,0.0,0.0,0.0,0.0,0.0,0.0,0.0,0.0,0.0,0.0,0.0,0.0,0.0,0.0,0.0,0.0,0.0,0.0,0.0,0.0,0.0,0.0,0.0,0.0,0.0,0.0,0.0,0.0,0.0,0.0,0.0,0.0,0.0,0.0,0.0,0.0,0.0,1.6303,1.7155,1.7618,1.7572,1.7027,1.6437,0.0,0.0,0.0,0.0,0.0,0.0,0.0,0.0,0.0,0.0,0.0,0.0,0.0,0.0,0.0,0.0,0.0,0.0,0.0,0.0,0.0,0.0,0.0,0.0,0.0,0.0,0.0,0.0,0.0,0.0,0.0,0.0,0.0,0.0,0.0,0.0,0.0,0.0,0.0,0.0,0.0,0.0,0.0,0.0,0.0,0.0,0.0,0.0,0.0,0.0,0.0,0.0,0.0,0.0,0.0,0.0,0.0,0.0,0.0,0.0,0.0,0.0,0.0,0.0,0.0,0.0,0.0,0.0,0.0,0.0,0.0,0.0,0.0,0.0,0.0,0.0,0.0,0.0,0.0,0.0,0.0,0.0,0.0,0.0,0.0,0.0,0.0,0.0,0.0,0.0,0.0,0.0,0.0,0.0,0.0,0.0,0.0,0.0,0.0,0.0,0.0,0.0,0.0,0.0,0.0,0.0,0.0,0.0,0.0,1.8619,1.9153,1.9415,1.9409,1.8588,1.7802,1.7167,0.0,0.0,0.0,0.0,0.0,0.0,0.0,0.0,0.0,0.0,0.0,0.0,0.0,0.0,0.0,0.0,0.0,0.0,0.0,0.0,0.0,0.0,0.0,0.0,0.0,0.0,0.0,0.0,0.0,0.0,0.0,0.0,0.0,0.0,0.0,0.0,0.0,0.0,0.0,0.0,0.0,0.0,0.0,0.0,0.0,0.0,0.0,0.0,0.0,0.0,0.0,0.0,0.0,0.0,0.0,0.0,0.0,0.0,0.0,0.0,0.0,0.0,0.0,0.0,0.0,0.0,0.0,0.0,0.0,0.0,0.0,0.0,0.0,0.0,0.0,0.0,0.0,0.0,0.0,0.0,0.0,0.0,0.0,0.0,0.0,0.0,0.0,0.0,0.0,0.0,0.0,0.0,0.0,0.0,0.0,0.0,0.0,0.0,0.0,0.0,0.0,0.0,0.0,0.0,0.0,0.0,0.0,0.0,2.1989,2.2128,2.2111,2.1914,2.101,1.9792,0.0,0.0,0.0,0.0,0.0,0.0,0.0,0.0,0.0,0.0,0.0,0.0,0.0,0.0,0.0,0.0,0.0,0.0,0.0,0.0,0.0,0.0,0.0,0.0,0.0,0.0,0.0,0.0,0.0,0.0,0.0,0.0,0.0,0.0,0.0,0.0,0.0,0.0,0.0,0.0,0.0,0.0,0.0,0.0,0.0,0.0,0.0,0.0,0.0,0.0,0.0,0.0,0.0,0.0,0.0,0.0,0.0,0.0,0.0,0.0,0.0,0.0,0.0,0.0,0.0,0.0,0.0,0.0,0.0,0.0,0.0,0.0,0.0,0.0,0.0,0.0,0.0,0.0,0.0,0.0,0.0,0.0,0.0,0.0,0.0,0.0,0.0,0.0,0.0,0.0,0.0,0.0,0.0,0.0,0.0,0.0,0.0,0.0,0.0,0.0,0.0,0.0,0.0,0.0,0.0,0.0,0.0,0.0,0.0,2.4648,2.5932,2.5683,2.3789,2.2225,2.0928,0.0,0.0,0.0,0.0,0.0,0.0,0.0,0.0,0.0,0.0,0.0,0.0,0.0,0.0,0.0,0.0,0.0,0.0,0.0,0.0,0.0,0.0,0.0,0.0,0.0,0.0,0.0,0.0,0.0,0.0,0.0,0.0,0.0,0.0,0.0,0.0,0.0,0.0,0.0,0.0,0.0,0.0,0.0,0.0,0.0,0.0,0.0,0.0,0.0,0.0,0.0,0.0,0.0,0.0,0.0,0.0,0.0,0.0,0.0,0.0,0.0,0.0,0.0,0.0,0.0,0.0,0.0,0.0,0.0,0.0,0.0,0.0,0.0,0.0,0.0,0.0,0.0,0.0,0.0,0.0,0.0,0.0,0.0,0.0,0.0,0.0,0.0,0.0,0.0,0.0,0.0,0.0,0.0,0.0,0.0,0.0,0.0,0.0,0.0,0.0,0.0,0.0,0.0,0.0,0.0,0.0,0.0,0.0,2.468,2.6754,2.8476,2.8665,2.7126,2.4693,2.2842,0.0,0.0,0.0,0.0,0.0,0.0,0.0,0.0,0.0,0.0,0.0,0.0,0.0,0.0,0.0,0.0,0.0,0.0,0.0,0.0,0.0,0.0,0.0,0.0,0.0,0.0,0.0,0.0,0.0,0.0,0.0,0.0,0.0,0.0,0.0,0.0,0.0,0.0,0.0,0.0,0.0,0.0,0.0,0.0,0.0,0.0,0.0,0.0,0.0,0.0,0.0,0.0,0.0,0.0,0.0,0.0,0.0,0.0,0.0,0.0,0.0,0.0,0.0,0.0,0.0,0.0,0.0,0.0,0.0,0.0,0.0,0.0,0.0,0.0,0.0,0.0,0.0,0.0,0.0,0.0,0.0,0.0,0.0,0.0,0.0,0.0,0.0,0.0,0.0,0.0,0.0,0.0,0.0,0.0,0.0,0.0,0.0,0.0,0.0,0.0,0.0,0.0,0.0,0.0,0.0,0.0,0.0,0.0,2.5998,2.8505,3.0272,3.1093,3.0852,2.7709,2.511,0.0,0.0,0.0,0.0,0.0,0.0,0.0,0.0,0.0,0.0,0.0,0.0,0.0,0.0,0.0,0.0,0.0,0.0,0.0,0.0,0.0,0.0,0.0,0.0,0.0,0.0,0.0,0.0,0.0,0.0,0.0,0.0,0.0,0.0,0.0,0.0,0.0,0.0,0.0,0.0,0.0,0.0,0.0,0.0,0.0,0.0,0.0,0.0,0.0,0.0,0.0,0.0,0.0,0.0,0.0,0.0,0.0,0.0,0.0,0.0,0.0,0.0,0.0,0.0,0.0,0.0,0.0,0.0,0.0,0.0,0.0,0.0,0.0,0.0,0.0,0.0,0.0,0.0,0.0,0.0,0.0,0.0,0.0,0.0,0.0,0.0,0.0,0.0,0.0,0.0,0.0,0.0,0.0,0.0,0.0,0.0,0.0,0.0,0.0,0.0,0.0,0.0,0.0,0.0,0.0,0.0,0.0,0.0,2.8323,3.0211,3.1945,3.2539,3.1831,2.9163,2.6608,0.0,0.0,0.0,0.0,0.0,0.0,0.0,0.0,0.0,0.0,0.0,0.0,0.0,0.0,0.0,0.0,0.0,0.0,0.0,0.0,0.0,0.0,0.0,0.0,0.0,0.0,0.0,0.0,0.0,0.0,0.0,0.0,0.0,0.0,0.0,0.0,0.0,0.0,0.0,0.0,0.0,0.0,0.0,0.0,0.0,0.0,0.0,0.0,1.5021,0.0,0.0,0.0,0.0,0.0,0.0,0.0,0.0,0.0,0.0,0.0,0.0,0.0,0.0,0.0,0.0,0.0,0.0,0.0,0.0,0.0,0.0,0.0,0.0,0.0,0.0,0.0,0.0,0.0,0.0,0.0,0.0,0.0,0.0,0.0,0.0,0.0,0.0,0.0,0.0,0.0,0.0,0.0,0.0,0.0,0.0,0.0,0.0,0.0,0.0,0.0,0.0,0.0,0.0,0.0,0.0,0.0,0.0,0.0,2.9445,3.1952,3.3301,3.3783,3.3242,3.0817,2.8068,0.0,0.0,0.0,0.0,0.0,0.0,0.0,0.0,0.0,0.0,0.0,0.0,0.0,0.0,0.0,0.0,0.0,0.0,0.0,0.0,0.0,0.0,0.0,0.0,0.0,0.0,0.0,0.0,0.0,0.0,0.0,0.0,0.0,0.0,0.0,0.0,0.0,0.0,0.0,0.0,0.0,0.0,0.0,0.0,0.0,0.0,0.0,0.0,0.0,0.0,0.0,0.0,0.0,0.0,0.0,0.0,0.0,0.0,0.0,0.0,0.0,0.0,0.0,0.0,0.0,0.0,0.0,0.0,0.0,0.0,0.0,0.0,0.0,0.0,0.0,0.0,0.0,0.0,0.0,0.0,0.0,0.0,0.0,0.0,0.0,0.0,0.0,0.0,0.0,0.0,0.0,0.0,0.0,0.0,0.0,0.0,0.0,0.0,0.0,0.0,0.0,0.0,0.0,0.0,0.0,0.0,0.0,2.7246,3.0214,3.3453,3.4417,3.4824,3.4677,3.2148,2.9212,2.5825,0.0,0.0,0.0,0.0,0.0,0.0,0.0,0.0,0.0,0.0,0.0,0.0,0.0,0.0,0.0,0.0,0.0,0.0,0.0,0.0,0.0,0.0,0.0,0.0,0.0,0.0,0.0,0.0,0.0,0.0,0.0,0.0,0.0,0.0,0.0,0.0,0.0,0.0,1.4069,1.5525,0.0,0.0,0.0,0.0,0.0,0.0,0.0,0.0,1.5814,0.0,0.0,0.0,0.0,0.0,0.0,0.0,0.0,0.0,0.0,0.0,0.0,0.0,0.0,0.0,0.0,0.0,0.0,0.0,0.0,0.0,0.0,0.0,0.0,0.0,0.0,0.0,0.0,0.0,0.0,0.0,0.0,0.0,0.0,0.0,0.0,0.0,0.0,0.0,0.0,0.0,0.0,0.0,0.0,0.0,0.0,0.0,0.0,0.0,0.0,0.0,0.0,0.0,0.0,0.0,0.0,2.5381,2.8701,3.1674,3.4335,3.5258,3.5397,3.4673,3.2183,2.918,2.5812,0.0,0.0,0.0,0.0,0.0,0.0,0.0,0.0,0.0,0.0,0.0,0.0,0.0,0.0,0.0,0.0,0.0,0.0,0.0,0.0,0.0,0.0,0.0,0.0,0.0,0.0,0.0,0.0,0.0,0.0,0.0,0.0,0.0,0.0,0.0,0.0,0.0,0.0,0.0,1.6736,1.7375,0.0,0.0,0.0,0.0,0.0,0.0,0.0,0.0,1.7085,0.0,0.0,0.0,0.0,0.0,0.0,0.0,0.0,0.0,0.0,0.0,0.0,0.0,0.0,0.0,0.0,0.0,0.0,0.0,0.0,0.0,0.0,0.0,0.0,0.0,0.0,0.0,0.0,0.0,0.0,0.0,0.0,0.0,0.0,0.0,0.0,0.0,0.0,0.0,0.0,0.0,0.0,0.0,0.0,0.0,0.0,0.0,0.0,0.0,0.0,0.0,0.0,0.0,0.0,0.0,2.561,2.9,3.2202,3.5137,3.5664,3.5729,3.5324,3.2409,2.9217,0.0,0.0,0.0,0.0,0.0,0.0,0.0,0.0,0.0,0.0,0.0,0.0,0.0,0.0,0.0,0.0,0.0,0.0,0.0,0.0,0.0,0.0,0.0,0.0,0.0,0.0,0.0,0.0,0.0,0.0,0.0,0.0,0.0,0.0,0.0,0.0,0.0,0.0,0.0,0.0,1.7814,1.8909,1.8902,0.0,0.0,0.0,0.0,0.0,0.0,1.9103,1.8668,0.0,0.0,0.0,0.0,0.0,0.0,0.0,0.0,0.0,0.0,0.0,0.0,0.0,0.0,0.0,0.0,0.0,0.0,0.0,0.0,0.0,0.0,0.0,0.0,0.0,0.0,0.0,0.0,0.0,0.0,0.0,0.0,0.0,0.0,0.0,0.0,0.0,0.0,0.0,0.0,0.0,0.0,0.0,0.0,0.0,0.0,0.0,0.0,0.0,0.0,0.0,0.0,0.0,0.0,0.0,2.5862,2.9213,3.2453,3.5467,3.5797,3.5821,3.5654,3.2513,2.921,0.0,0.0,0.0,0.0,0.0,0.0,0.0,0.0,0.0,0.0,0.0,0.0,0.0,0.0,0.0,0.0,0.0,0.0,0.0,0.0,0.0,0.0,0.0,0.0,0.0,0.0,0.0,0.0,0.0,0.0,0.0,0.0,0.0,0.0,0.0,0.0,0.0,0.0,0.0,0.0,0.0,2.0496,2.0835,2.2002,0.0,0.0,0.0,0.0,2.2051,2.1344,0.0,0.0,0.0,0.0,0.0,0.0,0.0,0.0,0.0,0.0,0.0,0.0,0.0,0.0,0.0,0.0,0.0,0.0,0.0,0.0,0.0,0.0,0.0,0.0,0.0,0.0,0.0,0.0,0.0,0.0,0.0,0.0,0.0,0.0,0.0,0.0,0.0,0.0,0.0,0.0,0.0,0.0,0.0,0.0,0.0,0.0,0.0,0.0,0.0,0.0,0.0,0.0,0.0,0.0,0.0,0.0,2.6689,3.0102,3.2764,3.4561,3.5498,3.5527,3.476,3.2178,2.9196,0.0,0.0,0.0,0.0,0.0,0.0,0.0,0.0,0.0,0.0,0.0,0.0,0.0,0.0,0.0,0.0,0.0,0.0,0.0,0.0,0.0,0.0,0.0,0.0,0.0,0.0,0.0,0.0,0.0,0.0,0.0,0.0,0.0,0.0,0.0,0.0,0.0,0.0,0.0,0.0,0.0,2.1845,2.3263,2.3596,2.4012,0.0,0.0,2.4683,2.4645,2.3935,0.0,0.0,0.0,0.0,0.0,0.0,0.0,0.0,0.0,0.0,0.0,0.0,0.0,0.0,0.0,0.0,0.0,0.0,0.0,0.0,0.0,0.0,0.0,0.0,0.0,0.0,0.0,0.0,0.0,0.0,0.0,0.0,0.0,0.0,0.0,0.0,0.0,0.0,0.0,0.0,0.0,0.0,0.0,0.0,0.0,0.0,0.0,0.0,0.0,0.0,0.0,0.0,0.0,0.0,0.0,2.4939,2.747,3.0439,3.303,3.5166,3.5653,3.545,3.4637,3.2123,2.9181,0.0,0.0,0.0,0.0,0.0,0.0,0.0,0.0,0.0,0.0,0.0,0.0,0.0,0.0,0.0,0.0,0.0,0.0,0.0,0.0,0.0,0.0,0.0,0.0,0.0,0.0,0.0,0.0,0.0,0.0,0.0,0.0,0.0,0.0,0.0,0.0,0.0,0.0,0.0,0.0,0.0,0.0,2.5249,2.6228,0.0,0.0,0.0,2.7306,2.7309,0.0,0.0,0.0,0.0,0.0,0.0,0.0,0.0,0.0,0.0,0.0,0.0,0.0,0.0,0.0,0.0,0.0,0.0,0.0,0.0,0.0,0.0,0.0,0.0,0.0,0.0,0.0,0.0,0.0,0.0,0.0,0.0,0.0,0.0,0.0,0.0,0.0,0.0,0.0,0.0,0.0,0.0,0.0,0.0,0.0,0.0,0.0,0.0,0.0,0.0,0.0,0.0,0.0,0.0,0.0,0.0,0.0,2.8272,3.0882,3.3286,3.5361,3.5642,3.5288,3.4263,3.1983,0.0,0.0,0.0,0.0,0.0,0.0,0.0,0.0,0.0,0.0,0.0,0.0,0.0,0.0,0.0,0.0,0.0,0.0,0.0,0.0,0.0,0.0,0.0,0.0,0.0,0.0,0.0,1.4891,0.0,0.0,0.0,0.0,0.0,0.0,0.0,0.0,0.0,0.0,0.0,0.0,0.0,0.0,2.6084,2.7393,2.8942,2.9994,0.0,0.0,3.0212,3.0018,2.9187,2.8105,0.0,0.0,0.0,0.0,0.0,0.0,0.0,0.0,0.0,0.0,0.0,0.0,0.0,0.0,0.0,0.0,0.0,0.0,0.0,0.0,0.0,0.0,0.0,0.0,0.0,0.0,0.0,0.0,0.0,0.0,0.0,0.0,0.0,0.0,0.0,0.0,0.0,0.0,0.0,0.0,0.0,0.0,0.0,0.0,0.0,0.0,0.0,0.0,0.0,0.0,0.0,0.0,0.0,0.0,2.6559,2.9101,3.17,3.3522,3.4484,3.5301,3.4958,3.3338,3.159,2.9135,0.0,0.0,0.0,0.0,0.0,0.0,0.0,0.0,0.0,0.0,0.0,0.0,0.0,0.0,0.0,0.0,0.0,0.0,0.0,0.0,0.0,0.0,0.0,0.0,0.0,0.0,0.0,0.0,0.0,0.0,0.0,0.0,0.0,0.0,0.0,0.0,0.0,0.0,0.0,0.0,0.0,2.746,2.9833,3.16,3.2709,0.0,3.3336,3.3582,3.2737,3.1861,3.0925,3.0093,0.0,0.0,0.0,0.0,0.0,0.0,0.0,0.0,0.0,0.0,0.0,0.0,0.0,0.0,0.0,0.0,0.0,0.0,0.0,0.0,0.0,0.0,0.0,0.0,0.0,0.0,0.0,0.0,0.0,0.0,0.0,0.0,0.0,0.0,0.0,0.0,0.0,0.0,0.0,0.0,0.0,0.0,0.0,0.0,0.0,0.0,0.0,0.0,0.0,0.0,0.0,0.0,0.0,2.7591,3.0615,3.2679,3.4417,3.5792,3.6223,3.5581,3.3984,3.2368,2.9923,0.0,0.0,0.0,0.0,0.0,0.0,0.0,0.0,0.0,0.0,0.0,0.0,0.0,0.0,0.0,0.0,0.0,0.0,0.0,0.0,0.0,0.0,0.0,0.0,0.0,0.0,0.0,0.0,1.8232,1.8744,1.8747,0.0,0.0,0.0,0.0,0.0,0.0,0.0,0.0,0.0,0.0,3.002,3.2529,3.3906,0.0,0.0,3.5598,3.5528,3.4613,3.3746,3.2697,3.1312,3.0049,0.0,0.0,0.0,0.0,0.0,0.0,0.0,0.0,0.0,0.0,0.0,0.0,0.0,0.0,0.0,0.0,0.0,0.0,0.0,0.0,0.0,0.0,0.0,0.0,0.0,0.0,0.0,0.0,0.0,0.0,0.0,0.0,0.0,0.0,0.0,0.0,0.0,0.0,0.0,0.0,0.0,0.0,0.0,0.0,0.0,0.0,0.0,0.0,0.0,0.0,0.0,0.0,2.841,3.1546,3.3472,3.5207,3.6748,3.6781,3.6104,3.4752,3.2928,3.0457,0.0,0.0,0.0,0.0,0.0,0.0,0.0,0.0,0.0,0.0,0.0,0.0,0.0,0.0,0.0,0.0,0.0,0.0,0.0,0.0,0.0,0.0,0.0,0.0,0.0,0.0,0.0,0.0,1.9779,2.0445,2.0443,0.0,0.0,0.0,0.0,0.0,0.0,0.0,0.0,0.0,0.0,3.2479,3.4495,3.5989,3.6975,3.7262,3.7466,3.732,3.6469,3.5563,3.4478,3.3,0.0,0.0,0.0,0.0,0.0,0.0,0.0,0.0,0.0,0.0,0.0,0.0,0.0,0.0,0.0,0.0,0.0,0.0,0.0,0.0,0.0,0.0,0.0,0.0,0.0,0.0,0.0,2.5412,0.0,0.0,2.4112,0.0,0.0,0.0,0.0,0.0,0.0,0.0,0.0,0.0,0.0,0.0,0.0,0.0,0.0,0.0,0.0,0.0,0.0,0.0,0.0,0.0,0.0,2.8983,3.151,3.4028,3.5752,3.6722,3.6716,3.6342,3.5473,3.3094,3.0647,2.8101,0.0,0.0,0.0,0.0,0.0,0.0,0.0,0.0,0.0,0.0,0.0,0.0,0.0,0.0,0.0,0.0,0.0,0.0,0.0,0.0,0.0,0.0,0.0,0.0,0.0,0.0,2.046,2.2021,2.2957,0.0,0.0,0.0,0.0,0.0,0.0,0.0,0.0,0.0,3.0346,3.2848,3.473,3.5606,3.7848,3.9164,3.8422,3.8944,3.9154,3.8268,3.7355,3.645,0.0,0.0,0.0,0.0,0.0,0.0,0.0,0.0,0.0,0.0,0.0,0.0,0.0,0.0,0.0,0.0,0.0,0.0,0.0,0.0,0.0,0.0,0.0,0.0,0.0,0.0,0.0,2.8829,2.8786,0.0,0.0,0.0,0.0,0.0,0.0,0.0,0.0,0.0,0.0,0.0,3.4358,3.4388,0.0,0.0,0.0,0.0,0.0,0.0,0.0,0.0,0.0,0.0,0.0,0.0,3.0894,3.3872,3.5372,3.682,3.8213,3.7747,3.7068,3.6287,3.3901,3.0931,2.7372,0.0,0.0,0.0,0.0,0.0,0.0,0.0,0.0,0.0,0.0,0.0,0.0,0.0,0.0,0.0,0.0,0.0,0.0,0.0,0.0,0.0,0.0,0.0,0.0,0.0,2.1953,0.0,0.0,0.0,0.0,0.0,0.0,0.0,0.0,0.0,0.0,2.8583,3.0438,3.2949,3.4535,3.6124,3.8099,3.9095,3.974,0.0,0.0,0.0,0.0,0.0,0.0,0.0,0.0,0.0,0.0,0.0,0.0,0.0,0.0,3.306,2.9955,2.9351,2.9473,3.0017,0.0,0.0,0.0,0.0,0.0,0.0,0.0,0.0,0.0,0.0,0.0,0.0,0.0,0.0,3.2931,3.2623,3.2341,0.0,0.0,0.0,0.0,0.0,0.0,0.0,0.0,3.6192,3.7287,3.7818,3.7818,3.7822,3.7818,3.7822,3.6256,0.0,0.0,0.0,0.0,0.0,0.0,0.0,0.0,3.2749,3.5148,3.6634,3.7916,3.8984,3.8525,3.7877,3.7045,3.4141,3.1141,2.8156,2.6726,2.5367,0.0,0.0,0.0,0.0,0.0,0.0,0.0,0.0,0.0,0.0,0.0,0.0,0.0,0.0,0.0,0.0,0.0,0.0,0.0,0.0,0.0,0.0,0.0,2.4452,0.0,0.0,0.0,0.0,0.0,0.0,0.0,0.0,0.0,2.9134,3.087,3.2879,3.4772,3.6322,3.7831,3.9488,0.0,0.0,0.0,0.0,0.0,0.0,0.0,3.9339,3.8806,3.7926,3.7311,3.7304,3.725,3.7017,3.6478,0.0,0.0,3.2701,3.2004,3.2159,3.2634,3.3375,3.411,3.4603,3.5403,3.6266,0.0,0.0,0.0,0.0,3.5612,0.0,0.0,0.0,3.8028,3.7575,0.0,3.5999,0.0,0.0,0.0,0.0,3.4316,3.6655,0.0,0.0,3.9618,4.0454,4.0492,4.053,4.0492,4.0458,4.0458,3.9962,3.893,3.5806,0.0,0.0,0.0,0.0,0.0,0.0,3.4507,3.5415,3.7746,3.9007,3.9049,3.909,3.8652,3.7627,3.3848,3.1391,3.0409,2.8154,2.6538,2.5644,2.4892,0.0,0.0,0.0,0.0,0.0,0.0,0.0,0.0,0.0,0.0,0.0,0.0,0.0,0.0,0.0,0.0,0.0,0.0,0.0,0.0,2.6049,0.0,0.0,0.0,0.0,0.0,0.0,0.0,0.0,0.0,3.1906,3.1148,3.3157,3.5048,3.5932,0.0,0.0,0.0,0.0,4.0978,4.0912,4.0907,4.0898,4.0871,4.0209,3.9699,3.9715,0.0,0.0,3.8394,3.8347,3.8321,3.8279,3.8334,3.7643,3.6005,3.5496,3.5389,3.5427,3.6106,3.6629,3.6662,3.7425,3.8213,4.7322,0.0,0.0,0.0,0.0,4.076,4.1029,4.1485,4.1489,4.1331,4.1067,4.019,0.0,0.0,0.0,0.0,0.0,0.0,4.0774,4.138,4.2445,4.3586,4.4704,4.4737,4.4432,4.3864,4.3864,4.31,4.1686,4.0124,3.8018,3.545,0.0,0.0,0.0,0.0,3.6485,3.7861,3.8629,3.9312,3.9924,3.9326,3.8048,3.6054,3.4344,3.2737,3.128,3.0062,2.8992,2.8179,2.7422,0.0,0.0,0.0,0.0,0.0,0.0,0.0,0.0,0.0,0.0,0.0,0.0,0.0,0.0,0.0,0.0,0.0,0.0,0.0,2.7088,2.7635,2.7951,0.0,0.0,0.0,0.0,0.0,0.0,0.0,0.0,0.0,3.4561,3.5129,3.6395,0.0,0.0,3.9966,4.0528,4.0861,4.0999,4.0978,4.0921,0.0,4.0898,4.1209,4.1434,4.1445,4.169,4.1898,4.1922,4.1876,4.1796,4.1796,4.171,4.1474,4.0912,3.93,3.8119,3.8111,3.9146,4.0102,4.0161,4.0783,4.1351,5.4326,5.0095,4.7072,4.5656,4.5355,4.5355,4.5546,4.5847,4.5847,4.5661,4.5316,4.4436,4.3584,4.2723,4.192,0.0,0.0,0.0,4.3787,4.4322,4.5119,4.6031,4.6953,4.703,4.6751,4.6238,4.6238,4.5382,4.371,4.3176,4.1589,3.897,0.0,3.6791,3.6982,3.7321,3.8166,3.9465,3.9503,3.9924,4.0731,3.9623,3.8103,3.6336,3.517,3.3931,3.2583,3.1818,3.0976,3.0207,2.973,2.9005,0.0,0.0,0.0,0.0,0.0,0.0,0.0,0.0,0.0,0.0,0.0,2.6053,2.6407,0.0,0.0,0.0,2.8823,2.9218,2.9774,3.0125,0.0,0.0,0.0,0.0,0.0,0.0,0.0,3.3631,3.5625,3.7147,3.7494,3.7829,3.8471,3.9664,4.0378,4.0974,4.1427,0.0,4.2004,4.1984,4.1966,4.1917,4.1915,4.2384,4.2687,4.2695,4.3059,4.3382,4.337,4.3324,4.3295,4.3282,4.3213,4.3139,4.3139,4.2016,4.1016,4.073,4.1417,4.2071,4.2109,4.2498,4.2924,5.9109,5.7886,5.3187,5.0588,4.9601,4.9601,5.0021,5.0703,5.0697,5.0245,4.9448,4.8563,4.7679,4.6762,4.6009,0.0,4.5741,4.6462,4.6839,4.6959,4.7717,4.8138,4.8214,4.8132,4.8027,4.7894,4.7855,4.6944,4.5358,4.5314,4.4472,4.2855,4.0616,3.9002,3.8213,3.8897,3.9699,4.0497,4.0497,4.084,4.1461,3.9928,3.8706,3.7831,3.6259,3.5013,3.424,3.3426,3.2617,3.185,3.182,3.1061,2.9594,0.0,0.0,0.0,0.0,0.0,0.0,0.0,0.0,0.0,0.0,0.0,0.0,0.0,0.0,0.0,3.175,0.0,3.2194,3.2937,0.0,0.0,0.0,3.3615,3.362,3.5149,3.6207,3.621,0.0,0.0,3.9798,4.0638,4.0889,4.0099,4.1385,4.2397,4.242,4.302,4.3498,4.3396,4.3466,4.3464,4.3308,4.3459,4.3604,4.3655,4.3596,4.3651,4.362,4.3589,4.3524,4.3602,4.3466,4.345,4.3412,4.3878,4.4197,4.3427,4.3183,4.3113,4.319,4.3219,4.3478,6.3045,6.1547,5.9682,5.6969,5.3951,5.3913,5.4021,5.4174,5.4174,5.3722,5.2843,5.197,5.0779,4.9366,4.9213,4.9098,4.9137,4.9322,4.9742,5.0392,5.0583,5.1041,5.1582,5.0965,5.0324,4.9583,4.8999,4.8125,4.7038,4.7,4.6191,4.4642,4.4009,4.3011,4.1648,4.18,4.1991,4.2216,4.2221,4.1953,4.15,4.0501,3.958,3.8706,3.7067,3.6111,3.5882,3.4515,3.3658,3.3424,3.2927,3.243,3.2042,3.2048,0.0,0.0,0.0,0.0,0.0,0.0,0.0,0.0,0.0,3.1184,3.1395,0.0,3.2496,0.0,3.2985,3.3074,3.3084,3.3286,0.0,0.0,3.4593,3.5378,3.5379,3.6909,3.7968,3.7969,3.8904,3.96,3.9826,4.1087,4.1956,4.1745,4.2617,4.3292,4.3313,4.3368,4.35,4.351,4.3526,4.3435,4.351,4.4001,4.4608,4.5222,4.5291,4.5285,4.5279,4.5289,4.5267,4.5299,4.5244,4.519,4.5113,4.5255,4.5552,4.5812,4.5383,4.489,4.489,4.482,4.4868,6.5528,6.3954,6.3503,6.1516,5.8644,5.7536,5.7039,5.7039,5.6657,5.6243,5.5747,5.4868,5.3575,5.204,5.2002,5.1773,5.1429,5.1391,5.164,5.2068,5.2106,5.2323,5.2673,5.2253,5.1758,5.1205,5.0399,4.9524,4.8631,4.8289,4.7446,4.6239,4.6206,4.5605,4.4395,4.3357,4.2985,4.3324,4.3324,4.2904,4.2106,4.1266,4.042,3.958,3.8319,3.744,3.7063,3.6162,3.5639,3.5639,3.5274,3.4886,3.4534,3.4536,3.4389,0.0,0.0,0.0,0.0,0.0,0.0,0.0,0.0,0.0,0.0,0.0,3.463,3.5043,3.5091,3.5257,3.5622,3.5672,3.568,3.5724,3.6592,3.7144,3.7145,3.832,3.914,3.9138,3.9872,4.0523,4.0899,4.2079,4.3025,4.3396,4.4188,4.4554,4.423,4.4394,4.4595,4.4621,4.4553,4.4533,4.4494,4.4906,4.5359,4.5776,4.589,4.6,4.6371,4.6428,4.6531,4.6915,4.6946,4.6901,4.6874,4.6838,4.7032,4.7315,4.7096,4.6758,4.6674,4.6642,4.6623,6.7178,6.5841,6.5612,6.4688,6.316,6.0755,5.9616,5.937,5.8574,5.8154,5.8001,5.7167,5.5944,5.46,5.4435,5.4015,5.3289,5.3174,5.3054,5.2997,5.299,5.2989,5.2878,5.2764,5.2692,5.2617,5.182,5.0944,5.001,4.9328,4.8528,4.7682,4.765,4.7262,4.6492,4.4385,4.3538,4.4164,4.4159,4.3777,4.2947,4.2221,4.138,4.0497,3.9618,3.8744,3.7903,3.775,3.7678,3.7678,3.7751,3.7462,3.6688,3.6725,3.645,0.0,3.6418,0.0,0.0,0.0,0.0,0.0,0.0,0.0,0.0,3.6213,3.6546,3.7315,3.7362,3.7683,3.844,3.853,3.8538,3.8583,3.8707,3.875,3.8789,3.9566,4.0145,4.0139,4.0904,4.1706,4.2355,4.3224,4.4051,4.4694,4.5436,4.568,4.517,4.5484,4.5842,4.5991,4.5926,4.5705,4.5741,4.5932,4.6038,4.6051,4.6277,4.646,4.7168,4.7273,4.7505,4.8159,4.8253,4.8222,4.8296,4.8264,4.8278,4.8424,4.8377,4.8274,4.8055,4.7994,4.8105,6.8524,6.8105,6.6763,6.6031,6.5574,6.3785,6.2262,6.1058,6.0262,5.9536,5.8835,5.8039,5.7466,5.7122,5.6375,5.5966,5.5738,5.5029,5.4652,5.4645,5.4638,5.4604,5.4489,5.3798,5.3424,5.3248,5.2483,5.1615,5.071,5.0552,4.9764,4.8366,4.8381,4.8029,4.7269,0.0,0.0,0.0,4.5053,4.4628,4.382,4.3624,4.2789,4.1342,4.0497,0.0,3.8782,3.8099,3.7678,3.7678,3.7721,0.0,0.0,0.0,0.0,0.0,0.0,0.0,0.0,0.0,0.0,0.0,3.9674,3.9347,3.8054,3.7986,3.809,3.8253,3.8239,3.8332,3.8491,3.8542,3.8588,3.863,3.9257,3.9648,3.9605,4.0962,4.1888,4.1918,4.2589,4.3146,4.3374,4.4071,4.4619,4.4845,4.5541,4.5936,4.5778,4.5883,4.5989,4.5923,4.5967,4.5896,4.5831,4.6447,4.6872,4.6936,4.7516,4.7896,4.8124,4.8159,4.8159,4.8469,4.8388,4.8408,4.8342,4.8326,4.8581,4.9131,4.9277,4.9076,4.8403,4.8287,4.8244,6.9091,6.8635,6.7373,6.6614,0.0,6.4449,6.3117,6.1987,6.1232,6.0408,5.9562,5.9143,5.8768,5.8349,5.7437,5.6806,5.6432,5.5479,5.5042,5.5,5.4963,5.4905,5.483,5.433,5.4072,5.3948,5.3109,5.2459,5.1967,5.1224,5.0433,4.964,4.9339,4.8822,4.8054,4.7332,4.6405,4.5279,4.524,4.5022,4.4623,4.4202,4.3586,4.2712,4.1528,0.0,0.0,0.0,0.0,0.0,0.0,0.0,0.0,3.8968,0.0,3.9043,3.9104,3.9132,3.9204,3.9708,4.0085,4.014,4.1024,4.0896,3.9211,3.8707,3.8696,3.9098,3.9154,3.9321,3.9717,3.9801,3.9999,4.043,4.0857,4.128,4.1701,4.2464,4.299,4.3014,4.3336,4.3736,4.4145,4.4507,4.4978,4.5305,4.5745,4.5986,4.5956,4.595,4.6054,4.6406,4.6464,4.6637,4.7045,4.7389,4.7738,4.7815,4.8121,4.8546,4.8972,4.9049,4.9165,4.9509,4.9626,4.9618,4.9602,4.9595,4.9707,5.0077,5.0185,5.0107,4.964,4.9572,4.9547,6.9445,6.8612,6.777,6.6938,6.6068,6.461,6.3384,6.2387,6.1558,0.0,0.0,6.0076,5.9733,5.9041,5.8144,5.7338,5.6532,5.5563,5.5034,5.4814,5.4767,5.4689,5.4608,5.4497,5.4455,5.4401,5.3641,5.3215,5.3036,5.1797,5.101,5.0725,5.0229,4.9521,4.8633,4.8068,4.7064,4.5692,4.548,4.5361,4.5262,4.4569,4.4154,4.4006,4.2636,4.1882,4.1729,4.1108,4.0726,4.0726,4.0726,4.0721,4.0764,4.0721,4.0764,4.0731,4.0818,4.0854,4.0866,4.1022,4.1161,4.1277,4.2035,4.1857,4.0375,3.9742,3.9729,4.045,4.0496,4.0776,4.1483,4.1562,4.1835,4.2535,4.2639,4.2898,4.3554,4.3802,4.3851,4.383,4.4003,4.4288,4.4919,4.5063,4.5237,4.5814,4.5953,4.6043,4.61,4.6199,4.6386,4.6897,4.7164,4.7583,4.8159,4.8546,4.8624,4.8624,4.8778,4.9126,4.9707,4.9896,5.0167,5.067,5.0906,5.0836,5.0875,5.0805,5.0921,5.0921,5.096,5.096,5.0956,5.0874,5.0795,6.9826,6.9047,6.8161,6.7334,6.6527,6.5695,6.4134,6.2082,6.0833,6.0205,6.0084,6.006,5.9961,5.9793,5.8824,5.7927,5.7116,5.6077,5.5241,5.4563,5.451,5.438,5.4248,5.4231,5.4224,5.4163,5.3995,5.3612,5.2968,5.2715,5.1901,5.0663,5.0539,4.9936,4.8703,4.851,4.8015,4.7162,4.6537,4.591,4.5246,4.5094,4.4695,4.4045,4.3777,4.3324,4.2641,4.2488,4.2445,4.2445,4.245,4.2445,4.245,4.2407,4.245,4.2455,4.2512,4.2589,4.2603,4.2764,4.2908,4.3123,4.3323,4.3005,4.2073,4.2572,4.3025,4.3156,4.3045,4.3203,4.3358,4.3275,4.3306,4.3493,4.3521,4.3579,4.3701,4.4311,4.4683,4.4649,4.5287,4.5701,4.5767,4.5787,4.5802,4.5961,4.5974,4.6125,4.6689,4.6932,4.6971,4.7157,4.7734,4.8198,4.8585,4.9088,4.9436,4.9509,5.0051,5.0403,5.0596,5.0639,5.0716,5.0863,5.0933,5.0955,5.0959,5.1023,5.103,5.1034,5.1034,5.1037,5.1034,5.1023,5.1051,7.0016,6.9529,6.8294,6.7283,6.6406,6.4776,6.3496,6.2362,6.0927,6.0148,5.9815,5.9811,5.977,5.9652,5.8773,5.8101,5.7673,5.6697,5.5783,5.4951,5.4863,5.4539,5.3991,5.3907,5.3861,5.3823,5.3766,5.3589,5.3208,5.2847,5.227,5.156,5.0946,5.0302,4.9814,4.9383,4.8812,4.8116,4.7353,4.6619,4.5873,4.584,4.5486,4.4743,4.4274,4.382,4.3477,4.3023,4.2794,4.2794,4.2794,4.2794,4.2794,4.2794,4.277,4.28,4.2876,4.2961,4.3051,4.3247,4.3389,4.355,4.4042,4.4188,4.3808,4.3699,4.3705,4.371,4.371,4.3704,4.3698,4.3688,4.3869,4.432,4.4344,4.4518,4.4919,4.5253,4.5546,4.5557,4.5852,4.6076,4.6059,4.6007,4.5989,4.5997,4.5956,4.6255,4.7073,4.7555,4.8005,4.843,4.8856,4.9281,4.9668,5.0051,5.0322,5.036,5.0689,5.0937,5.0979,5.099,5.1005,5.1005,5.1023,5.1034,5.1037,5.1087,5.1097,5.1101,5.1101,5.1101,5.1101,5.1072,5.1079,7.0076,6.9778,6.8336,6.7167,6.612,6.4097,6.3019,6.2575,6.1422,6.0425,5.9711,5.9558,5.9483,5.9373,5.8679,5.824,5.7894,5.7201,5.6322,5.551,5.5377,5.4946,5.4311,5.4158,5.4128,5.4081,5.389,5.3776,5.3676,5.2996,5.2621,5.2466,5.1332,5.0787,5.101,5.0424,4.9785,4.9101,4.8537,4.7732,4.6704,4.6481,4.6101,4.5562,4.4722,4.4263,4.4241,4.3711,4.3367,4.3367,4.3367,4.3372,4.3367,4.3367,4.3392,4.3407,4.3431,4.3551,4.3728,4.3962,4.411,4.4185,4.4859,4.5269,4.5234,4.4648,4.4296,4.4295,4.4325,4.431,4.4337,4.4325,4.4503,4.5102,4.5197,4.5373,4.5935,4.6072,4.6049,4.6061,4.6059,4.6054,4.5997,4.5997,4.5989,4.5997,4.6102,4.6529,4.7375,4.8203,4.904,4.9733,4.9996,5.019,5.0848,5.089,5.0933,5.0968,5.0994,5.1016,5.1023,5.108,5.1094,5.1094,5.1104,5.1072,5.1072,5.1121,5.1127,5.1131,5.1131,5.1124,5.1131,5.1108,5.1114,7.0069,6.9279,6.843,6.7185,6.5813,6.4811,6.3608,6.2446,6.216,6.1278,5.9901,5.9427,5.9253,5.9187,5.8927,5.839,5.769,5.7377,5.6803,5.6078,5.5891,5.5792,5.5644,5.5623,5.5697,5.5549,5.4901,5.4548,5.4521,5.3776,5.3119,5.2587,5.1667,5.14,5.1624,5.162,5.126,5.0606,5.0553,4.9485,4.7479,4.67,4.6303,4.6303,4.5508,4.5115,4.5163,4.5092,4.5053,4.5092,4.5015,4.5053,4.5015,4.5053,4.5079,4.5102,4.5194,4.5376,4.5599,4.5801,4.5827,4.5966,4.5969,4.6054,4.6127,4.6027,4.5975,4.5947,4.5943,4.5848,4.5979,4.5883,4.5827,4.5844,4.5898,4.5987,4.5988,4.601,4.5986,4.5929,4.6,4.6003,4.6011,4.5986,4.6027,4.6161,4.6628,4.7295,4.826,4.899,4.9843,5.0615,5.0907,5.09,5.1073,5.1087,5.1076,5.108,5.1087,5.1094,5.1097,5.1101,5.1101,5.1124,5.1092,5.1108,5.1118,5.113,5.1187,5.1178,5.1181,5.1187,5.119,5.119,5.1181,7.0323,6.9866,6.8624,6.7184,6.5718,6.4818,6.3844,6.2817,6.2336,6.1485,6.0433,5.9722,5.9185,5.8801,5.8698,5.8439,5.8079,5.7984,5.7465,5.6688,5.6561,5.6259,5.5764,5.5716,5.5716,5.5716,5.5385,5.5237,5.5101,5.4454,5.3726,5.2993,5.2287,5.2076,5.224,5.1854,5.1527,5.1364,5.0885,5.0206,4.9403,4.8254,4.7473,4.7067,4.6357,4.5927,4.5917,4.5534,4.5283,4.5283,4.5283,4.5283,4.5283,4.5283,4.5324,4.5414,4.5578,4.5775,4.5955,4.606,4.615,4.6197,4.625,4.6239,4.6258,4.6226,4.6203,4.6164,4.6159,4.6149,4.6135,4.6156,4.6134,4.6111,4.6088,4.6056,4.5983,4.6014,4.5964,4.5983,4.5967,4.6019,4.5986,4.5994,4.6227,4.6638,4.7117,4.7797,4.8994,4.9602,5.0141,5.0856,5.1082,5.1069,5.1104,5.1101,5.1101,5.1101,5.1079,5.1092,5.1095,5.115,5.116,5.116,5.1169,5.1139,5.1181,5.1187,5.1199,5.1199,5.1199,5.1199,5.1199,5.1199,5.1193,7.0572,7.0166,6.8668,6.7192,6.5852,6.5004,6.4193,6.337,6.2559,6.1748,6.0997,6.0407,5.9593,5.8736,5.8522,5.8389,5.8349,5.8316,5.7917,5.7324,5.7276,5.6912,5.6282,5.6235,5.6246,5.6246,5.6025,5.5805,5.5596,5.511,5.4391,5.366,5.3165,5.2924,5.278,5.2299,5.2046,5.199,5.1372,5.1062,5.0889,4.9829,4.8764,4.7915,4.7102,4.6686,4.6727,4.6255,4.5829,4.56,4.5616,4.5512,4.5321,4.5283,4.5345,4.5452,4.5692,4.5883,4.6004,4.6061,4.6138,4.6208,4.6245,4.6378,4.6503,4.6546,4.6633,4.6855,4.6804,4.6763,4.613,4.6115,4.6097,4.6071,4.6204,4.6335,4.6388,4.6538,4.6771,4.6687,4.6868,4.6706,4.6758,4.6841,4.7074,4.7574,4.7947,4.8316,4.9547,5.0037,5.0458,5.1011,5.1127,5.1118,5.1134,5.1134,5.1127,5.1131,5.1114,5.1127,5.113,5.1187,5.1199,5.1181,5.1196,5.1199,5.1193,5.1196,5.1199,5.1199,5.1202,5.1202,5.1199,5.1199,5.1199,7.0821,6.9917,6.8388,6.725,6.6392,6.5584,6.4813,6.3957,6.316,6.2316,6.1557,6.1447,6.0627,5.917,5.8646,5.8227,5.8215,5.8088,5.7994,5.7873,5.7909,5.7898,5.7898,5.7886,5.7813,5.7629,5.7042,5.6381,5.5695,5.5596,5.5173,5.446,5.437,5.4053,5.3528,5.341,5.3129,5.2605,5.241,5.2231,5.1728,5.0981,4.9898,4.8758,4.7795,4.741,4.7526,4.756,4.7213,4.638,4.6429,4.6118,4.543,4.5397,4.55,4.5692,4.5827,4.5992,4.6115,4.6274,4.6341,4.6365,4.6438,4.6605,4.7357,4.7396,4.7638,4.8448,4.8358,4.7793,4.6568,4.6445,4.6312,4.625,4.6818,4.719,4.7239,4.7827,4.835,4.8305,4.8227,4.8199,4.8438,4.8567,4.8443,4.8715,4.9301,4.9834,5.0,5.0617,5.1034,5.1133,5.1202,5.1199,5.1196,5.1181,5.1184,5.1184,5.1181,5.1193,5.1196,5.1199,5.1199,5.1199,5.1199,5.1199,5.1199,5.1199,5.1199,5.1202,5.1205,5.1205,5.1214,5.1205,5.1208,7.0536,6.9265,6.8178,6.7223,6.6512,6.6182,6.5338,6.4103,6.3772,6.2842,6.1753,6.1594,6.097,5.993,5.9732,5.9058,5.8139,5.802,5.7997,5.7997,5.7997,5.7997,5.7997,5.7997,5.7997,5.7923,5.7703,5.7152,5.6455,5.6381,5.5963,5.5357,5.5264,5.4923,5.4301,5.4216,5.3927,5.321,5.2712,5.2307,5.2122,5.144,5.0883,5.0529,4.9008,4.818,4.8232,4.7887,4.755,4.7245,4.7302,4.7182,4.6964,4.6995,4.7059,4.7206,4.7372,4.7549,4.7651,4.7773,4.7874,4.7891,4.7879,4.793,4.825,4.8303,4.8405,4.8668,4.8739,4.83,4.7979,4.7758,4.7777,4.7765,4.7942,4.8124,4.8155,4.8424,4.8574,4.8572,4.8598,4.8665,4.8802,4.8725,4.8919,4.9425,4.9817,5.0201,5.0656,5.104,5.119,5.1222,5.1219,5.1219,5.1219,5.122,5.1199,5.1199,5.1199,5.1202,5.1205,5.1205,5.1205,5.1208,5.1205,5.1199,5.1199,5.1199,5.1199,5.1208,5.1211,5.1225,5.1195,5.1197,5.12,7.0132,6.8862,6.8017,6.7407,6.688,6.6586,6.5742,6.4506,6.4213,6.3282,6.2144,6.1961,6.1557,6.086,6.0786,6.0089,5.8804,5.8547,5.8389,5.8364,5.8107,5.7997,5.7997,5.7997,5.7997,5.7997,5.7997,5.7703,5.7262,5.7178,5.6748,5.6062,5.6092,5.5683,5.5006,5.4949,5.4596,5.3863,5.3283,5.2964,5.272,5.2085,5.1795,5.1746,5.0455,4.9566,4.9377,4.8783,4.8322,4.8143,4.8169,4.8099,4.7843,4.7907,4.8019,4.8134,4.8296,4.8477,4.8582,4.8742,4.8767,4.8788,4.8785,4.8886,4.9138,4.921,4.9321,4.947,4.9584,4.9583,4.958,4.9565,4.934,4.8917,4.8892,4.9041,4.9047,4.9322,4.9487,4.9579,4.9625,4.9592,4.9557,4.9592,4.986,5.0397,5.0434,5.0702,5.111,5.1223,5.1218,5.1211,5.1206,5.1206,5.1203,5.1216,5.1203,5.12,5.1195,5.1228,5.1222,5.122,5.1217,5.1217,5.1211,5.1202,5.1199,5.1202,5.1205,5.1214,5.1228,5.1206,5.1219,5.1196,5.1229,6.9669,6.8825,6.8031,6.7664,6.748,6.688,6.6072,6.5191,6.4457,6.3649,6.2719,6.2719,6.2254,6.1704,6.1594,6.1153,6.0419,5.9673,5.9269,5.9159,5.8437,5.8107,5.8107,5.8033,5.7997,5.7997,5.7997,5.796,5.7886,5.785,5.7483,5.6921,5.6822,5.6404,5.5585,5.5618,5.5246,5.4622,5.4349,5.407,5.3528,5.2871,5.2577,5.2577,5.201,5.1478,5.0995,5.0415,4.9772,4.9111,4.9111,4.8716,4.8192,4.8175,4.813,4.8322,4.8408,4.8542,4.871,4.8939,4.9085,4.9082,4.8942,4.9375,4.9959,5.0113,5.0385,5.0892,5.1126,5.1203,5.1164,5.1124,5.0562,4.9169,4.9583,5.0017,5.0146,5.0732,5.1249,5.1114,5.1033,5.1265,5.1311,5.1105,5.105,5.1078,5.1149,5.1175,5.1263,5.1291,5.1278,5.1223,5.1223,5.123,5.122,5.1208,5.1208,5.1208,5.1201,5.1193,5.1224,5.1219,5.1211,5.1206,5.1225,5.122,5.1228,5.1228,5.1192,5.12,5.1214,5.1229,5.1245,5.1218,5.1247,6.9633,6.8825,6.8031,6.77,6.7664,6.7407,6.6586,6.5325,6.4995,6.415,6.2976,6.2793,6.2646,6.2462,6.2426,6.2279,6.1985,6.1227,6.0566,5.9979,5.9196,5.8792,5.8719,5.8253,5.7997,5.7997,5.7997,5.7997,5.7997,5.7997,5.785,5.7666,5.7593,5.7189,5.6492,5.6418,5.6037,5.5298,5.471,5.4327,5.4076,5.3463,5.3161,5.3216,5.2743,5.2439,5.2403,5.1946,5.1346,5.0602,5.0703,5.0388,4.9715,4.963,4.9723,4.9802,4.9971,5.0116,5.0237,5.0347,5.0392,5.0486,5.0514,5.0644,5.0885,5.0887,5.1006,5.1319,5.1319,5.1358,5.1319,5.1319,5.1015,5.0605,5.0792,5.0874,5.0843,5.1118,5.1276,5.1316,5.1347,5.138,5.1378,5.1408,5.1392,5.1383,5.133,5.1309,5.1298,5.132,5.131,5.1261,5.1258,5.1258,5.1258,5.1258,5.1258,5.125,5.1239,5.1227,5.122,5.1208,5.1201,5.1227,5.1208,5.1203,5.1211,5.1214,5.1216,5.1232,5.1249,5.1264,5.1275,5.1278,5.1273,6.9449,6.8421,6.7921,6.77,6.77,6.77,6.6966,6.5778,6.5398,6.4517,6.3417,6.2939,6.2793,6.2793,6.2793,6.2793,6.2756,6.2242,6.1777,6.1153,6.0114,5.9526,5.9159,5.84,5.7997,5.7997,5.7997,5.7997,5.7997,5.7997,5.796,5.796,5.7997,5.774,5.7288,5.7226,5.6859,5.6088,5.5574,5.5133,5.4825,5.4433,5.4164,5.3987,5.3728,5.3561,5.3507,5.3275,5.274,5.2006,5.1872,5.17,5.1232,5.1029,5.0911,5.0942,5.0856,5.079,5.0907,5.0936,5.1144,5.1222,5.1216,5.1236,5.1247,5.1252,5.1291,5.1252,5.1252,5.1249,5.1205,5.1203,5.1231,5.1225,5.1285,5.1327,5.1286,5.1285,5.1285,5.1325,5.1367,5.1405,5.1401,5.1393,5.1379,5.1407,5.1352,5.1331,5.1325,5.131,5.1344,5.134,5.134,5.134,5.1342,5.134,5.134,5.1328,5.1271,5.1258,5.1248,5.1273,5.1264,5.1208,5.1229,5.1227,5.1193,5.119,5.1196,5.1259,5.128,5.1287,5.1293,5.1304,5.1302,6.9229,6.7847,6.7774,6.7774,6.77,6.77,6.721,6.6402,6.5618,6.4824,6.398,6.3123,6.2793,6.2793,6.2793,6.2793,6.2793,6.2719,6.2646,6.2242,6.1251,6.0224,5.9196,5.8499,5.8143,5.7997,5.7997,5.7997,5.7997,5.7997,5.7997,5.7997,5.7997,5.7997,5.785,5.796,5.7556,5.6969,5.6748,5.6308,5.5695,5.5636,5.5412,5.479,5.4872,5.4707,5.4303,5.4209,5.3737,5.2715,5.2601,5.2577,5.2569,5.21,5.1731,5.1749,5.1177,5.1062,5.1022,5.132,5.1375,5.148,5.1477,5.12,5.1372,5.1372,5.1297,5.1144,5.1144,5.11,5.1081,5.1075,5.1034,5.1031,5.1136,5.1234,5.1273,5.1298,5.1261,5.1278,5.1336,5.1393,5.1403,5.1406,5.1401,5.1388,5.1377,5.1399,5.1386,5.1376,5.1375,5.137,5.1366,5.1364,5.1359,5.1359,5.1358,5.1353,5.134,5.1333,5.1283,5.131,5.13,5.1241,5.1223,5.1218,5.1215,5.1218,5.1227,5.1284,5.1297,5.1302,5.1308,5.1316,5.1318,7.0022,6.8605,6.8568,6.8238,6.7737,6.77,6.7247,6.6439,6.5668,6.4861,6.4016,6.316,6.2793,6.2793,6.2793,6.2793,6.2793,6.2793,6.2793,6.2756,6.2426,6.0994,5.9515,5.8976,5.8547,5.8107,5.7997,5.7997,5.7997,5.7997,5.7997,5.7997,5.7997,5.7997,5.7997,5.7997,5.7923,5.7629,5.7079,5.6737,5.6455,5.5937,5.5636,5.5559,5.5623,5.5384,5.4847,5.4533,5.4142,5.3507,5.2918,5.2711,5.2813,5.2646,5.2553,5.2541,5.2467,5.241,5.243,5.2516,5.2622,5.2704,5.2549,5.2472,5.183,5.1796,5.149,5.103,5.0836,5.0879,5.0828,5.0828,5.0817,5.0836,5.0966,5.1076,5.1125,5.1159,5.1172,5.1217,5.1271,5.1348,5.1378,5.1399,5.1406,5.1403,5.1393,5.1375,5.1407,5.1394,5.139,5.1379,5.1373,5.1373,5.1373,5.1373,5.1373,5.137,5.1367,5.1367,5.1361,5.1354,5.1307,5.1296,5.1273,5.1265,5.1295,5.1293,5.1304,5.1316,5.1318,5.1324,5.1318,5.132,5.1283,7.0353,6.8898,6.8898,6.8421,6.7737,6.77,6.7247,6.6439,6.5618,6.4824,6.4016,6.316,6.2793,6.2793,6.2793,6.2793,6.2793,6.2793,6.2793,6.2793,6.2756,6.1802,6.0407,5.9673,5.8939,5.8547,5.818,5.7997,5.7997,5.7997,5.7997,5.7997,5.7997,5.7997,5.7997,5.7997,5.7997,5.7886,5.7519,5.7299,5.7262,5.6859,5.6485,5.6389,5.6329,5.6119,5.5636,5.5162,5.4705,5.4276,5.3857,5.3666,5.3728,5.343,5.3365,5.3388,5.3142,5.2943,5.3037,5.3063,5.3154,5.3195,5.3243,5.2988,5.2589,5.2473,5.2165,5.1866,5.1708,5.1505,5.1145,5.0861,5.0616,5.0635,5.0743,5.0863,5.0963,5.0977,5.1018,5.1092,5.1164,5.1273,5.1362,5.1374,5.1397,5.1406,5.1404,5.1397,5.1388,5.1377,5.1408,5.1406,5.1406,5.1411,5.1374,5.1374,5.1412,5.1408,5.1406,5.1403,5.1391,5.1387,5.1373,5.1323,5.1351,5.134,5.1333,5.1331,5.1342,5.1348,5.1344,5.1342,5.1342,5.1333,5.1331,7.0513,6.9045,6.9045,6.8531,6.7774,6.7664,6.7333,6.6586,6.5692,6.4921,6.42,6.3233,6.2829,6.2793,6.2793,6.2793,6.2793,6.2793,6.2793,6.2793,6.2756,6.2242,6.1557,6.0297,5.9636,5.9269,5.8547,5.8327,5.829,5.8217,5.807,5.8045,5.7997,5.7997,5.7997,5.7997,5.7997,5.7997,5.7923,5.785,5.785,5.774,5.7491,5.7129,5.689,5.6763,5.6397,5.594,5.5408,5.4935,5.4928,5.484,5.4939,5.4388,5.418,5.4123,5.3727,5.3386,5.3277,5.3489,5.3414,5.353,5.3503,5.3251,5.3239,5.3206,5.3053,5.2745,5.303,5.2509,5.1984,5.1245,5.1037,5.1009,5.0856,5.0734,5.0815,5.0846,5.0827,5.0942,5.1063,5.1161,5.1254,5.1362,5.1409,5.1398,5.1406,5.1406,5.1403,5.1398,5.1397,5.1397,5.1397,5.1398,5.1399,5.1399,5.1398,5.1397,5.1397,5.1393,5.1379,5.1409,5.1394,5.1382,5.1379,5.1373,5.1364,5.1367,5.1411,5.1408,5.1361,5.1367,5.1372,5.1358,5.1353,7.1321,6.9816,6.9816,6.9022,6.7811,6.77,6.759,6.726,6.5888,6.5141,6.4714,6.3453,6.2829,6.2793,6.2793,6.2793,6.2793,6.2793,6.2793,6.2793,6.2793,6.2719,6.2352,6.1447,6.075,6.0224,5.9967,5.9526,5.9086,5.8902,5.8609,5.8107,5.8107,5.8008,5.8008,5.7997,5.7997,5.7997,5.7997,5.7997,5.7997,5.7997,5.7909,5.7686,5.7287,5.7094,5.6957,5.6434,5.5847,5.5376,5.5098,5.5072,5.4992,5.495,5.4885,5.4842,5.4849,5.4772,5.481,5.4715,5.4835,5.4746,5.4681,5.4618,5.3942,5.389,5.3539,5.308,5.2845,5.29,5.2621,5.2438,5.2171,5.2023,5.1679,5.1408,5.1404,5.099,5.072,5.0833,5.0944,5.106,5.1144,5.1263,5.133,5.1377,5.1395,5.1403,5.1406,5.1406,5.1406,5.1406,5.1406,5.1406,5.1406,5.1406,5.1406,5.1406,5.1406,5.1406,5.1401,5.1394,5.1388,5.1379,5.1407,5.1401,5.1395,5.1386,5.1387,5.1382,5.138,5.1387,5.139,5.1379,5.1372,7.0991,6.9596,6.9522,6.8825,6.7811,6.77,6.748,6.6953,6.5852,6.5081,6.453,6.3306,6.2829,6.2793,6.2793,6.2793,6.2793,6.2793,6.2793,6.2793,6.2793,6.2793,6.2756,6.2352,6.1728,6.1006,6.0529,6.0114,5.9857,5.971,5.938,5.8609,5.8535,5.8364,5.8045,5.7997,5.7997,5.7997,5.7997,5.7997,5.7997,5.7997,5.7997,5.7983,5.7706,5.7619,5.7654,5.7147,5.6715,5.636,5.6001,5.5486,5.5041,5.5064,5.5143,5.5235,5.5326,5.539,5.5396,5.5396,5.5365,5.5396,5.5396,5.5167,5.483,5.4715,5.4524,5.4142,5.4034,5.3913,5.3454,5.2925,5.2849,5.2734,5.2461,5.2173,5.2029,5.1245,5.0566,5.0692,5.0821,5.0917,5.104,5.1227,5.1277,5.1343,5.1378,5.1392,5.1399,5.1403,5.1404,5.1404,5.1404,5.1404,5.1404,5.1404,5.1404,5.1404,5.1404,5.1404,5.1406,5.1406,5.1405,5.1401,5.1391,5.1386,5.1381,5.1374,5.1409,5.1377,5.1378,5.1374,5.1409,5.1445,5.1401,7.0243,6.8898,6.8898,6.8421,6.7774,6.77,6.737,6.6696,6.5852,6.5154,6.4237,6.3343,6.3013,6.2829,6.2793,6.2793,6.2793,6.2793,6.2793,6.2793,6.2793,6.2793,6.2793,6.2646,6.2389,6.1741,6.1263,6.0848,6.0639,6.0517,6.015,5.949,5.938,5.9013,5.84,5.818,5.8143,5.8033,5.7997,5.7997,5.7997,5.7997,5.7997,5.7983,5.8003,5.8034,5.8002,5.7756,5.7512,5.7462,5.7117,5.6353,5.5601,5.5189,5.5171,5.524,5.5313,5.539,5.5396,5.5396,5.5396,5.5396,5.5396,5.5396,5.532,5.5282,5.5205,5.5244,5.5091,5.49,5.4333,5.3874,5.3416,5.3263,5.3155,5.3002,5.274,5.1667,5.1168,5.1114,5.1245,5.1262,5.1217,5.1304,5.1291,5.1292,5.138,5.1411,5.1421,5.1427,5.1429,5.1389,5.1388,5.1387,5.1387,5.1389,5.139,5.1392,5.1393,5.1394,5.1394,5.1398,5.1403,5.1406,5.1403,5.1401,5.1397,5.1392,5.1393,5.1398,5.1397,5.139,5.1427,5.1504,5.1616,6.9743,6.8898,6.8898,6.8458,6.7774,6.77,6.7627,6.737,6.6586,6.5852,6.5007,6.42,6.3429,6.2976,6.2793,6.2793,6.2793,6.2793,6.2793,6.2793,6.2793,6.2793,6.2793,6.2793,6.2683,6.2646,6.2279,6.1912,6.152,6.1337,6.0933,6.0382,6.0187,5.9783,5.9196,5.8976,5.8682,5.8217,5.8107,5.8107,5.7997,5.7997,5.7997,5.8008,5.8042,5.8042,5.8065,5.8042,5.7876,5.7412,5.7503,5.7191,5.6681,5.6246,5.5864,5.5483,5.5522,5.5689,5.5664,5.5549,5.5435,5.5396,5.5549,5.5549,5.5511,5.5473,5.5664,5.5473,5.5435,5.5282,5.5205,5.4785,5.49,5.4747,5.4295,5.3874,5.369,5.3135,5.25,5.256,5.2216,5.1799,5.1814,5.1805,5.1808,5.1898,5.1961,5.1802,5.1666,5.1591,5.1512,5.1471,5.1387,5.1387,5.1387,5.1391,5.1395,5.14,5.1403,5.1408,5.141,5.1377,5.1389,5.1401,5.1406,5.1406,5.1405,5.1403,5.152,5.1638,5.1558,5.1439,5.1869,5.226,5.2448,6.9117,6.8382,6.8315,6.8068,6.7737,6.77,6.77,6.7554,6.6843,6.6035,6.5251,6.4457,6.3613,6.2976,6.2793,6.2793,6.2793,6.2793,6.2793,6.2793,6.2793,6.2793,6.2793,6.2793,6.2793,6.2793,6.2756,6.2646,6.2291,6.2205,6.1741,6.119,6.1006,6.0639,6.0015,5.982,5.938,5.8804,5.8584,5.8364,5.8033,5.7997,5.7997,5.7997,5.7997,5.7997,5.802,5.8122,5.8109,5.7984,5.8165,5.7987,5.7692,5.741,5.7059,5.6576,5.6466,5.6586,5.665,5.6702,5.674,5.6695,5.6664,5.6702,5.6702,5.674,5.6434,5.6052,5.5511,5.5396,5.5358,5.5396,5.5396,5.532,5.4976,5.4785,5.467,5.4327,5.4159,5.3976,5.3245,5.2771,5.27,5.262,5.2476,5.2455,5.253,5.2337,5.2056,5.2022,5.1983,5.1752,5.1751,5.1749,5.1749,5.179,5.179,5.1754,5.1682,5.1688,5.162,5.171,5.1564,5.1383,5.1396,5.1717,5.1444,5.1445,5.1679,5.1953,5.2109,5.2305,5.2734,5.3046,5.3239,6.8528,6.7939,6.7834,6.7781,6.7781,6.7754,6.7754,6.7594,6.704,6.6219,6.5301,6.464,6.3796,6.3013,6.2793,6.2793,6.2793,6.2793,6.2793,6.2793,6.2793,6.2793,6.2793,6.2793,6.2793,6.2793,6.2793,6.2793,6.2719,6.2683,6.2389,6.1998,6.1814,6.1447,6.0774,6.0639,6.0114,5.9636,5.9196,5.8792,5.818,5.7997,5.7997,5.7997,5.7997,5.7997,5.8008,5.8077,5.8249,5.8363,5.8555,5.8674,5.8446,5.8583,5.8511,5.8136,5.7873,5.7773,5.779,5.7772,5.7619,5.7581,5.781,5.7848,5.781,5.7542,5.7511,5.6899,5.6167,5.5702,5.5747,5.5517,5.5396,5.5396,5.5396,5.5358,5.5282,5.5135,5.5072,5.47,5.4028,5.3748,5.36,5.321,5.3,5.3061,5.3104,5.3108,5.2868,5.2844,5.2731,5.2348,5.2194,5.2194,5.2233,5.235,5.2428,5.2506,5.2478,5.2526,5.2345,5.2203,5.2058,5.2148,5.2241,5.245,5.1981,5.1788,5.2222,5.2614,5.2845,5.308,5.3356,5.3827,5.4219,6.8168,6.8057,6.8081,6.8068,6.8006,6.7939,6.7886,6.7836,6.7607,6.6696,6.5301,6.5105,6.4224,6.3086,6.2793,6.2793,6.2793,6.2793,6.2866,6.2939,6.2866,6.2866,6.2829,6.2793,6.2793,6.2793,6.2793,6.2793,6.2793,6.2793,6.2756,6.2572,6.2462,6.2254,6.152,6.1447,6.1043,6.0309,5.96,5.8866,5.8217,5.807,5.807,5.7997,5.7997,5.7997,5.7997,5.8042,5.817,5.8393,5.8619,5.8835,5.9027,5.9323,5.9564,5.9268,5.8636,5.7773,5.8026,5.8192,5.8192,5.823,5.8116,5.7963,5.8116,5.8077,5.7963,5.7817,5.6976,5.6511,5.6358,5.5899,5.5549,5.5587,5.5778,5.5626,5.5511,5.5708,5.5683,5.5383,5.4709,5.4578,5.4462,5.3923,5.3522,5.3624,5.3707,5.3755,5.3636,5.3541,5.3394,5.3011,5.286,5.2858,5.2827,5.2907,5.2991,5.3143,5.3196,5.321,5.3068,5.2966,5.3334,5.3388,5.3403,5.3296,5.3028,5.2954,5.3115,5.3388,5.3737,5.3855,5.3897,5.4447,5.5113,6.8296,6.8208,6.8145,6.8083,6.807,6.8055,6.803,6.7967,6.785,6.6888,6.5612,6.5314,6.4371,6.3099,6.2793,6.2793,6.2793,6.2866,6.3123,6.3319,6.316,6.3123,6.3319,6.3062,6.2793,6.2866,6.2793,6.2793,6.2793,6.2793,6.2793,6.2793,6.2793,6.2646,6.2218,6.2254,6.1814,6.108,6.0309,5.949,5.8902,5.8646,5.8474,5.8033,5.7997,5.7997,5.7997,5.8008,5.8159,5.8371,5.8529,5.8791,5.9129,5.942,5.9638,5.9876,5.9467,5.9212,5.9318,5.9262,5.923,5.9269,5.9269,5.9383,5.9224,5.8842,5.8574,5.8574,5.781,5.739,5.7313,5.7008,5.6893,5.6778,5.6549,5.632,5.6167,5.6052,5.6072,5.5728,5.5516,5.5466,5.545,5.5258,5.4911,5.4851,5.4886,5.4893,5.4463,5.3981,5.3828,5.3667,5.3592,5.3592,5.3526,5.3536,5.3554,5.3676,5.3691,5.3744,5.3754,5.3809,5.4182,5.4121,5.3826,5.3795,5.3957,5.3922,5.3847,5.4238,5.4705,5.4824,5.4983,5.5493,5.6085,6.8432,6.8334,6.8259,6.8221,6.8208,6.8183,6.817,6.8108,6.798,6.7154,6.5961,6.5307,6.4288,6.3418,6.3221,6.3356,6.349,6.3417,6.3783,6.3943,6.3906,6.3894,6.398,6.3649,6.3209,6.3086,6.2903,6.2829,6.2793,6.2793,6.2793,6.2793,6.2793,6.2756,6.2793,6.2683,6.2291,6.152,6.097,6.0297,5.9673,5.949,5.9049,5.8572,5.829,5.8217,5.7997,5.8008,5.8122,5.8371,5.8465,5.8729,5.91,5.9365,5.9642,5.9888,5.9809,5.999,6.0099,6.0186,6.0377,6.0377,6.0377,6.0148,6.0186,5.972,5.9408,5.9415,5.8651,5.8268,5.8154,5.8001,5.7695,5.7619,5.7657,5.739,5.7129,5.6969,5.6906,5.6779,5.662,5.6506,5.6538,5.6559,5.6411,5.6187,5.6106,5.5996,5.548,5.4766,5.4686,5.4677,5.4691,5.473,5.4663,5.4521,5.4422,5.4326,5.4383,5.4513,5.472,5.478,5.4999,5.4782,5.4444,5.4805,5.5282,5.489,5.4577,5.5166,5.5675,5.5906,5.6181,5.6655,5.7091,6.8493,6.8481,6.8469,6.8457,6.8445,6.8334,6.8284,6.8271,6.8158,6.7553,6.6407,6.5237,6.4426,6.4094,6.408,6.436,6.5031,6.5105,6.5105,6.5105,6.5178,6.5031,6.4861,6.442,6.387,6.3772,6.3209,6.2829,6.2793,6.2793,6.2793,6.2793,6.2793,6.2793,6.2793,6.2756,6.2462,6.1887,6.1557,6.1117,6.0554,6.0224,5.9893,5.9306,5.9049,5.8792,5.807,5.8107,5.8184,5.8419,5.8465,5.8687,5.9041,5.9328,5.9624,5.9877,6.006,6.0204,6.0335,6.0377,6.0377,6.0377,6.0377,6.0377,6.0377,6.0377,6.0262,6.0109,5.9415,5.9109,5.8803,5.8498,5.8383,5.8421,5.8498,5.823,5.8001,5.7848,5.7778,5.7767,5.7609,5.7376,5.7378,5.7361,5.7264,5.704,5.6947,5.6838,5.6534,5.597,5.5925,5.5925,5.5946,5.5997,5.6003,5.5833,5.548,5.546,5.5515,5.5758,5.6,5.6026,5.5742,5.5831,5.5689,5.6128,5.6372,5.5942,5.5825,5.6255,5.6567,5.6527,5.688,5.7355,5.7945,6.8531,6.8531,6.8531,6.8531,6.8481,6.8432,6.842,6.8396,6.8284,6.7407,6.6162,6.5435,6.4807,6.4499,6.4793,6.5048,6.5301,6.5288,6.5632,6.5742,6.5618,6.5655,6.5411,6.4897,6.4066,6.3956,6.3319,6.2793,6.2793,6.2829,6.2793,6.2793,6.2793,6.2793,6.2793,6.2793,6.2572,6.2475,6.2254,6.1924,6.13,6.108,6.075,6.0003,5.993,5.949,5.8866,5.8756,5.8623,5.8508,5.8491,5.8756,5.9012,5.9318,5.9607,5.9869,5.9999,6.0204,6.0342,6.0377,6.0377,6.0377,6.0377,6.0377,6.0377,6.0377,6.0377,6.0262,6.0102,5.9797,5.9804,5.9651,5.9536,5.946,5.9269,5.8994,5.8842,5.8689,5.8498,5.8403,5.817,5.7876,5.7958,5.8121,5.7999,5.7852,5.7753,5.7634,5.7295,5.7072,5.6958,5.6812,5.6798,5.67,5.6708,5.6589,5.6468,5.6558,5.6647,5.6773,5.6901,5.65,5.629,5.6533,5.6702,5.6793,5.684,5.684,5.684,5.684,5.6839,5.68,5.7311,5.8094,5.8762,6.8531,6.8531,6.8531,6.8531,6.8531,6.8531,6.8531,6.8481,6.8396,6.758,6.6198,6.6088,6.5755,6.5361,6.5519,6.6057,6.6137,6.6208,6.6439,6.6512,6.6476,6.6402,6.6219,6.5742,6.5007,6.4567,6.3723,6.3246,6.3282,6.2939,6.2829,6.2793,6.2793,6.2793,6.2793,6.2793,6.2793,6.2793,6.2756,6.2609,6.1998,6.1924,6.1557,6.0896,6.075,6.0334,5.9783,5.9501,5.9262,5.905,5.8904,5.8931,5.9087,5.9318,5.9607,5.9844,6.0045,6.0204,6.0328,6.0377,6.0377,6.0377,6.0377,6.0377,6.0377,6.0377,6.0377,6.0377,6.0377,6.0377,6.0377,6.0186,6.0148,5.9957,5.9995,5.9804,5.9651,5.9491,5.9224,5.9046,5.889,5.8962,5.911,5.9282,5.8834,5.86,5.8315,5.8217,5.8072,5.7887,5.7781,5.7641,5.7471,5.7331,5.7192,5.7388,5.7617,5.7697,5.7745,5.76,5.7498,5.7172,5.719,5.7632,5.7721,5.7421,5.7542,5.7854,5.7542,5.7112,5.7347,5.7737,5.848,5.9263,5.9615,6.8531,6.8531,6.8531,6.8531,6.8531,6.8531,6.8531,6.8493,6.8481,6.7986,6.7171,6.7061,6.6963,6.6803,6.6677,6.6994,6.7371,6.745,6.7507,6.7397,6.7297,6.7517,6.7223,6.6673,6.5925,6.5962,6.4934,6.4053,6.4053,6.3563,6.316,6.2903,6.2903,6.2793,6.2793,6.2793,6.2793,6.2793,6.2793,6.2719,6.2646,6.2609,6.2144,6.1777,6.1557,6.119,6.0566,6.0382,6.0109,5.97,5.9671,5.9648,5.949,5.9722,5.9964,6.0189,6.0197,6.028,6.0432,6.0453,6.0568,6.0453,6.0377,6.0377,6.0377,6.0377,6.0377,6.0377,6.0377,6.0377,6.0377,6.0377,6.0415,6.0377,6.0377,6.0339,6.0148,6.0071,5.9765,5.9613,6.0056,6.0411,6.0525,6.0459,5.9901,5.943,5.8951,5.8803,5.8813,5.8752,5.8649,5.8282,5.8111,5.8137,5.812,5.8542,5.876,5.8841,5.8689,5.8388,5.8404,5.8349,5.852,5.8805,5.8623,5.8243,5.8596,5.9025,5.8791,5.8635,5.8713,5.9103,5.9846,6.0354,6.0589,6.8531,6.8531,6.8531,6.8531,6.8531,6.8531,6.8531,6.8531,6.8456,6.8048,6.7553,6.7739,6.7604,6.7358,6.7592,6.7824,6.7919,6.7913,6.7847,6.7834,6.7754,6.7714,6.748,6.704,6.6549,6.6219,6.5411,6.4897,6.4897,6.4371,6.4053,6.3759,6.3172,6.2829,6.2793,6.2793,6.2793,6.2793,6.2793,6.2793,6.2793,6.2793,6.2646,6.2328,6.2328,6.1961,6.1263,6.119,6.0918,6.0535,6.0507,6.0566,6.0569,6.0877,6.1205,6.1329,6.1338,6.1042,6.1359,6.1516,6.144,6.0912,6.053,6.0568,6.0415,6.0415,6.0377,6.0492,6.0606,6.0606,6.0377,6.0415,6.0415,6.0415,6.0377,6.0377,6.03,6.03,6.0186,6.0148,6.0418,6.0533,6.0667,6.0827,6.0418,6.0412,6.0049,5.9802,5.9749,5.9659,5.9523,5.8964,5.8715,5.8823,5.9044,5.9416,5.9469,5.9393,5.9168,5.8829,5.8962,5.9372,5.9306,5.9357,5.9212,5.9142,5.9455,5.9806,6.0235,6.0314,6.0118,5.9962,6.0315,6.086,6.1289,6.8531,6.8531,6.8531,6.8531,6.8531,6.8531,6.8531,6.8531,6.8493,6.8196,6.7936,6.8271,6.8197,6.7889,6.8012,6.8271,6.8133,6.8055,6.7926,6.7913,6.782,6.7754,6.753,6.7223,6.7063,6.6659,6.6182,6.5742,6.5705,6.5411,6.5007,6.442,6.3686,6.3429,6.3233,6.3086,6.2793,6.2793,6.2793,6.2793,6.2793,6.2793,6.2793,6.2756,6.2683,6.2499,6.2132,6.1924,6.1789,6.1447,6.14,6.1523,6.1751,6.1949,6.224,6.2226,6.2246,6.1972,6.2213,6.2388,6.2166,6.1593,6.1287,6.1249,6.1287,6.1447,6.1402,6.1363,6.1172,6.1211,6.1218,6.1134,6.0835,6.0835,6.0606,6.0644,6.0835,6.0835,6.0759,6.0721,6.062,6.0673,6.0737,6.0833,6.0807,6.0982,6.1177,6.0895,6.061,6.0485,6.0361,5.9963,5.971,5.9968,6.0105,6.0236,6.0209,5.9943,5.9802,5.966,6.0031,6.0518,6.0174,5.9987,6.019,6.0314,6.0274,6.0548,6.0899,6.1094,6.1055,6.0938,6.0861,6.1211,6.168,6.8419,6.8419,6.8419,6.8345,6.8382,6.8233,6.8345,6.8493,6.8531,6.8493,6.8493,6.8456,6.8407,6.842,6.8358,6.8309,6.8284,6.8183,6.8068,6.7965,6.7913,6.782,6.7754,6.764,6.748,6.7333,6.7003,6.6512,6.6439,6.5888,6.5485,6.5191,6.453,6.42,6.3906,6.3649,6.316,6.2939,6.2793,6.2793,6.2793,6.2793,6.2793,6.2793,6.2756,6.2756,6.2609,6.2597,6.2401,6.2248,6.2231,6.2066,6.2013,6.2034,6.2316,6.255,6.2834,6.3039,6.2999,6.3152,6.3266,6.3006,6.2968,6.2961,6.2655,6.2433,6.2319,6.235,6.2357,6.2541,6.2655,6.2128,6.1631,6.1402,6.1065,6.1172,6.144,6.1478,6.1332,6.1218,6.1027,6.1009,6.0981,6.1079,6.1306,6.1118,6.1246,6.127,6.1055,6.1123,6.1041,6.1084,6.0983,6.1232,6.1286,6.0986,6.0917,6.0694,6.0949,6.0964,6.1334,6.1346,6.108,6.097,6.1404,6.1485,6.1094,6.1172,6.1485,6.1602,6.1485,6.1446,6.1289,6.1368,6.1719,6.6785,6.6785,6.6785,6.6785,6.6785,6.6785,6.7416,6.8419,6.8531,6.8531,6.8531,6.8493,6.8531,6.8481,6.8457,6.8432,6.8383,6.8309,6.8246,6.8145,6.8017,6.7926,6.7834,6.7767,6.7727,6.764,6.7457,6.7237,6.715,6.6512,6.6182,6.6035,6.5338,6.5044,6.4861,6.4664,6.3857,6.3196,6.3013,6.2866,6.2829,6.2793,6.2793,6.2793,6.2793,6.2793,6.2793,6.2793,6.272,6.2875,6.3046,6.3146,6.3548,6.3691,6.3913,6.3612,6.4069,6.4496,6.4038,6.4344,6.4573,6.4458,6.4535,6.384,6.3381,6.3037,6.3075,6.3228,6.3266,6.3343,6.3266,6.2892,6.2586,6.2357,6.2051,6.2051,6.228,6.2204,6.2089,6.1975,6.1784,6.1684,6.162,6.168,6.1803,6.1404,6.132,6.1542,6.1502,6.1534,6.149,6.1492,6.151,6.1559,6.1571,6.1348,6.1435,6.1523,6.1623,6.168,6.1616,6.1589,6.1674,6.1716,6.1718,6.1719,6.1641,6.1719,6.1719,6.1719,6.1641,6.168,6.1719,6.1719,6.1719,6.6091,6.6091,6.6091,6.6091,6.6091,6.6128,6.6711,6.7528,6.7862,6.8048,6.8048,6.8345,6.8531,6.8531,6.8481,6.8481,6.8481,6.842,6.8346,6.8234,6.8095,6.8068,6.7978,6.7899,6.786,6.7807,6.7781,6.7657,6.758,6.7333,6.699,6.688,6.6145,6.5875,6.5655,6.5325,6.4738,6.404,6.3527,6.316,6.2939,6.2829,6.2793,6.2793,6.2793,6.2793,6.2793,6.2793,6.2941,6.322,6.3465,6.378,6.4169,6.4483,6.473,6.4514,6.4817,6.5016,6.4802,6.5031,6.5299,6.5413,6.5375,6.4879,6.442,6.4153,6.4107,6.4107,6.4038,6.3923,6.377,6.3618,6.3541,6.3388,6.3236,6.3045,6.3037,6.2999,6.293,6.2853,6.2744,6.2616,6.2547,6.2534,6.2546,6.2515,6.2564,6.2722,6.2371,6.1915,6.171,6.1549,6.1561,6.1571,6.1582,6.1597,6.161,6.1623,6.168,6.1694,6.1705,6.171,6.1715,6.1718,6.1719,6.1719,6.1719,6.1719,6.1719,6.1758,6.1836,6.1836,6.1797,6.1719,6.1719,6.5856,6.5831,6.5893,6.5782,6.5893,6.5782,6.5831,6.6005,6.6673,6.7193,6.7453,6.8048,6.8382,6.8456,6.8531,6.8531,6.8493,6.8469,6.842,6.8309,6.8259,6.8196,6.8145,6.8107,6.7967,6.7952,6.7913,6.7886,6.7781,6.7607,6.7534,6.764,6.7003,6.6623,6.6512,6.6109,6.5668,6.5228,6.4604,6.4127,6.327,6.2976,6.2866,6.2793,6.2793,6.2793,6.2793,6.2842,6.2953,6.3208,6.3465,6.3747,6.4206,6.4633,6.4938,6.5131,6.5229,6.5261,6.5253,6.5337,6.5337,6.5413,6.5375,6.5261,6.4993,6.4879,6.4802,6.4802,6.4726,6.4726,6.4611,6.442,6.4305,6.4191,6.4038,6.4022,6.4082,6.402,6.3889,6.3851,6.3841,6.3674,6.3372,6.336,6.3257,6.3453,6.349,6.3619,6.3427,6.2672,6.2281,6.1995,6.1965,6.1937,6.1603,6.1617,6.1669,6.1683,6.1774,6.1705,6.1713,6.1715,6.1718,6.1719,6.1719,6.1719,6.1719,6.1719,6.1836,6.207,6.2109,6.1992,6.1953,6.2148,6.2109,6.4185,6.4185,6.4185,6.4185,6.4185,6.4185,6.4222,6.4259,6.5039,6.6116,6.7156,6.7491,6.7936,6.8345,6.8382,6.8419,6.8493,6.8531,6.8469,6.8408,6.8358,6.8309,6.8246,6.8196,6.8083,6.8057,6.8031,6.7993,6.7978,6.7913,6.786,6.7847,6.7426,6.7337,6.7337,6.6932,6.6686,6.6245,6.5925,6.5094,6.409,6.3723,6.3576,6.3123,6.2829,6.2866,6.2829,6.2805,6.2953,6.3171,6.3336,6.3742,6.4297,6.4717,6.4984,6.5191,6.5258,6.5337,6.5391,6.5406,6.5413,6.5413,6.5413,6.5413,6.5375,6.5413,6.5413,6.5413,6.5413,6.5413,6.5345,6.5154,6.5008,6.4924,6.4855,6.4976,6.5089,6.4965,6.481,6.4817,6.4869,6.4663,6.4314,6.4134,6.4029,6.3917,6.3839,6.3922,6.4127,6.3764,6.3387,6.3061,6.2719,6.2537,6.2128,6.1985,6.2231,6.2125,6.2135,6.1986,6.1836,6.207,6.2304,6.1875,6.1719,6.2031,6.2148,6.1797,6.1953,6.2462,6.2735,6.2774,6.3243,6.3517,6.3204,6.359,6.359,6.359,6.359,6.359,6.359,6.359,6.3665,6.4073,6.5002,6.6153,6.6599,6.7231,6.7862,6.7973,6.8271,6.8382,6.8531,6.8518,6.8457,6.8432,6.8408,6.8346,6.8309,6.8259,6.8221,6.8108,6.807,6.812,6.8068,6.8004,6.7991,6.7913,6.7836,6.7836,6.776,6.7573,6.7132,6.7043,6.6319,6.5143,6.48,6.4237,6.3613,6.3356,6.3246,6.2866,6.2805,6.2917,6.3159,6.3394,6.3797,6.4267,6.4615,6.4871,6.5044,6.5177,6.5305,6.5352,6.5467,6.549,6.5566,6.5452,6.549,6.5413,6.5413,6.5413,6.5413,6.5413,6.5413,6.5398,6.5291,6.5282,6.5259,6.525,6.5331,6.5384,6.5329,6.5266,6.5273,6.5339,6.5356,6.5135,6.5177,6.5093,6.5162,6.4932,6.4916,6.5012,6.489,6.4515,6.4203,6.3861,6.3532,6.3242,6.3135,6.3141,6.2917,6.2652,6.2928,6.3086,6.3008,6.2891,6.2735,6.2735,6.3008,6.2969,6.2618,6.2813,6.3478,6.3634,6.3673,6.422,6.4688,6.4493,6.3479,6.359,6.359,6.359,6.359,6.359,6.359,6.359,6.3628,6.3999,6.4742,6.5459,6.6265,6.6896,6.7193,6.7713,6.8085,6.8122,6.8233,6.8493,6.8518,6.8457,6.8457,6.8469,6.8396,6.8321,6.8259,6.8184,6.8171,6.8158,6.8145,6.8132,6.8083,6.807,6.8081,6.8017,6.7828,6.7728,6.7602,6.7316,6.6602,6.5902,6.5081,6.453,6.409,6.3686,6.3209,6.2854,6.2916,6.3123,6.344,6.383,6.4176,6.4492,6.4745,6.4961,6.5449,6.5547,6.5657,6.591,6.5895,6.5872,6.5719,6.5727,6.5765,6.5765,6.5765,6.5742,6.5742,6.5474,6.5497,6.5519,6.5556,6.5561,6.5604,6.5646,6.5653,6.566,6.5674,6.5712,6.5792,6.5845,6.5917,6.5952,6.6057,6.6162,6.6293,6.6398,6.6312,6.5995,6.5626,6.5363,6.5117,6.4751,6.4234,6.4046,6.3894,6.3742,6.3593,6.4023,6.422,6.3829,6.3712,6.3946,6.4025,6.3907,6.3946,6.3751,6.4103,6.4415,6.4493,6.461,6.5079,6.5508,6.5664,6.2996,6.359,6.359,6.359,6.359,6.359,6.359,6.359,6.359,6.3702,6.3888,6.4073,6.4853,6.6314,6.6339,6.6748,6.7416,6.7602,6.8085,6.8419,6.8456,6.8493,6.8531,6.8531,6.8481,6.8432,6.8396,6.842,6.8346,6.8284,6.8259,6.8259,6.8121,6.8095,6.8095,6.8081,6.8068,6.8055,6.8006,6.777,6.757,6.6793,6.5902,6.5191,6.442,6.4127,6.3723,6.3135,6.299,6.3087,6.353,6.3988,6.4373,6.4695,6.4926,6.5383,6.583,6.6154,6.6388,6.678,6.6896,6.7026,6.7026,6.7072,6.711,6.7156,6.7141,6.7034,6.6804,6.5947,6.5809,6.5839,6.5837,6.5831,6.5841,6.5868,6.5889,6.596,6.5987,6.6064,6.6154,6.6179,6.6192,6.626,6.6354,6.646,6.6656,6.6717,6.6738,6.6662,6.669,6.6395,6.6167,6.5354,6.46,6.4603,6.4489,6.4414,6.4454,6.4766,6.4766,6.4337,6.4337,6.4766,6.4649,6.4415,6.4493,6.4844,6.4922,6.5157,6.5312,6.5507,6.5936,6.6172,6.625]}]]